<?xml version="1.0" encoding="UTF-8" standalone="no" ?>
<gpx xmlns="http://www.topografix.com/GPX/1/1" xmlns:xsi="http://www.w3.org/2001/XMLSchema-instance" xsi:schemaLocation="http://www.topografix.com/GPX/1/1 http://www.topografix.com/GPX/1/1/gpx.xsd" version="1.1" creator="VisuGPX - https://www.visugpx.com">
  <metadata>
    <name>L\'ETALE</name>
    <desc><![CDATA[Peu de neige mais suffisamment pour se faire plaisir autant à la montée qu\'à la descente]]></desc>
  </metadata>
  <trk>
    <name><![CDATA[L\'ETALE_1]]></name>
    <trkseg>
      <trkpt lat="45.88344" lon="6.42902">
        <ele>1266.3</ele>
        <time>2013-12-08T08:32:53Z</time>
      </trkpt>
      <trkpt lat="45.88345" lon="6.42902">
        <ele>1266.3</ele>
        <time>2013-12-08T08:32:58Z</time>
      </trkpt>
      <trkpt lat="45.88345" lon="6.42902">
        <ele>1266.3</ele>
        <time>2013-12-08T08:33:03Z</time>
      </trkpt>
      <trkpt lat="45.88345" lon="6.42902">
        <ele>1266.3</ele>
        <time>2013-12-08T08:33:08Z</time>
      </trkpt>
      <trkpt lat="45.88345" lon="6.42902">
        <ele>1266.3</ele>
        <time>2013-12-08T08:33:14Z</time>
      </trkpt>
      <trkpt lat="45.88345" lon="6.42902">
        <ele>1266.3</ele>
        <time>2013-12-08T08:33:18Z</time>
      </trkpt>
      <trkpt lat="45.88345" lon="6.42902">
        <ele>1266.3</ele>
        <time>2013-12-08T08:33:23Z</time>
      </trkpt>
      <trkpt lat="45.88345" lon="6.42902">
        <ele>1266.3</ele>
        <time>2013-12-08T08:33:28Z</time>
      </trkpt>
      <trkpt lat="45.88345" lon="6.42902">
        <ele>1266.3</ele>
        <time>2013-12-08T08:33:34Z</time>
      </trkpt>
      <trkpt lat="45.88345" lon="6.42902">
        <ele>1266.3</ele>
        <time>2013-12-08T08:33:38Z</time>
      </trkpt>
      <trkpt lat="45.88344" lon="6.42903">
        <ele>1266.3</ele>
        <time>2013-12-08T08:33:43Z</time>
      </trkpt>
      <trkpt lat="45.88344" lon="6.42903">
        <ele>1266.3</ele>
        <time>2013-12-08T08:33:48Z</time>
      </trkpt>
      <trkpt lat="45.88344" lon="6.42903">
        <ele>1266.3</ele>
        <time>2013-12-08T08:33:54Z</time>
      </trkpt>
      <trkpt lat="45.88344" lon="6.42903">
        <ele>1266.3</ele>
        <time>2013-12-08T08:33:58Z</time>
      </trkpt>
      <trkpt lat="45.88346" lon="6.42907">
        <ele>1266.3</ele>
        <time>2013-12-08T08:34:03Z</time>
      </trkpt>
      <trkpt lat="45.88346" lon="6.42908">
        <ele>1266.3</ele>
        <time>2013-12-08T08:34:09Z</time>
      </trkpt>
      <trkpt lat="45.88346" lon="6.4291">
        <ele>1266.3</ele>
        <time>2013-12-08T08:34:13Z</time>
      </trkpt>
      <trkpt lat="45.88345" lon="6.42915">
        <ele>1268.3405</ele>
        <time>2013-12-08T08:34:18Z</time>
      </trkpt>
      <trkpt lat="45.88345" lon="6.42916">
        <ele>1268.3405</ele>
        <time>2013-12-08T08:34:25Z</time>
      </trkpt>
      <trkpt lat="45.88345" lon="6.42917">
        <ele>1268.3405</ele>
        <time>2013-12-08T08:34:28Z</time>
      </trkpt>
      <trkpt lat="45.88345" lon="6.42918">
        <ele>1268.3405</ele>
        <time>2013-12-08T08:34:33Z</time>
      </trkpt>
      <trkpt lat="45.88345" lon="6.42918">
        <ele>1268.3405</ele>
        <time>2013-12-08T08:34:40Z</time>
      </trkpt>
      <trkpt lat="45.88345" lon="6.42918">
        <ele>1268.3405</ele>
        <time>2013-12-08T08:34:43Z</time>
      </trkpt>
      <trkpt lat="45.88345" lon="6.42918">
        <ele>1268.3405</ele>
        <time>2013-12-08T08:34:48Z</time>
      </trkpt>
      <trkpt lat="45.88345" lon="6.42918">
        <ele>1268.3405</ele>
        <time>2013-12-08T08:34:54Z</time>
      </trkpt>
      <trkpt lat="45.88345" lon="6.42918">
        <ele>1268.3405</ele>
        <time>2013-12-08T08:34:58Z</time>
      </trkpt>
      <trkpt lat="45.88345" lon="6.42918">
        <ele>1268.3405</ele>
        <time>2013-12-08T08:35:03Z</time>
      </trkpt>
      <trkpt lat="45.88345" lon="6.42918">
        <ele>1268.3405</ele>
        <time>2013-12-08T08:35:09Z</time>
      </trkpt>
      <trkpt lat="45.88345" lon="6.42918">
        <ele>1268.3405</ele>
        <time>2013-12-08T08:35:13Z</time>
      </trkpt>
      <trkpt lat="45.88345" lon="6.42918">
        <ele>1268.3405</ele>
        <time>2013-12-08T08:35:18Z</time>
      </trkpt>
      <trkpt lat="45.88345" lon="6.42918">
        <ele>1268.3405</ele>
        <time>2013-12-08T08:35:24Z</time>
      </trkpt>
      <trkpt lat="45.88345" lon="6.42918">
        <ele>1268.3405</ele>
        <time>2013-12-08T08:35:28Z</time>
      </trkpt>
      <trkpt lat="45.88345" lon="6.42918">
        <ele>1268.3405</ele>
        <time>2013-12-08T08:35:33Z</time>
      </trkpt>
      <trkpt lat="45.88345" lon="6.42918">
        <ele>1268.3405</ele>
        <time>2013-12-08T08:35:38Z</time>
      </trkpt>
      <trkpt lat="45.88345" lon="6.42918">
        <ele>1268.3405</ele>
        <time>2013-12-08T08:35:43Z</time>
      </trkpt>
      <trkpt lat="45.88345" lon="6.42918">
        <ele>1268.3405</ele>
        <time>2013-12-08T08:35:48Z</time>
      </trkpt>
      <trkpt lat="45.88345" lon="6.42918">
        <ele>1268.3405</ele>
        <time>2013-12-08T08:35:54Z</time>
      </trkpt>
      <trkpt lat="45.88345" lon="6.42918">
        <ele>1268.3405</ele>
        <time>2013-12-08T08:35:58Z</time>
      </trkpt>
      <trkpt lat="45.88345" lon="6.42918">
        <ele>1268.3405</ele>
        <time>2013-12-08T08:36:03Z</time>
      </trkpt>
      <trkpt lat="45.88345" lon="6.42918">
        <ele>1268.3405</ele>
        <time>2013-12-08T08:36:09Z</time>
      </trkpt>
      <trkpt lat="45.88345" lon="6.42918">
        <ele>1268.3405</ele>
        <time>2013-12-08T08:36:13Z</time>
      </trkpt>
      <trkpt lat="45.88345" lon="6.42918">
        <ele>1268.3405</ele>
        <time>2013-12-08T08:36:18Z</time>
      </trkpt>
      <trkpt lat="45.88345" lon="6.42918">
        <ele>1268.3405</ele>
        <time>2013-12-08T08:36:23Z</time>
      </trkpt>
      <trkpt lat="45.88345" lon="6.42918">
        <ele>1268.3405</ele>
        <time>2013-12-08T08:36:28Z</time>
      </trkpt>
      <trkpt lat="45.88345" lon="6.42918">
        <ele>1268.3405</ele>
        <time>2013-12-08T08:36:33Z</time>
      </trkpt>
      <trkpt lat="45.88345" lon="6.42918">
        <ele>1268.3405</ele>
        <time>2013-12-08T08:36:38Z</time>
      </trkpt>
      <trkpt lat="45.88345" lon="6.42918">
        <ele>1268.3405</ele>
        <time>2013-12-08T08:36:43Z</time>
      </trkpt>
      <trkpt lat="45.88345" lon="6.42918">
        <ele>1268.3405</ele>
        <time>2013-12-08T08:36:48Z</time>
      </trkpt>
      <trkpt lat="45.88345" lon="6.42918">
        <ele>1268.3405</ele>
        <time>2013-12-08T08:36:58Z</time>
      </trkpt>
      <trkpt lat="45.88345" lon="6.42918">
        <ele>1268.3405</ele>
        <time>2013-12-08T08:37:03Z</time>
      </trkpt>
      <trkpt lat="45.88345" lon="6.42918">
        <ele>1268.3405</ele>
        <time>2013-12-08T08:37:09Z</time>
      </trkpt>
      <trkpt lat="45.88345" lon="6.42918">
        <ele>1268.3405</ele>
        <time>2013-12-08T08:37:13Z</time>
      </trkpt>
      <trkpt lat="45.88345" lon="6.42918">
        <ele>1268.3405</ele>
        <time>2013-12-08T08:37:18Z</time>
      </trkpt>
      <trkpt lat="45.88345" lon="6.42918">
        <ele>1268.3405</ele>
        <time>2013-12-08T08:37:25Z</time>
      </trkpt>
      <trkpt lat="45.88345" lon="6.42918">
        <ele>1268.3405</ele>
        <time>2013-12-08T08:37:28Z</time>
      </trkpt>
      <trkpt lat="45.88345" lon="6.42918">
        <ele>1268.3405</ele>
        <time>2013-12-08T08:37:33Z</time>
      </trkpt>
      <trkpt lat="45.88345" lon="6.42918">
        <ele>1268.3405</ele>
        <time>2013-12-08T08:37:38Z</time>
      </trkpt>
      <trkpt lat="45.88345" lon="6.42918">
        <ele>1268.3405</ele>
        <time>2013-12-08T08:37:43Z</time>
      </trkpt>
      <trkpt lat="45.88345" lon="6.42918">
        <ele>1268.3405</ele>
        <time>2013-12-08T08:37:48Z</time>
      </trkpt>
      <trkpt lat="45.88345" lon="6.42918">
        <ele>1268.3405</ele>
        <time>2013-12-08T08:37:53Z</time>
      </trkpt>
      <trkpt lat="45.88345" lon="6.42918">
        <ele>1268.3405</ele>
        <time>2013-12-08T08:38:04Z</time>
      </trkpt>
      <trkpt lat="45.88345" lon="6.42918">
        <ele>1268.3405</ele>
        <time>2013-12-08T08:38:08Z</time>
      </trkpt>
      <trkpt lat="45.88345" lon="6.42918">
        <ele>1268.3405</ele>
        <time>2013-12-08T08:38:13Z</time>
      </trkpt>
      <trkpt lat="45.88345" lon="6.42918">
        <ele>1268.3405</ele>
        <time>2013-12-08T08:38:18Z</time>
      </trkpt>
      <trkpt lat="45.88345" lon="6.42918">
        <ele>1268.3405</ele>
        <time>2013-12-08T08:38:23Z</time>
      </trkpt>
      <trkpt lat="45.88345" lon="6.42918">
        <ele>1268.3405</ele>
        <time>2013-12-08T08:38:28Z</time>
      </trkpt>
      <trkpt lat="45.88345" lon="6.42918">
        <ele>1268.3405</ele>
        <time>2013-12-08T08:38:33Z</time>
      </trkpt>
      <trkpt lat="45.88345" lon="6.42918">
        <ele>1268.3405</ele>
        <time>2013-12-08T08:38:39Z</time>
      </trkpt>
      <trkpt lat="45.88345" lon="6.42918">
        <ele>1268.3405</ele>
        <time>2013-12-08T08:38:43Z</time>
      </trkpt>
      <trkpt lat="45.88345" lon="6.42921">
        <ele>1268.3405</ele>
        <time>2013-12-08T08:38:48Z</time>
      </trkpt>
      <trkpt lat="45.88346" lon="6.42921">
        <ele>1268.3405</ele>
        <time>2013-12-08T08:38:54Z</time>
      </trkpt>
      <trkpt lat="45.88344" lon="6.42923">
        <ele>1268.3405</ele>
        <time>2013-12-08T08:38:58Z</time>
      </trkpt>
      <trkpt lat="45.88344" lon="6.42923">
        <ele>1268.3405</ele>
        <time>2013-12-08T08:39:03Z</time>
      </trkpt>
      <trkpt lat="45.88344" lon="6.42923">
        <ele>1268.3405</ele>
        <time>2013-12-08T08:39:08Z</time>
      </trkpt>
      <trkpt lat="45.88344" lon="6.42923">
        <ele>1268.3405</ele>
        <time>2013-12-08T08:39:13Z</time>
      </trkpt>
      <trkpt lat="45.88344" lon="6.42923">
        <ele>1268.3405</ele>
        <time>2013-12-08T08:39:18Z</time>
      </trkpt>
      <trkpt lat="45.88344" lon="6.42923">
        <ele>1268.3405</ele>
        <time>2013-12-08T08:39:24Z</time>
      </trkpt>
      <trkpt lat="45.88344" lon="6.42923">
        <ele>1268.3405</ele>
        <time>2013-12-08T08:39:28Z</time>
      </trkpt>
      <trkpt lat="45.88344" lon="6.42923">
        <ele>1268.3405</ele>
        <time>2013-12-08T08:39:33Z</time>
      </trkpt>
      <trkpt lat="45.88344" lon="6.42923">
        <ele>1268.3405</ele>
        <time>2013-12-08T08:39:38Z</time>
      </trkpt>
      <trkpt lat="45.88344" lon="6.42924">
        <ele>1268.3405</ele>
        <time>2013-12-08T08:39:43Z</time>
      </trkpt>
      <trkpt lat="45.88344" lon="6.42923">
        <ele>1268.3405</ele>
        <time>2013-12-08T08:39:48Z</time>
      </trkpt>
      <trkpt lat="45.88344" lon="6.42924">
        <ele>1268.3405</ele>
        <time>2013-12-08T08:39:53Z</time>
      </trkpt>
      <trkpt lat="45.88343" lon="6.42923">
        <ele>1268.3405</ele>
        <time>2013-12-08T08:39:58Z</time>
      </trkpt>
      <trkpt lat="45.8834" lon="6.42923">
        <ele>1274.307</ele>
        <time>2013-12-08T08:40:03Z</time>
      </trkpt>
      <trkpt lat="45.88339" lon="6.42919">
        <ele>1274.307</ele>
        <time>2013-12-08T08:40:08Z</time>
      </trkpt>
      <trkpt lat="45.88337" lon="6.42917">
        <ele>1274.307</ele>
        <time>2013-12-08T08:40:13Z</time>
      </trkpt>
      <trkpt lat="45.88336" lon="6.42917">
        <ele>1274.307</ele>
        <time>2013-12-08T08:40:19Z</time>
      </trkpt>
      <trkpt lat="45.88336" lon="6.42917">
        <ele>1274.307</ele>
        <time>2013-12-08T08:40:23Z</time>
      </trkpt>
      <trkpt lat="45.88336" lon="6.42917">
        <ele>1274.307</ele>
        <time>2013-12-08T08:40:28Z</time>
      </trkpt>
      <trkpt lat="45.88336" lon="6.42917">
        <ele>1274.307</ele>
        <time>2013-12-08T08:40:34Z</time>
      </trkpt>
      <trkpt lat="45.88336" lon="6.42917">
        <ele>1274.307</ele>
        <time>2013-12-08T08:40:38Z</time>
      </trkpt>
      <trkpt lat="45.88336" lon="6.42917">
        <ele>1274.307</ele>
        <time>2013-12-08T08:40:43Z</time>
      </trkpt>
      <trkpt lat="45.88336" lon="6.42917">
        <ele>1274.307</ele>
        <time>2013-12-08T08:40:49Z</time>
      </trkpt>
      <trkpt lat="45.88336" lon="6.42917">
        <ele>1274.307</ele>
        <time>2013-12-08T08:40:53Z</time>
      </trkpt>
      <trkpt lat="45.88336" lon="6.42917">
        <ele>1274.307</ele>
        <time>2013-12-08T08:40:58Z</time>
      </trkpt>
      <trkpt lat="45.88336" lon="6.42917">
        <ele>1274.307</ele>
        <time>2013-12-08T08:41:04Z</time>
      </trkpt>
      <trkpt lat="45.88336" lon="6.42917">
        <ele>1274.307</ele>
        <time>2013-12-08T08:41:08Z</time>
      </trkpt>
      <trkpt lat="45.88336" lon="6.42917">
        <ele>1274.307</ele>
        <time>2013-12-08T08:41:13Z</time>
      </trkpt>
      <trkpt lat="45.88336" lon="6.42917">
        <ele>1274.307</ele>
        <time>2013-12-08T08:41:19Z</time>
      </trkpt>
      <trkpt lat="45.88336" lon="6.42917">
        <ele>1274.307</ele>
        <time>2013-12-08T08:41:23Z</time>
      </trkpt>
      <trkpt lat="45.88336" lon="6.42917">
        <ele>1274.307</ele>
        <time>2013-12-08T08:41:28Z</time>
      </trkpt>
      <trkpt lat="45.88336" lon="6.42917">
        <ele>1274.307</ele>
        <time>2013-12-08T08:41:34Z</time>
      </trkpt>
      <trkpt lat="45.88336" lon="6.42917">
        <ele>1274.307</ele>
        <time>2013-12-08T08:41:38Z</time>
      </trkpt>
      <trkpt lat="45.88336" lon="6.42917">
        <ele>1274.307</ele>
        <time>2013-12-08T08:41:43Z</time>
      </trkpt>
      <trkpt lat="45.88336" lon="6.42917">
        <ele>1274.307</ele>
        <time>2013-12-08T08:41:49Z</time>
      </trkpt>
      <trkpt lat="45.88336" lon="6.42917">
        <ele>1274.307</ele>
        <time>2013-12-08T08:41:53Z</time>
      </trkpt>
      <trkpt lat="45.88336" lon="6.42917">
        <ele>1274.307</ele>
        <time>2013-12-08T08:41:58Z</time>
      </trkpt>
      <trkpt lat="45.88336" lon="6.42917">
        <ele>1274.307</ele>
        <time>2013-12-08T08:42:04Z</time>
      </trkpt>
      <trkpt lat="45.88336" lon="6.42916">
        <ele>1274.307</ele>
        <time>2013-12-08T08:42:08Z</time>
      </trkpt>
      <trkpt lat="45.88336" lon="6.42916">
        <ele>1274.307</ele>
        <time>2013-12-08T08:42:13Z</time>
      </trkpt>
      <trkpt lat="45.88336" lon="6.42916">
        <ele>1274.307</ele>
        <time>2013-12-08T08:42:19Z</time>
      </trkpt>
      <trkpt lat="45.88335" lon="6.42915">
        <ele>1280.2931</ele>
        <time>2013-12-08T08:42:23Z</time>
      </trkpt>
      <trkpt lat="45.88331" lon="6.42911">
        <ele>1280.2931</ele>
        <time>2013-12-08T08:42:28Z</time>
      </trkpt>
      <trkpt lat="45.88328" lon="6.42905">
        <ele>1286.997</ele>
        <time>2013-12-08T08:42:33Z</time>
      </trkpt>
      <trkpt lat="45.88324" lon="6.429">
        <ele>1286.997</ele>
        <time>2013-12-08T08:42:38Z</time>
      </trkpt>
      <trkpt lat="45.88323" lon="6.42899">
        <ele>1286.997</ele>
        <time>2013-12-08T08:42:43Z</time>
      </trkpt>
      <trkpt lat="45.88323" lon="6.42898">
        <ele>1286.997</ele>
        <time>2013-12-08T08:42:48Z</time>
      </trkpt>
      <trkpt lat="45.88323" lon="6.42897">
        <ele>1286.997</ele>
        <time>2013-12-08T08:42:53Z</time>
      </trkpt>
      <trkpt lat="45.88323" lon="6.42896">
        <ele>1286.997</ele>
        <time>2013-12-08T08:42:58Z</time>
      </trkpt>
      <trkpt lat="45.88323" lon="6.42896">
        <ele>1294.1571</ele>
        <time>2013-12-08T08:43:03Z</time>
      </trkpt>
      <trkpt lat="45.88323" lon="6.42895">
        <ele>1294.1571</ele>
        <time>2013-12-08T08:43:08Z</time>
      </trkpt>
      <trkpt lat="45.88323" lon="6.42895">
        <ele>1294.1571</ele>
        <time>2013-12-08T08:43:13Z</time>
      </trkpt>
      <trkpt lat="45.88323" lon="6.42896">
        <ele>1294.1571</ele>
        <time>2013-12-08T08:43:18Z</time>
      </trkpt>
      <trkpt lat="45.88323" lon="6.42896">
        <ele>1294.1571</ele>
        <time>2013-12-08T08:43:24Z</time>
      </trkpt>
      <trkpt lat="45.88323" lon="6.42896">
        <ele>1294.1571</ele>
        <time>2013-12-08T08:43:28Z</time>
      </trkpt>
      <trkpt lat="45.88323" lon="6.42896">
        <ele>1294.1571</ele>
        <time>2013-12-08T08:43:33Z</time>
      </trkpt>
      <trkpt lat="45.88323" lon="6.42897">
        <ele>1294.1571</ele>
        <time>2013-12-08T08:43:39Z</time>
      </trkpt>
      <trkpt lat="45.88323" lon="6.42897">
        <ele>1294.1571</ele>
        <time>2013-12-08T08:43:43Z</time>
      </trkpt>
      <trkpt lat="45.88323" lon="6.42897">
        <ele>1294.1571</ele>
        <time>2013-12-08T08:43:48Z</time>
      </trkpt>
      <trkpt lat="45.88323" lon="6.42897">
        <ele>1294.1571</ele>
        <time>2013-12-08T08:43:54Z</time>
      </trkpt>
      <trkpt lat="45.88323" lon="6.42897">
        <ele>1294.1571</ele>
        <time>2013-12-08T08:43:58Z</time>
      </trkpt>
      <trkpt lat="45.88323" lon="6.42897">
        <ele>1294.1571</ele>
        <time>2013-12-08T08:44:03Z</time>
      </trkpt>
      <trkpt lat="45.88323" lon="6.42897">
        <ele>1294.1571</ele>
        <time>2013-12-08T08:44:09Z</time>
      </trkpt>
      <trkpt lat="45.88323" lon="6.42897">
        <ele>1294.1571</ele>
        <time>2013-12-08T08:44:13Z</time>
      </trkpt>
      <trkpt lat="45.88321" lon="6.42892">
        <ele>1294.1571</ele>
        <time>2013-12-08T08:44:18Z</time>
      </trkpt>
      <trkpt lat="45.8832" lon="6.4289">
        <ele>1294.1571</ele>
        <time>2013-12-08T08:44:24Z</time>
      </trkpt>
      <trkpt lat="45.8832" lon="6.42889">
        <ele>1294.1571</ele>
        <time>2013-12-08T08:44:28Z</time>
      </trkpt>
      <trkpt lat="45.88319" lon="6.42889">
        <ele>1294.1571</ele>
        <time>2013-12-08T08:44:33Z</time>
      </trkpt>
      <trkpt lat="45.8832" lon="6.42889">
        <ele>1294.1571</ele>
        <time>2013-12-08T08:44:39Z</time>
      </trkpt>
      <trkpt lat="45.8832" lon="6.42889">
        <ele>1301.5437</ele>
        <time>2013-12-08T08:44:43Z</time>
      </trkpt>
      <trkpt lat="45.8832" lon="6.42889">
        <ele>1301.5437</ele>
        <time>2013-12-08T08:44:48Z</time>
      </trkpt>
      <trkpt lat="45.8832" lon="6.42889">
        <ele>1301.5437</ele>
        <time>2013-12-08T08:44:54Z</time>
      </trkpt>
      <trkpt lat="45.8832" lon="6.42889">
        <ele>1301.5437</ele>
        <time>2013-12-08T08:44:58Z</time>
      </trkpt>
      <trkpt lat="45.8832" lon="6.42889">
        <ele>1301.5437</ele>
        <time>2013-12-08T08:45:03Z</time>
      </trkpt>
      <trkpt lat="45.8832" lon="6.42889">
        <ele>1301.5437</ele>
        <time>2013-12-08T08:45:09Z</time>
      </trkpt>
      <trkpt lat="45.88318" lon="6.42888">
        <ele>1301.5437</ele>
        <time>2013-12-08T08:45:13Z</time>
      </trkpt>
      <trkpt lat="45.88315" lon="6.42886">
        <ele>1301.5437</ele>
        <time>2013-12-08T08:45:18Z</time>
      </trkpt>
      <trkpt lat="45.88311" lon="6.42884">
        <ele>1307.9354</ele>
        <time>2013-12-08T08:45:24Z</time>
      </trkpt>
      <trkpt lat="45.88309" lon="6.42883">
        <ele>1307.9354</ele>
        <time>2013-12-08T08:45:28Z</time>
      </trkpt>
      <trkpt lat="45.88306" lon="6.42881">
        <ele>1307.9354</ele>
        <time>2013-12-08T08:45:33Z</time>
      </trkpt>
      <trkpt lat="45.88304" lon="6.4288">
        <ele>1307.9354</ele>
        <time>2013-12-08T08:45:39Z</time>
      </trkpt>
      <trkpt lat="45.88298" lon="6.42876">
        <ele>1313.1777</ele>
        <time>2013-12-08T08:45:43Z</time>
      </trkpt>
      <trkpt lat="45.88296" lon="6.42871">
        <ele>1313.1777</ele>
        <time>2013-12-08T08:45:48Z</time>
      </trkpt>
      <trkpt lat="45.88293" lon="6.42864">
        <ele>1318.4502</ele>
        <time>2013-12-08T08:45:54Z</time>
      </trkpt>
      <trkpt lat="45.8829" lon="6.42857">
        <ele>1318.4502</ele>
        <time>2013-12-08T08:45:58Z</time>
      </trkpt>
      <trkpt lat="45.88287" lon="6.42852">
        <ele>1322.7548</ele>
        <time>2013-12-08T08:46:03Z</time>
      </trkpt>
      <trkpt lat="45.88285" lon="6.42849">
        <ele>1322.7548</ele>
        <time>2013-12-08T08:46:09Z</time>
      </trkpt>
      <trkpt lat="45.88283" lon="6.42849">
        <ele>1322.7548</ele>
        <time>2013-12-08T08:46:13Z</time>
      </trkpt>
      <trkpt lat="45.8828" lon="6.4285">
        <ele>1322.7548</ele>
        <time>2013-12-08T08:46:18Z</time>
      </trkpt>
      <trkpt lat="45.88278" lon="6.4285">
        <ele>1326.8094</ele>
        <time>2013-12-08T08:46:24Z</time>
      </trkpt>
      <trkpt lat="45.88274" lon="6.42852">
        <ele>1326.8094</ele>
        <time>2013-12-08T08:46:28Z</time>
      </trkpt>
      <trkpt lat="45.8827" lon="6.42854">
        <ele>1326.8094</ele>
        <time>2013-12-08T08:46:33Z</time>
      </trkpt>
      <trkpt lat="45.88265" lon="6.42856">
        <ele>1329.7642</ele>
        <time>2013-12-08T08:46:38Z</time>
      </trkpt>
      <trkpt lat="45.88264" lon="6.42857">
        <ele>1329.7642</ele>
        <time>2013-12-08T08:46:43Z</time>
      </trkpt>
      <trkpt lat="45.88263" lon="6.42856">
        <ele>1329.7642</ele>
        <time>2013-12-08T08:46:48Z</time>
      </trkpt>
      <trkpt lat="45.88263" lon="6.42855">
        <ele>1329.7642</ele>
        <time>2013-12-08T08:46:53Z</time>
      </trkpt>
      <trkpt lat="45.8826" lon="6.42855">
        <ele>1329.7642</ele>
        <time>2013-12-08T08:46:58Z</time>
      </trkpt>
      <trkpt lat="45.88259" lon="6.42854">
        <ele>1329.7642</ele>
        <time>2013-12-08T08:47:04Z</time>
      </trkpt>
      <trkpt lat="45.88257" lon="6.42848">
        <ele>1332.7255</ele>
        <time>2013-12-08T08:47:08Z</time>
      </trkpt>
      <trkpt lat="45.88253" lon="6.42844">
        <ele>1332.7255</ele>
        <time>2013-12-08T08:47:13Z</time>
      </trkpt>
      <trkpt lat="45.88252" lon="6.42843">
        <ele>1332.7255</ele>
        <time>2013-12-08T08:47:19Z</time>
      </trkpt>
      <trkpt lat="45.88253" lon="6.42844">
        <ele>1332.7255</ele>
        <time>2013-12-08T08:47:23Z</time>
      </trkpt>
      <trkpt lat="45.88252" lon="6.42843">
        <ele>1335.0378</ele>
        <time>2013-12-08T08:47:28Z</time>
      </trkpt>
      <trkpt lat="45.88252" lon="6.42842">
        <ele>1335.0378</ele>
        <time>2013-12-08T08:47:34Z</time>
      </trkpt>
      <trkpt lat="45.88251" lon="6.42841">
        <ele>1335.0378</ele>
        <time>2013-12-08T08:47:38Z</time>
      </trkpt>
      <trkpt lat="45.88248" lon="6.42839">
        <ele>1335.0378</ele>
        <time>2013-12-08T08:47:43Z</time>
      </trkpt>
      <trkpt lat="45.88246" lon="6.42838">
        <ele>1335.0378</ele>
        <time>2013-12-08T08:47:49Z</time>
      </trkpt>
      <trkpt lat="45.88241" lon="6.42838">
        <ele>1337.4581</ele>
        <time>2013-12-08T08:47:53Z</time>
      </trkpt>
      <trkpt lat="45.88238" lon="6.42837">
        <ele>1337.4581</ele>
        <time>2013-12-08T08:47:58Z</time>
      </trkpt>
      <trkpt lat="45.88237" lon="6.42837">
        <ele>1337.4581</ele>
        <time>2013-12-08T08:48:04Z</time>
      </trkpt>
      <trkpt lat="45.88233" lon="6.42838">
        <ele>1337.4581</ele>
        <time>2013-12-08T08:48:08Z</time>
      </trkpt>
      <trkpt lat="45.88233" lon="6.42836">
        <ele>1339.8049</ele>
        <time>2013-12-08T08:48:13Z</time>
      </trkpt>
      <trkpt lat="45.88232" lon="6.42835">
        <ele>1339.8049</ele>
        <time>2013-12-08T08:48:18Z</time>
      </trkpt>
      <trkpt lat="45.88231" lon="6.42835">
        <ele>1339.8049</ele>
        <time>2013-12-08T08:48:23Z</time>
      </trkpt>
      <trkpt lat="45.8823" lon="6.42834">
        <ele>1339.8049</ele>
        <time>2013-12-08T08:48:28Z</time>
      </trkpt>
      <trkpt lat="45.8823" lon="6.42834">
        <ele>1339.8049</ele>
        <time>2013-12-08T08:48:33Z</time>
      </trkpt>
      <trkpt lat="45.8823" lon="6.42833">
        <ele>1339.8049</ele>
        <time>2013-12-08T08:48:38Z</time>
      </trkpt>
      <trkpt lat="45.88227" lon="6.42831">
        <ele>1339.8049</ele>
        <time>2013-12-08T08:48:43Z</time>
      </trkpt>
      <trkpt lat="45.88224" lon="6.42829">
        <ele>1341.4839</ele>
        <time>2013-12-08T08:48:49Z</time>
      </trkpt>
      <trkpt lat="45.88217" lon="6.42824">
        <ele>1341.4839</ele>
        <time>2013-12-08T08:48:53Z</time>
      </trkpt>
      <trkpt lat="45.88214" lon="6.42818">
        <ele>1343.0165</ele>
        <time>2013-12-08T08:48:58Z</time>
      </trkpt>
      <trkpt lat="45.88213" lon="6.42816">
        <ele>1343.0165</ele>
        <time>2013-12-08T08:49:04Z</time>
      </trkpt>
      <trkpt lat="45.88212" lon="6.42813">
        <ele>1343.0165</ele>
        <time>2013-12-08T08:49:08Z</time>
      </trkpt>
      <trkpt lat="45.88211" lon="6.42811">
        <ele>1343.0165</ele>
        <time>2013-12-08T08:49:13Z</time>
      </trkpt>
      <trkpt lat="45.88211" lon="6.42811">
        <ele>1343.0165</ele>
        <time>2013-12-08T08:49:19Z</time>
      </trkpt>
      <trkpt lat="45.88209" lon="6.42808">
        <ele>1343.0165</ele>
        <time>2013-12-08T08:49:23Z</time>
      </trkpt>
      <trkpt lat="45.88205" lon="6.42808">
        <ele>1344.6165</ele>
        <time>2013-12-08T08:49:28Z</time>
      </trkpt>
      <trkpt lat="45.88203" lon="6.42807">
        <ele>1344.6165</ele>
        <time>2013-12-08T08:49:33Z</time>
      </trkpt>
      <trkpt lat="45.882" lon="6.42806">
        <ele>1344.6165</ele>
        <time>2013-12-08T08:49:38Z</time>
      </trkpt>
      <trkpt lat="45.88199" lon="6.42805">
        <ele>1344.6165</ele>
        <time>2013-12-08T08:49:44Z</time>
      </trkpt>
      <trkpt lat="45.88194" lon="6.42802">
        <ele>1346.2894</ele>
        <time>2013-12-08T08:49:48Z</time>
      </trkpt>
      <trkpt lat="45.88191" lon="6.42801">
        <ele>1346.2894</ele>
        <time>2013-12-08T08:49:53Z</time>
      </trkpt>
      <trkpt lat="45.8819" lon="6.428">
        <ele>1346.2894</ele>
        <time>2013-12-08T08:50:00Z</time>
      </trkpt>
      <trkpt lat="45.88189" lon="6.42799">
        <ele>1346.2894</ele>
        <time>2013-12-08T08:50:03Z</time>
      </trkpt>
      <trkpt lat="45.88187" lon="6.42799">
        <ele>1346.2894</ele>
        <time>2013-12-08T08:50:08Z</time>
      </trkpt>
      <trkpt lat="45.88186" lon="6.42797">
        <ele>1348.0326</ele>
        <time>2013-12-08T08:50:14Z</time>
      </trkpt>
      <trkpt lat="45.88182" lon="6.42795">
        <ele>1348.0326</ele>
        <time>2013-12-08T08:50:18Z</time>
      </trkpt>
      <trkpt lat="45.8818" lon="6.42794">
        <ele>1348.0326</ele>
        <time>2013-12-08T08:50:23Z</time>
      </trkpt>
      <trkpt lat="45.88176" lon="6.42794">
        <ele>1349.3661</ele>
        <time>2013-12-08T08:50:28Z</time>
      </trkpt>
      <trkpt lat="45.88174" lon="6.42793">
        <ele>1349.3661</ele>
        <time>2013-12-08T08:50:33Z</time>
      </trkpt>
      <trkpt lat="45.88173" lon="6.42793">
        <ele>1349.3661</ele>
        <time>2013-12-08T08:50:38Z</time>
      </trkpt>
      <trkpt lat="45.88173" lon="6.42793">
        <ele>1349.3661</ele>
        <time>2013-12-08T08:50:43Z</time>
      </trkpt>
      <trkpt lat="45.88173" lon="6.42793">
        <ele>1349.3661</ele>
        <time>2013-12-08T08:50:49Z</time>
      </trkpt>
      <trkpt lat="45.88173" lon="6.42793">
        <ele>1349.3661</ele>
        <time>2013-12-08T08:50:53Z</time>
      </trkpt>
      <trkpt lat="45.88169" lon="6.42793">
        <ele>1349.3661</ele>
        <time>2013-12-08T08:50:58Z</time>
      </trkpt>
      <trkpt lat="45.88163" lon="6.42794">
        <ele>1350.7673</ele>
        <time>2013-12-08T08:51:04Z</time>
      </trkpt>
      <trkpt lat="45.88158" lon="6.42795">
        <ele>1350.7673</ele>
        <time>2013-12-08T08:51:08Z</time>
      </trkpt>
      <trkpt lat="45.88155" lon="6.428">
        <ele>1351.8517</ele>
        <time>2013-12-08T08:51:13Z</time>
      </trkpt>
      <trkpt lat="45.8815" lon="6.42802">
        <ele>1351.8517</ele>
        <time>2013-12-08T08:51:19Z</time>
      </trkpt>
      <trkpt lat="45.88145" lon="6.42803">
        <ele>1352.7596</ele>
        <time>2013-12-08T08:51:23Z</time>
      </trkpt>
      <trkpt lat="45.88139" lon="6.42806">
        <ele>1352.7596</ele>
        <time>2013-12-08T08:51:28Z</time>
      </trkpt>
      <trkpt lat="45.8814" lon="6.42807">
        <ele>1352.7596</ele>
        <time>2013-12-08T08:51:33Z</time>
      </trkpt>
      <trkpt lat="45.88143" lon="6.42807">
        <ele>1353.3385</ele>
        <time>2013-12-08T08:51:38Z</time>
      </trkpt>
      <trkpt lat="45.88141" lon="6.42809">
        <ele>1353.3385</ele>
        <time>2013-12-08T08:51:43Z</time>
      </trkpt>
      <trkpt lat="45.8814" lon="6.4281">
        <ele>1353.3385</ele>
        <time>2013-12-08T08:51:49Z</time>
      </trkpt>
      <trkpt lat="45.88135" lon="6.42813">
        <ele>1353.3385</ele>
        <time>2013-12-08T08:51:53Z</time>
      </trkpt>
      <trkpt lat="45.88134" lon="6.42816">
        <ele>1354.8887</ele>
        <time>2013-12-08T08:51:58Z</time>
      </trkpt>
      <trkpt lat="45.88132" lon="6.42818">
        <ele>1354.8887</ele>
        <time>2013-12-08T08:52:04Z</time>
      </trkpt>
      <trkpt lat="45.88128" lon="6.4282">
        <ele>1354.8887</ele>
        <time>2013-12-08T08:52:08Z</time>
      </trkpt>
      <trkpt lat="45.88127" lon="6.4282">
        <ele>1354.8887</ele>
        <time>2013-12-08T08:52:13Z</time>
      </trkpt>
      <trkpt lat="45.88127" lon="6.4282">
        <ele>1354.8887</ele>
        <time>2013-12-08T08:52:19Z</time>
      </trkpt>
      <trkpt lat="45.88127" lon="6.4282">
        <ele>1354.8887</ele>
        <time>2013-12-08T08:52:23Z</time>
      </trkpt>
      <trkpt lat="45.88127" lon="6.4282">
        <ele>1354.8887</ele>
        <time>2013-12-08T08:52:28Z</time>
      </trkpt>
      <trkpt lat="45.88127" lon="6.42821">
        <ele>1356.5942</ele>
        <time>2013-12-08T08:52:33Z</time>
      </trkpt>
      <trkpt lat="45.88122" lon="6.42826">
        <ele>1356.5942</ele>
        <time>2013-12-08T08:52:38Z</time>
      </trkpt>
      <trkpt lat="45.88117" lon="6.42829">
        <ele>1358.5364</ele>
        <time>2013-12-08T08:52:43Z</time>
      </trkpt>
      <trkpt lat="45.88114" lon="6.42832">
        <ele>1358.5364</ele>
        <time>2013-12-08T08:52:48Z</time>
      </trkpt>
      <trkpt lat="45.88111" lon="6.42836">
        <ele>1358.5364</ele>
        <time>2013-12-08T08:52:53Z</time>
      </trkpt>
      <trkpt lat="45.88116" lon="6.42841">
        <ele>1360.7335</ele>
        <time>2013-12-08T08:52:58Z</time>
      </trkpt>
      <trkpt lat="45.88116" lon="6.42841">
        <ele>1360.7335</ele>
        <time>2013-12-08T08:53:04Z</time>
      </trkpt>
      <trkpt lat="45.88113" lon="6.4284">
        <ele>1360.7335</ele>
        <time>2013-12-08T08:53:08Z</time>
      </trkpt>
      <trkpt lat="45.88113" lon="6.42841">
        <ele>1360.7335</ele>
        <time>2013-12-08T08:53:13Z</time>
      </trkpt>
      <trkpt lat="45.88113" lon="6.42841">
        <ele>1360.7335</ele>
        <time>2013-12-08T08:53:19Z</time>
      </trkpt>
      <trkpt lat="45.88107" lon="6.42844">
        <ele>1362.9677</ele>
        <time>2013-12-08T08:53:23Z</time>
      </trkpt>
      <trkpt lat="45.88102" lon="6.42845">
        <ele>1362.9677</ele>
        <time>2013-12-08T08:53:28Z</time>
      </trkpt>
      <trkpt lat="45.88102" lon="6.42846">
        <ele>1362.9677</ele>
        <time>2013-12-08T08:53:34Z</time>
      </trkpt>
      <trkpt lat="45.88102" lon="6.42852">
        <ele>1364.651</ele>
        <time>2013-12-08T08:53:38Z</time>
      </trkpt>
      <trkpt lat="45.88097" lon="6.42855">
        <ele>1364.651</ele>
        <time>2013-12-08T08:53:43Z</time>
      </trkpt>
      <trkpt lat="45.88096" lon="6.42858">
        <ele>1364.651</ele>
        <time>2013-12-08T08:53:50Z</time>
      </trkpt>
      <trkpt lat="45.88092" lon="6.42859">
        <ele>1366.5443</ele>
        <time>2013-12-08T08:53:53Z</time>
      </trkpt>
      <trkpt lat="45.88091" lon="6.42858">
        <ele>1366.5443</ele>
        <time>2013-12-08T08:53:58Z</time>
      </trkpt>
      <trkpt lat="45.88091" lon="6.42859">
        <ele>1366.5443</ele>
        <time>2013-12-08T08:54:03Z</time>
      </trkpt>
      <trkpt lat="45.88091" lon="6.42858">
        <ele>1366.5443</ele>
        <time>2013-12-08T08:54:08Z</time>
      </trkpt>
      <trkpt lat="45.8809" lon="6.42858">
        <ele>1366.5443</ele>
        <time>2013-12-08T08:54:13Z</time>
      </trkpt>
      <trkpt lat="45.88089" lon="6.42857">
        <ele>1366.5443</ele>
        <time>2013-12-08T08:54:19Z</time>
      </trkpt>
      <trkpt lat="45.88089" lon="6.42854">
        <ele>1366.5443</ele>
        <time>2013-12-08T08:54:23Z</time>
      </trkpt>
      <trkpt lat="45.88087" lon="6.42853">
        <ele>1366.5443</ele>
        <time>2013-12-08T08:54:28Z</time>
      </trkpt>
      <trkpt lat="45.88084" lon="6.42849">
        <ele>1368.6606</ele>
        <time>2013-12-08T08:54:33Z</time>
      </trkpt>
      <trkpt lat="45.88079" lon="6.42845">
        <ele>1368.6606</ele>
        <time>2013-12-08T08:54:39Z</time>
      </trkpt>
      <trkpt lat="45.88077" lon="6.42844">
        <ele>1368.6606</ele>
        <time>2013-12-08T08:54:43Z</time>
      </trkpt>
      <trkpt lat="45.88075" lon="6.42843">
        <ele>1370.4696</ele>
        <time>2013-12-08T08:54:48Z</time>
      </trkpt>
      <trkpt lat="45.8807" lon="6.42842">
        <ele>1370.4696</ele>
        <time>2013-12-08T08:54:53Z</time>
      </trkpt>
      <trkpt lat="45.88065" lon="6.42843">
        <ele>1372.0763</ele>
        <time>2013-12-08T08:54:58Z</time>
      </trkpt>
      <trkpt lat="45.88063" lon="6.42842">
        <ele>1372.0763</ele>
        <time>2013-12-08T08:55:04Z</time>
      </trkpt>
      <trkpt lat="45.88062" lon="6.42845">
        <ele>1372.0763</ele>
        <time>2013-12-08T08:55:08Z</time>
      </trkpt>
      <trkpt lat="45.88061" lon="6.42846">
        <ele>1372.0763</ele>
        <time>2013-12-08T08:55:13Z</time>
      </trkpt>
      <trkpt lat="45.88059" lon="6.42844">
        <ele>1372.0763</ele>
        <time>2013-12-08T08:55:19Z</time>
      </trkpt>
      <trkpt lat="45.88058" lon="6.42843">
        <ele>1374.0037</ele>
        <time>2013-12-08T08:55:23Z</time>
      </trkpt>
      <trkpt lat="45.88056" lon="6.42841">
        <ele>1374.0037</ele>
        <time>2013-12-08T08:55:28Z</time>
      </trkpt>
      <trkpt lat="45.88053" lon="6.42838">
        <ele>1374.0037</ele>
        <time>2013-12-08T08:55:33Z</time>
      </trkpt>
      <trkpt lat="45.8805" lon="6.42835">
        <ele>1375.1733</ele>
        <time>2013-12-08T08:55:39Z</time>
      </trkpt>
      <trkpt lat="45.8805" lon="6.42832">
        <ele>1375.1733</ele>
        <time>2013-12-08T08:55:43Z</time>
      </trkpt>
      <trkpt lat="45.88049" lon="6.42833">
        <ele>1375.1733</ele>
        <time>2013-12-08T08:55:48Z</time>
      </trkpt>
      <trkpt lat="45.88048" lon="6.42833">
        <ele>1375.1733</ele>
        <time>2013-12-08T08:55:54Z</time>
      </trkpt>
      <trkpt lat="45.88048" lon="6.42834">
        <ele>1375.1733</ele>
        <time>2013-12-08T08:55:58Z</time>
      </trkpt>
      <trkpt lat="45.88048" lon="6.42834">
        <ele>1375.1733</ele>
        <time>2013-12-08T08:56:03Z</time>
      </trkpt>
      <trkpt lat="45.88048" lon="6.42833">
        <ele>1375.1733</ele>
        <time>2013-12-08T08:56:10Z</time>
      </trkpt>
      <trkpt lat="45.88047" lon="6.42829">
        <ele>1375.1733</ele>
        <time>2013-12-08T08:56:13Z</time>
      </trkpt>
      <trkpt lat="45.88044" lon="6.42829">
        <ele>1377.1624</ele>
        <time>2013-12-08T08:56:18Z</time>
      </trkpt>
      <trkpt lat="45.88043" lon="6.42829">
        <ele>1377.1624</ele>
        <time>2013-12-08T08:56:24Z</time>
      </trkpt>
      <trkpt lat="45.88043" lon="6.42829">
        <ele>1377.1624</ele>
        <time>2013-12-08T08:56:28Z</time>
      </trkpt>
      <trkpt lat="45.88043" lon="6.42829">
        <ele>1377.1624</ele>
        <time>2013-12-08T08:56:33Z</time>
      </trkpt>
      <trkpt lat="45.88043" lon="6.42829">
        <ele>1377.1624</ele>
        <time>2013-12-08T08:56:38Z</time>
      </trkpt>
      <trkpt lat="45.88041" lon="6.42826">
        <ele>1377.1624</ele>
        <time>2013-12-08T08:56:43Z</time>
      </trkpt>
      <trkpt lat="45.8804" lon="6.42823">
        <ele>1377.1624</ele>
        <time>2013-12-08T08:56:48Z</time>
      </trkpt>
      <trkpt lat="45.88038" lon="6.42822">
        <ele>1377.1624</ele>
        <time>2013-12-08T08:56:53Z</time>
      </trkpt>
      <trkpt lat="45.88034" lon="6.4282">
        <ele>1379.2686</ele>
        <time>2013-12-08T08:56:58Z</time>
      </trkpt>
      <trkpt lat="45.88032" lon="6.4282">
        <ele>1379.2686</ele>
        <time>2013-12-08T08:57:03Z</time>
      </trkpt>
      <trkpt lat="45.88032" lon="6.42819">
        <ele>1379.2686</ele>
        <time>2013-12-08T08:57:08Z</time>
      </trkpt>
      <trkpt lat="45.88032" lon="6.42819">
        <ele>1379.2686</ele>
        <time>2013-12-08T08:57:13Z</time>
      </trkpt>
      <trkpt lat="45.88031" lon="6.42818">
        <ele>1379.2686</ele>
        <time>2013-12-08T08:57:18Z</time>
      </trkpt>
      <trkpt lat="45.88029" lon="6.42816">
        <ele>1379.2686</ele>
        <time>2013-12-08T08:57:23Z</time>
      </trkpt>
      <trkpt lat="45.88027" lon="6.42813">
        <ele>1381.4904</ele>
        <time>2013-12-08T08:57:28Z</time>
      </trkpt>
      <trkpt lat="45.88023" lon="6.4281">
        <ele>1381.4904</ele>
        <time>2013-12-08T08:57:33Z</time>
      </trkpt>
      <trkpt lat="45.88021" lon="6.42809">
        <ele>1381.4904</ele>
        <time>2013-12-08T08:57:38Z</time>
      </trkpt>
      <trkpt lat="45.88016" lon="6.4281">
        <ele>1383.1844</ele>
        <time>2013-12-08T08:57:43Z</time>
      </trkpt>
      <trkpt lat="45.88013" lon="6.42811">
        <ele>1383.1844</ele>
        <time>2013-12-08T08:57:49Z</time>
      </trkpt>
      <trkpt lat="45.88013" lon="6.42809">
        <ele>1383.1844</ele>
        <time>2013-12-08T08:57:53Z</time>
      </trkpt>
      <trkpt lat="45.88013" lon="6.42809">
        <ele>1383.1844</ele>
        <time>2013-12-08T08:57:58Z</time>
      </trkpt>
      <trkpt lat="45.88012" lon="6.42809">
        <ele>1383.1844</ele>
        <time>2013-12-08T08:58:04Z</time>
      </trkpt>
      <trkpt lat="45.88012" lon="6.42809">
        <ele>1383.1844</ele>
        <time>2013-12-08T08:58:08Z</time>
      </trkpt>
      <trkpt lat="45.88012" lon="6.4281">
        <ele>1383.1844</ele>
        <time>2013-12-08T08:58:13Z</time>
      </trkpt>
      <trkpt lat="45.88009" lon="6.42812">
        <ele>1383.1844</ele>
        <time>2013-12-08T08:58:18Z</time>
      </trkpt>
      <trkpt lat="45.88005" lon="6.42817">
        <ele>1384.5208</ele>
        <time>2013-12-08T08:58:23Z</time>
      </trkpt>
      <trkpt lat="45.88006" lon="6.4282">
        <ele>1384.5208</ele>
        <time>2013-12-08T08:58:28Z</time>
      </trkpt>
      <trkpt lat="45.88006" lon="6.42821">
        <ele>1384.5208</ele>
        <time>2013-12-08T08:58:33Z</time>
      </trkpt>
      <trkpt lat="45.88004" lon="6.42821">
        <ele>1384.5208</ele>
        <time>2013-12-08T08:58:39Z</time>
      </trkpt>
      <trkpt lat="45.88004" lon="6.42822">
        <ele>1384.5208</ele>
        <time>2013-12-08T08:58:43Z</time>
      </trkpt>
      <trkpt lat="45.88003" lon="6.42822">
        <ele>1384.5208</ele>
        <time>2013-12-08T08:58:48Z</time>
      </trkpt>
      <trkpt lat="45.87996" lon="6.42825">
        <ele>1385.5436</ele>
        <time>2013-12-08T08:58:53Z</time>
      </trkpt>
      <trkpt lat="45.87994" lon="6.42827">
        <ele>1385.5436</ele>
        <time>2013-12-08T08:58:59Z</time>
      </trkpt>
      <trkpt lat="45.87992" lon="6.42827">
        <ele>1385.5436</ele>
        <time>2013-12-08T08:59:03Z</time>
      </trkpt>
      <trkpt lat="45.87991" lon="6.42828">
        <ele>1385.5436</ele>
        <time>2013-12-08T08:59:08Z</time>
      </trkpt>
      <trkpt lat="45.87989" lon="6.42831">
        <ele>1385.5436</ele>
        <time>2013-12-08T08:59:13Z</time>
      </trkpt>
      <trkpt lat="45.87983" lon="6.42835">
        <ele>1387.2609</ele>
        <time>2013-12-08T08:59:18Z</time>
      </trkpt>
      <trkpt lat="45.87976" lon="6.42838">
        <ele>1387.2609</ele>
        <time>2013-12-08T08:59:23Z</time>
      </trkpt>
      <trkpt lat="45.87973" lon="6.42842">
        <ele>1388.6372</ele>
        <time>2013-12-08T08:59:28Z</time>
      </trkpt>
      <trkpt lat="45.87968" lon="6.42844">
        <ele>1388.6372</ele>
        <time>2013-12-08T08:59:33Z</time>
      </trkpt>
      <trkpt lat="45.87967" lon="6.42844">
        <ele>1388.6372</ele>
        <time>2013-12-08T08:59:38Z</time>
      </trkpt>
      <trkpt lat="45.87967" lon="6.42844">
        <ele>1388.6372</ele>
        <time>2013-12-08T08:59:43Z</time>
      </trkpt>
      <trkpt lat="45.87966" lon="6.42844">
        <ele>1388.6372</ele>
        <time>2013-12-08T08:59:48Z</time>
      </trkpt>
      <trkpt lat="45.87966" lon="6.42844">
        <ele>1388.6372</ele>
        <time>2013-12-08T08:59:54Z</time>
      </trkpt>
      <trkpt lat="45.87966" lon="6.42844">
        <ele>1388.6372</ele>
        <time>2013-12-08T08:59:58Z</time>
      </trkpt>
      <trkpt lat="45.87964" lon="6.42846">
        <ele>1390.3606</ele>
        <time>2013-12-08T09:00:03Z</time>
      </trkpt>
      <trkpt lat="45.87962" lon="6.42848">
        <ele>1390.3606</ele>
        <time>2013-12-08T09:00:08Z</time>
      </trkpt>
      <trkpt lat="45.87956" lon="6.42849">
        <ele>1390.3606</ele>
        <time>2013-12-08T09:00:13Z</time>
      </trkpt>
      <trkpt lat="45.8795" lon="6.4285">
        <ele>1392.3835</ele>
        <time>2013-12-08T09:00:18Z</time>
      </trkpt>
      <trkpt lat="45.87946" lon="6.4285">
        <ele>1392.3835</ele>
        <time>2013-12-08T09:00:24Z</time>
      </trkpt>
      <trkpt lat="45.87941" lon="6.42848">
        <ele>1392.3835</ele>
        <time>2013-12-08T09:00:28Z</time>
      </trkpt>
      <trkpt lat="45.87937" lon="6.42846">
        <ele>1394.4788</ele>
        <time>2013-12-08T09:00:33Z</time>
      </trkpt>
      <trkpt lat="45.87934" lon="6.42844">
        <ele>1394.4788</ele>
        <time>2013-12-08T09:00:38Z</time>
      </trkpt>
      <trkpt lat="45.87934" lon="6.42842">
        <ele>1394.4788</ele>
        <time>2013-12-08T09:00:43Z</time>
      </trkpt>
      <trkpt lat="45.87933" lon="6.42842">
        <ele>1394.4788</ele>
        <time>2013-12-08T09:00:48Z</time>
      </trkpt>
      <trkpt lat="45.87933" lon="6.42842">
        <ele>1394.4788</ele>
        <time>2013-12-08T09:00:53Z</time>
      </trkpt>
      <trkpt lat="45.87933" lon="6.42842">
        <ele>1394.4788</ele>
        <time>2013-12-08T09:00:58Z</time>
      </trkpt>
      <trkpt lat="45.87933" lon="6.42842">
        <ele>1394.4788</ele>
        <time>2013-12-08T09:01:03Z</time>
      </trkpt>
      <trkpt lat="45.87929" lon="6.42844">
        <ele>1394.4788</ele>
        <time>2013-12-08T09:01:09Z</time>
      </trkpt>
      <trkpt lat="45.87926" lon="6.42846">
        <ele>1396.5691</ele>
        <time>2013-12-08T09:01:13Z</time>
      </trkpt>
      <trkpt lat="45.87926" lon="6.42846">
        <ele>1396.5691</ele>
        <time>2013-12-08T09:01:18Z</time>
      </trkpt>
      <trkpt lat="45.87925" lon="6.42846">
        <ele>1396.5691</ele>
        <time>2013-12-08T09:01:24Z</time>
      </trkpt>
      <trkpt lat="45.87923" lon="6.42846">
        <ele>1396.5691</ele>
        <time>2013-12-08T09:01:28Z</time>
      </trkpt>
      <trkpt lat="45.87918" lon="6.42847">
        <ele>1396.5691</ele>
        <time>2013-12-08T09:01:33Z</time>
      </trkpt>
      <trkpt lat="45.87911" lon="6.4285">
        <ele>1399.0657</ele>
        <time>2013-12-08T09:01:38Z</time>
      </trkpt>
      <trkpt lat="45.87905" lon="6.42851">
        <ele>1399.0657</ele>
        <time>2013-12-08T09:01:44Z</time>
      </trkpt>
      <trkpt lat="45.87903" lon="6.42851">
        <ele>1399.0657</ele>
        <time>2013-12-08T09:01:48Z</time>
      </trkpt>
      <trkpt lat="45.87899" lon="6.4285">
        <ele>1401.305</ele>
        <time>2013-12-08T09:01:53Z</time>
      </trkpt>
      <trkpt lat="45.87894" lon="6.42849">
        <ele>1401.305</ele>
        <time>2013-12-08T09:01:58Z</time>
      </trkpt>
      <trkpt lat="45.87889" lon="6.42848">
        <ele>1403.3998</ele>
        <time>2013-12-08T09:02:03Z</time>
      </trkpt>
      <trkpt lat="45.87886" lon="6.42846">
        <ele>1403.3998</ele>
        <time>2013-12-08T09:02:08Z</time>
      </trkpt>
      <trkpt lat="45.87884" lon="6.42846">
        <ele>1403.3998</ele>
        <time>2013-12-08T09:02:13Z</time>
      </trkpt>
      <trkpt lat="45.87882" lon="6.42848">
        <ele>1403.3998</ele>
        <time>2013-12-08T09:02:18Z</time>
      </trkpt>
      <trkpt lat="45.8788" lon="6.42849">
        <ele>1405.786</ele>
        <time>2013-12-08T09:02:23Z</time>
      </trkpt>
      <trkpt lat="45.87876" lon="6.42848">
        <ele>1405.786</ele>
        <time>2013-12-08T09:02:28Z</time>
      </trkpt>
      <trkpt lat="45.87873" lon="6.42847">
        <ele>1405.786</ele>
        <time>2013-12-08T09:02:33Z</time>
      </trkpt>
      <trkpt lat="45.87872" lon="6.42847">
        <ele>1405.786</ele>
        <time>2013-12-08T09:02:38Z</time>
      </trkpt>
      <trkpt lat="45.8787" lon="6.42848">
        <ele>1408.0199</ele>
        <time>2013-12-08T09:02:43Z</time>
      </trkpt>
      <trkpt lat="45.87868" lon="6.42849">
        <ele>1408.0199</ele>
        <time>2013-12-08T09:02:49Z</time>
      </trkpt>
      <trkpt lat="45.87866" lon="6.42851">
        <ele>1408.0199</ele>
        <time>2013-12-08T09:02:53Z</time>
      </trkpt>
      <trkpt lat="45.87866" lon="6.4285">
        <ele>1408.0199</ele>
        <time>2013-12-08T09:02:58Z</time>
      </trkpt>
      <trkpt lat="45.87865" lon="6.4285">
        <ele>1408.0199</ele>
        <time>2013-12-08T09:03:04Z</time>
      </trkpt>
      <trkpt lat="45.87865" lon="6.4285">
        <ele>1408.0199</ele>
        <time>2013-12-08T09:03:08Z</time>
      </trkpt>
      <trkpt lat="45.87865" lon="6.4285">
        <ele>1408.0199</ele>
        <time>2013-12-08T09:03:13Z</time>
      </trkpt>
      <trkpt lat="45.87864" lon="6.4285">
        <ele>1408.0199</ele>
        <time>2013-12-08T09:03:19Z</time>
      </trkpt>
      <trkpt lat="45.87857" lon="6.42849">
        <ele>1409.8293</ele>
        <time>2013-12-08T09:03:23Z</time>
      </trkpt>
      <trkpt lat="45.8785" lon="6.42847">
        <ele>1409.8293</ele>
        <time>2013-12-08T09:03:28Z</time>
      </trkpt>
      <trkpt lat="45.87845" lon="6.42846">
        <ele>1411.8977</ele>
        <time>2013-12-08T09:03:33Z</time>
      </trkpt>
      <trkpt lat="45.87842" lon="6.42844">
        <ele>1411.8977</ele>
        <time>2013-12-08T09:03:38Z</time>
      </trkpt>
      <trkpt lat="45.87837" lon="6.42839">
        <ele>1413.951</ele>
        <time>2013-12-08T09:03:43Z</time>
      </trkpt>
      <trkpt lat="45.87835" lon="6.42837">
        <ele>1413.951</ele>
        <time>2013-12-08T09:03:48Z</time>
      </trkpt>
      <trkpt lat="45.87832" lon="6.42834">
        <ele>1413.951</ele>
        <time>2013-12-08T09:03:53Z</time>
      </trkpt>
      <trkpt lat="45.87829" lon="6.42831">
        <ele>1416.1273</ele>
        <time>2013-12-08T09:03:58Z</time>
      </trkpt>
      <trkpt lat="45.87826" lon="6.4283">
        <ele>1416.1273</ele>
        <time>2013-12-08T09:04:03Z</time>
      </trkpt>
      <trkpt lat="45.87825" lon="6.42829">
        <ele>1416.1273</ele>
        <time>2013-12-08T09:04:08Z</time>
      </trkpt>
      <trkpt lat="45.87825" lon="6.42828">
        <ele>1416.1273</ele>
        <time>2013-12-08T09:04:13Z</time>
      </trkpt>
      <trkpt lat="45.87825" lon="6.42828">
        <ele>1416.1273</ele>
        <time>2013-12-08T09:04:18Z</time>
      </trkpt>
      <trkpt lat="45.87824" lon="6.42827">
        <ele>1416.1273</ele>
        <time>2013-12-08T09:04:23Z</time>
      </trkpt>
      <trkpt lat="45.87824" lon="6.42827">
        <ele>1416.1273</ele>
        <time>2013-12-08T09:04:28Z</time>
      </trkpt>
      <trkpt lat="45.87824" lon="6.42827">
        <ele>1416.1273</ele>
        <time>2013-12-08T09:04:33Z</time>
      </trkpt>
      <trkpt lat="45.87824" lon="6.42828">
        <ele>1416.1273</ele>
        <time>2013-12-08T09:04:38Z</time>
      </trkpt>
      <trkpt lat="45.87821" lon="6.42828">
        <ele>1416.1273</ele>
        <time>2013-12-08T09:04:43Z</time>
      </trkpt>
      <trkpt lat="45.87817" lon="6.42827">
        <ele>1418.2985</ele>
        <time>2013-12-08T09:04:48Z</time>
      </trkpt>
      <trkpt lat="45.87814" lon="6.42825">
        <ele>1418.2985</ele>
        <time>2013-12-08T09:04:53Z</time>
      </trkpt>
      <trkpt lat="45.87813" lon="6.42825">
        <ele>1418.2985</ele>
        <time>2013-12-08T09:04:58Z</time>
      </trkpt>
      <trkpt lat="45.87813" lon="6.42825">
        <ele>1418.2985</ele>
        <time>2013-12-08T09:05:03Z</time>
      </trkpt>
      <trkpt lat="45.87812" lon="6.42825">
        <ele>1418.2985</ele>
        <time>2013-12-08T09:05:08Z</time>
      </trkpt>
      <trkpt lat="45.87811" lon="6.42824">
        <ele>1418.2985</ele>
        <time>2013-12-08T09:05:13Z</time>
      </trkpt>
      <trkpt lat="45.87807" lon="6.42822">
        <ele>1421.3002</ele>
        <time>2013-12-08T09:05:18Z</time>
      </trkpt>
      <trkpt lat="45.87804" lon="6.42822">
        <ele>1421.3002</ele>
        <time>2013-12-08T09:05:23Z</time>
      </trkpt>
      <trkpt lat="45.878" lon="6.4282">
        <ele>1421.3002</ele>
        <time>2013-12-08T09:05:28Z</time>
      </trkpt>
      <trkpt lat="45.87798" lon="6.42819">
        <ele>1424.3208</ele>
        <time>2013-12-08T09:05:33Z</time>
      </trkpt>
      <trkpt lat="45.87797" lon="6.42818">
        <ele>1424.3208</ele>
        <time>2013-12-08T09:05:38Z</time>
      </trkpt>
      <trkpt lat="45.87796" lon="6.42818">
        <ele>1424.3208</ele>
        <time>2013-12-08T09:05:43Z</time>
      </trkpt>
      <trkpt lat="45.87795" lon="6.42817">
        <ele>1424.3208</ele>
        <time>2013-12-08T09:05:48Z</time>
      </trkpt>
      <trkpt lat="45.87792" lon="6.42814">
        <ele>1424.3208</ele>
        <time>2013-12-08T09:05:53Z</time>
      </trkpt>
      <trkpt lat="45.87791" lon="6.42813">
        <ele>1424.3208</ele>
        <time>2013-12-08T09:05:58Z</time>
      </trkpt>
      <trkpt lat="45.87791" lon="6.42812">
        <ele>1427.1205</ele>
        <time>2013-12-08T09:06:03Z</time>
      </trkpt>
      <trkpt lat="45.87791" lon="6.42812">
        <ele>1427.1205</ele>
        <time>2013-12-08T09:06:08Z</time>
      </trkpt>
      <trkpt lat="45.8779" lon="6.42811">
        <ele>1427.1205</ele>
        <time>2013-12-08T09:06:13Z</time>
      </trkpt>
      <trkpt lat="45.8779" lon="6.42811">
        <ele>1427.1205</ele>
        <time>2013-12-08T09:06:18Z</time>
      </trkpt>
      <trkpt lat="45.8779" lon="6.4281">
        <ele>1427.1205</ele>
        <time>2013-12-08T09:06:23Z</time>
      </trkpt>
      <trkpt lat="45.87788" lon="6.4281">
        <ele>1427.1205</ele>
        <time>2013-12-08T09:06:28Z</time>
      </trkpt>
      <trkpt lat="45.87786" lon="6.42809">
        <ele>1427.1205</ele>
        <time>2013-12-08T09:06:33Z</time>
      </trkpt>
      <trkpt lat="45.87784" lon="6.42808">
        <ele>1427.1205</ele>
        <time>2013-12-08T09:06:38Z</time>
      </trkpt>
      <trkpt lat="45.87784" lon="6.42808">
        <ele>1427.1205</ele>
        <time>2013-12-08T09:06:43Z</time>
      </trkpt>
      <trkpt lat="45.87784" lon="6.42808">
        <ele>1427.1205</ele>
        <time>2013-12-08T09:06:48Z</time>
      </trkpt>
      <trkpt lat="45.87784" lon="6.42805">
        <ele>1429.5836</ele>
        <time>2013-12-08T09:06:53Z</time>
      </trkpt>
      <trkpt lat="45.87781" lon="6.42801">
        <ele>1429.5836</ele>
        <time>2013-12-08T09:06:58Z</time>
      </trkpt>
      <trkpt lat="45.87778" lon="6.42797">
        <ele>1429.5836</ele>
        <time>2013-12-08T09:07:03Z</time>
      </trkpt>
      <trkpt lat="45.87772" lon="6.42796">
        <ele>1432.5493</ele>
        <time>2013-12-08T09:07:08Z</time>
      </trkpt>
      <trkpt lat="45.8777" lon="6.42796">
        <ele>1432.5493</ele>
        <time>2013-12-08T09:07:13Z</time>
      </trkpt>
      <trkpt lat="45.8777" lon="6.42795">
        <ele>1432.5493</ele>
        <time>2013-12-08T09:07:18Z</time>
      </trkpt>
      <trkpt lat="45.8777" lon="6.42795">
        <ele>1432.5493</ele>
        <time>2013-12-08T09:07:23Z</time>
      </trkpt>
      <trkpt lat="45.87768" lon="6.42795">
        <ele>1432.5493</ele>
        <time>2013-12-08T09:07:28Z</time>
      </trkpt>
      <trkpt lat="45.87765" lon="6.42792">
        <ele>1432.5493</ele>
        <time>2013-12-08T09:07:33Z</time>
      </trkpt>
      <trkpt lat="45.87762" lon="6.4279">
        <ele>1435.5195</ele>
        <time>2013-12-08T09:07:39Z</time>
      </trkpt>
      <trkpt lat="45.87756" lon="6.42791">
        <ele>1435.5195</ele>
        <time>2013-12-08T09:07:43Z</time>
      </trkpt>
      <trkpt lat="45.87754" lon="6.42792">
        <ele>1435.5195</ele>
        <time>2013-12-08T09:07:48Z</time>
      </trkpt>
      <trkpt lat="45.87755" lon="6.42791">
        <ele>1438.0381</ele>
        <time>2013-12-08T09:07:54Z</time>
      </trkpt>
      <trkpt lat="45.87755" lon="6.42791">
        <ele>1438.0381</ele>
        <time>2013-12-08T09:07:58Z</time>
      </trkpt>
      <trkpt lat="45.87755" lon="6.42791">
        <ele>1438.0381</ele>
        <time>2013-12-08T09:08:03Z</time>
      </trkpt>
      <trkpt lat="45.87755" lon="6.42791">
        <ele>1438.0381</ele>
        <time>2013-12-08T09:08:09Z</time>
      </trkpt>
      <trkpt lat="45.87755" lon="6.42791">
        <ele>1438.0381</ele>
        <time>2013-12-08T09:08:13Z</time>
      </trkpt>
      <trkpt lat="45.87754" lon="6.42791">
        <ele>1438.0381</ele>
        <time>2013-12-08T09:08:18Z</time>
      </trkpt>
      <trkpt lat="45.87754" lon="6.42791">
        <ele>1438.0381</ele>
        <time>2013-12-08T09:08:24Z</time>
      </trkpt>
      <trkpt lat="45.87754" lon="6.42791">
        <ele>1438.0381</ele>
        <time>2013-12-08T09:08:28Z</time>
      </trkpt>
      <trkpt lat="45.87754" lon="6.42791">
        <ele>1438.0381</ele>
        <time>2013-12-08T09:08:33Z</time>
      </trkpt>
      <trkpt lat="45.87754" lon="6.42791">
        <ele>1438.0381</ele>
        <time>2013-12-08T09:08:39Z</time>
      </trkpt>
      <trkpt lat="45.87754" lon="6.42791">
        <ele>1438.0381</ele>
        <time>2013-12-08T09:08:43Z</time>
      </trkpt>
      <trkpt lat="45.87754" lon="6.42791">
        <ele>1438.0381</ele>
        <time>2013-12-08T09:08:48Z</time>
      </trkpt>
      <trkpt lat="45.87754" lon="6.42791">
        <ele>1438.0381</ele>
        <time>2013-12-08T09:08:54Z</time>
      </trkpt>
      <trkpt lat="45.87754" lon="6.42791">
        <ele>1438.0381</ele>
        <time>2013-12-08T09:08:58Z</time>
      </trkpt>
      <trkpt lat="45.87751" lon="6.42788">
        <ele>1438.0381</ele>
        <time>2013-12-08T09:09:03Z</time>
      </trkpt>
      <trkpt lat="45.87749" lon="6.42785">
        <ele>1438.0381</ele>
        <time>2013-12-08T09:09:08Z</time>
      </trkpt>
      <trkpt lat="45.87749" lon="6.42785">
        <ele>1440.859</ele>
        <time>2013-12-08T09:09:13Z</time>
      </trkpt>
      <trkpt lat="45.87749" lon="6.42785">
        <ele>1440.859</ele>
        <time>2013-12-08T09:09:18Z</time>
      </trkpt>
      <trkpt lat="45.87749" lon="6.42785">
        <ele>1440.859</ele>
        <time>2013-12-08T09:09:23Z</time>
      </trkpt>
      <trkpt lat="45.87749" lon="6.42785">
        <ele>1440.859</ele>
        <time>2013-12-08T09:09:28Z</time>
      </trkpt>
      <trkpt lat="45.87749" lon="6.42785">
        <ele>1440.859</ele>
        <time>2013-12-08T09:09:33Z</time>
      </trkpt>
      <trkpt lat="45.87749" lon="6.42785">
        <ele>1440.859</ele>
        <time>2013-12-08T09:09:39Z</time>
      </trkpt>
      <trkpt lat="45.87749" lon="6.42785">
        <ele>1440.859</ele>
        <time>2013-12-08T09:09:43Z</time>
      </trkpt>
      <trkpt lat="45.87749" lon="6.42785">
        <ele>1440.859</ele>
        <time>2013-12-08T09:09:48Z</time>
      </trkpt>
      <trkpt lat="45.87749" lon="6.42785">
        <ele>1440.859</ele>
        <time>2013-12-08T09:09:54Z</time>
      </trkpt>
      <trkpt lat="45.87749" lon="6.42785">
        <ele>1440.859</ele>
        <time>2013-12-08T09:09:58Z</time>
      </trkpt>
      <trkpt lat="45.87749" lon="6.42785">
        <ele>1440.859</ele>
        <time>2013-12-08T09:10:03Z</time>
      </trkpt>
      <trkpt lat="45.87748" lon="6.42784">
        <ele>1440.859</ele>
        <time>2013-12-08T09:10:08Z</time>
      </trkpt>
      <trkpt lat="45.87748" lon="6.42784">
        <ele>1440.859</ele>
        <time>2013-12-08T09:10:13Z</time>
      </trkpt>
      <trkpt lat="45.87748" lon="6.42783">
        <ele>1440.859</ele>
        <time>2013-12-08T09:10:18Z</time>
      </trkpt>
      <trkpt lat="45.87747" lon="6.42783">
        <ele>1440.859</ele>
        <time>2013-12-08T09:10:24Z</time>
      </trkpt>
      <trkpt lat="45.87747" lon="6.42782">
        <ele>1440.859</ele>
        <time>2013-12-08T09:10:28Z</time>
      </trkpt>
      <trkpt lat="45.87747" lon="6.42782">
        <ele>1440.859</ele>
        <time>2013-12-08T09:10:33Z</time>
      </trkpt>
      <trkpt lat="45.87747" lon="6.42782">
        <ele>1440.859</ele>
        <time>2013-12-08T09:10:39Z</time>
      </trkpt>
      <trkpt lat="45.87747" lon="6.42782">
        <ele>1440.859</ele>
        <time>2013-12-08T09:10:43Z</time>
      </trkpt>
      <trkpt lat="45.87747" lon="6.42782">
        <ele>1440.859</ele>
        <time>2013-12-08T09:10:48Z</time>
      </trkpt>
      <trkpt lat="45.87747" lon="6.42782">
        <ele>1440.859</ele>
        <time>2013-12-08T09:10:54Z</time>
      </trkpt>
      <trkpt lat="45.87747" lon="6.42782">
        <ele>1440.859</ele>
        <time>2013-12-08T09:10:58Z</time>
      </trkpt>
      <trkpt lat="45.87747" lon="6.42782">
        <ele>1440.859</ele>
        <time>2013-12-08T09:11:03Z</time>
      </trkpt>
      <trkpt lat="45.87747" lon="6.42782">
        <ele>1440.859</ele>
        <time>2013-12-08T09:11:09Z</time>
      </trkpt>
      <trkpt lat="45.87747" lon="6.42782">
        <ele>1440.859</ele>
        <time>2013-12-08T09:11:13Z</time>
      </trkpt>
      <trkpt lat="45.87747" lon="6.42782">
        <ele>1440.859</ele>
        <time>2013-12-08T09:11:18Z</time>
      </trkpt>
      <trkpt lat="45.87747" lon="6.42782">
        <ele>1440.859</ele>
        <time>2013-12-08T09:11:24Z</time>
      </trkpt>
      <trkpt lat="45.87747" lon="6.42782">
        <ele>1440.859</ele>
        <time>2013-12-08T09:11:28Z</time>
      </trkpt>
      <trkpt lat="45.87747" lon="6.42782">
        <ele>1440.859</ele>
        <time>2013-12-08T09:11:33Z</time>
      </trkpt>
      <trkpt lat="45.87747" lon="6.42782">
        <ele>1440.859</ele>
        <time>2013-12-08T09:11:39Z</time>
      </trkpt>
      <trkpt lat="45.87747" lon="6.42782">
        <ele>1440.859</ele>
        <time>2013-12-08T09:11:43Z</time>
      </trkpt>
      <trkpt lat="45.87747" lon="6.42782">
        <ele>1440.859</ele>
        <time>2013-12-08T09:11:48Z</time>
      </trkpt>
      <trkpt lat="45.87747" lon="6.42782">
        <ele>1440.859</ele>
        <time>2013-12-08T09:11:54Z</time>
      </trkpt>
      <trkpt lat="45.87747" lon="6.42782">
        <ele>1440.859</ele>
        <time>2013-12-08T09:11:58Z</time>
      </trkpt>
      <trkpt lat="45.87747" lon="6.42782">
        <ele>1440.859</ele>
        <time>2013-12-08T09:12:03Z</time>
      </trkpt>
      <trkpt lat="45.87747" lon="6.42782">
        <ele>1440.859</ele>
        <time>2013-12-08T09:12:09Z</time>
      </trkpt>
      <trkpt lat="45.87747" lon="6.42782">
        <ele>1440.859</ele>
        <time>2013-12-08T09:12:13Z</time>
      </trkpt>
      <trkpt lat="45.87747" lon="6.42782">
        <ele>1440.859</ele>
        <time>2013-12-08T09:12:18Z</time>
      </trkpt>
      <trkpt lat="45.87747" lon="6.42782">
        <ele>1440.859</ele>
        <time>2013-12-08T09:12:24Z</time>
      </trkpt>
      <trkpt lat="45.87746" lon="6.42782">
        <ele>1440.859</ele>
        <time>2013-12-08T09:12:28Z</time>
      </trkpt>
      <trkpt lat="45.87747" lon="6.42783">
        <ele>1440.859</ele>
        <time>2013-12-08T09:12:33Z</time>
      </trkpt>
      <trkpt lat="45.87747" lon="6.42783">
        <ele>1440.859</ele>
        <time>2013-12-08T09:12:39Z</time>
      </trkpt>
      <trkpt lat="45.87746" lon="6.42782">
        <ele>1440.859</ele>
        <time>2013-12-08T09:12:43Z</time>
      </trkpt>
      <trkpt lat="45.87746" lon="6.42782">
        <ele>1440.859</ele>
        <time>2013-12-08T09:12:48Z</time>
      </trkpt>
      <trkpt lat="45.87746" lon="6.42782">
        <ele>1440.859</ele>
        <time>2013-12-08T09:12:54Z</time>
      </trkpt>
      <trkpt lat="45.87741" lon="6.42778">
        <ele>1443.87</ele>
        <time>2013-12-08T09:12:58Z</time>
      </trkpt>
      <trkpt lat="45.87738" lon="6.42775">
        <ele>1443.87</ele>
        <time>2013-12-08T09:13:03Z</time>
      </trkpt>
      <trkpt lat="45.87737" lon="6.42774">
        <ele>1443.87</ele>
        <time>2013-12-08T09:13:09Z</time>
      </trkpt>
      <trkpt lat="45.87735" lon="6.42773">
        <ele>1443.87</ele>
        <time>2013-12-08T09:13:13Z</time>
      </trkpt>
      <trkpt lat="45.87735" lon="6.42772">
        <ele>1443.87</ele>
        <time>2013-12-08T09:13:18Z</time>
      </trkpt>
      <trkpt lat="45.87735" lon="6.42773">
        <ele>1443.87</ele>
        <time>2013-12-08T09:13:24Z</time>
      </trkpt>
      <trkpt lat="45.87733" lon="6.42772">
        <ele>1446.9379</ele>
        <time>2013-12-08T09:13:28Z</time>
      </trkpt>
      <trkpt lat="45.87732" lon="6.42771">
        <ele>1446.9379</ele>
        <time>2013-12-08T09:13:33Z</time>
      </trkpt>
      <trkpt lat="45.87732" lon="6.42771">
        <ele>1446.9379</ele>
        <time>2013-12-08T09:13:38Z</time>
      </trkpt>
      <trkpt lat="45.87729" lon="6.42768">
        <ele>1446.9379</ele>
        <time>2013-12-08T09:13:43Z</time>
      </trkpt>
      <trkpt lat="45.87726" lon="6.42764">
        <ele>1446.9379</ele>
        <time>2013-12-08T09:13:48Z</time>
      </trkpt>
      <trkpt lat="45.87723" lon="6.42762">
        <ele>1449.955</ele>
        <time>2013-12-08T09:13:53Z</time>
      </trkpt>
      <trkpt lat="45.87721" lon="6.42761">
        <ele>1449.955</ele>
        <time>2013-12-08T09:13:58Z</time>
      </trkpt>
      <trkpt lat="45.8772" lon="6.42759">
        <ele>1449.955</ele>
        <time>2013-12-08T09:14:04Z</time>
      </trkpt>
      <trkpt lat="45.87719" lon="6.42758">
        <ele>1449.955</ele>
        <time>2013-12-08T09:14:08Z</time>
      </trkpt>
      <trkpt lat="45.87718" lon="6.42755">
        <ele>1449.955</ele>
        <time>2013-12-08T09:14:13Z</time>
      </trkpt>
      <trkpt lat="45.87717" lon="6.42753">
        <ele>1449.955</ele>
        <time>2013-12-08T09:14:19Z</time>
      </trkpt>
      <trkpt lat="45.87717" lon="6.42752">
        <ele>1453.2877</ele>
        <time>2013-12-08T09:14:23Z</time>
      </trkpt>
      <trkpt lat="45.87713" lon="6.42751">
        <ele>1453.2877</ele>
        <time>2013-12-08T09:14:28Z</time>
      </trkpt>
      <trkpt lat="45.87711" lon="6.4275">
        <ele>1453.2877</ele>
        <time>2013-12-08T09:14:33Z</time>
      </trkpt>
      <trkpt lat="45.87709" lon="6.42751">
        <ele>1453.2877</ele>
        <time>2013-12-08T09:14:38Z</time>
      </trkpt>
      <trkpt lat="45.87702" lon="6.42753">
        <ele>1456.6044</ele>
        <time>2013-12-08T09:14:43Z</time>
      </trkpt>
      <trkpt lat="45.87702" lon="6.42753">
        <ele>1456.6044</ele>
        <time>2013-12-08T09:14:48Z</time>
      </trkpt>
      <trkpt lat="45.87702" lon="6.42753">
        <ele>1456.6044</ele>
        <time>2013-12-08T09:14:53Z</time>
      </trkpt>
      <trkpt lat="45.87702" lon="6.42753">
        <ele>1456.6044</ele>
        <time>2013-12-08T09:14:58Z</time>
      </trkpt>
      <trkpt lat="45.87702" lon="6.42753">
        <ele>1456.6044</ele>
        <time>2013-12-08T09:15:03Z</time>
      </trkpt>
      <trkpt lat="45.87701" lon="6.42754">
        <ele>1456.6044</ele>
        <time>2013-12-08T09:15:08Z</time>
      </trkpt>
      <trkpt lat="45.87696" lon="6.42759">
        <ele>1456.6044</ele>
        <time>2013-12-08T09:15:13Z</time>
      </trkpt>
      <trkpt lat="45.8769" lon="6.42763">
        <ele>1460.122</ele>
        <time>2013-12-08T09:15:18Z</time>
      </trkpt>
      <trkpt lat="45.87687" lon="6.42768">
        <ele>1460.122</ele>
        <time>2013-12-08T09:15:23Z</time>
      </trkpt>
      <trkpt lat="45.87688" lon="6.42769">
        <ele>1460.122</ele>
        <time>2013-12-08T09:15:28Z</time>
      </trkpt>
      <trkpt lat="45.8769" lon="6.42769">
        <ele>1460.122</ele>
        <time>2013-12-08T09:15:33Z</time>
      </trkpt>
      <trkpt lat="45.8769" lon="6.42769">
        <ele>1460.122</ele>
        <time>2013-12-08T09:15:38Z</time>
      </trkpt>
      <trkpt lat="45.87689" lon="6.4277">
        <ele>1460.122</ele>
        <time>2013-12-08T09:15:43Z</time>
      </trkpt>
      <trkpt lat="45.87687" lon="6.42772">
        <ele>1463.4746</ele>
        <time>2013-12-08T09:15:48Z</time>
      </trkpt>
      <trkpt lat="45.87684" lon="6.42776">
        <ele>1463.4746</ele>
        <time>2013-12-08T09:15:53Z</time>
      </trkpt>
      <trkpt lat="45.87683" lon="6.42776">
        <ele>1463.4746</ele>
        <time>2013-12-08T09:15:58Z</time>
      </trkpt>
      <trkpt lat="45.87683" lon="6.42775">
        <ele>1463.4746</ele>
        <time>2013-12-08T09:16:04Z</time>
      </trkpt>
      <trkpt lat="45.87683" lon="6.42775">
        <ele>1463.4746</ele>
        <time>2013-12-08T09:16:08Z</time>
      </trkpt>
      <trkpt lat="45.87681" lon="6.42776">
        <ele>1463.4746</ele>
        <time>2013-12-08T09:16:13Z</time>
      </trkpt>
      <trkpt lat="45.87675" lon="6.42775">
        <ele>1467.773</ele>
        <time>2013-12-08T09:16:19Z</time>
      </trkpt>
      <trkpt lat="45.87676" lon="6.42775">
        <ele>1467.773</ele>
        <time>2013-12-08T09:16:23Z</time>
      </trkpt>
      <trkpt lat="45.87672" lon="6.42771">
        <ele>1467.773</ele>
        <time>2013-12-08T09:16:28Z</time>
      </trkpt>
      <trkpt lat="45.87668" lon="6.42767">
        <ele>1471.6967</ele>
        <time>2013-12-08T09:16:33Z</time>
      </trkpt>
      <trkpt lat="45.87664" lon="6.42764">
        <ele>1471.6967</ele>
        <time>2013-12-08T09:16:38Z</time>
      </trkpt>
      <trkpt lat="45.87664" lon="6.42764">
        <ele>1471.6967</ele>
        <time>2013-12-08T09:16:43Z</time>
      </trkpt>
      <trkpt lat="45.87661" lon="6.42762">
        <ele>1471.6967</ele>
        <time>2013-12-08T09:16:48Z</time>
      </trkpt>
      <trkpt lat="45.87661" lon="6.42761">
        <ele>1471.6967</ele>
        <time>2013-12-08T09:16:53Z</time>
      </trkpt>
      <trkpt lat="45.87662" lon="6.42761">
        <ele>1471.6967</ele>
        <time>2013-12-08T09:16:59Z</time>
      </trkpt>
      <trkpt lat="45.87662" lon="6.42762">
        <ele>1475.8918</ele>
        <time>2013-12-08T09:17:03Z</time>
      </trkpt>
      <trkpt lat="45.87662" lon="6.42762">
        <ele>1475.8918</ele>
        <time>2013-12-08T09:17:08Z</time>
      </trkpt>
      <trkpt lat="45.87662" lon="6.42762">
        <ele>1475.8918</ele>
        <time>2013-12-08T09:17:14Z</time>
      </trkpt>
      <trkpt lat="45.87656" lon="6.42768">
        <ele>1475.8918</ele>
        <time>2013-12-08T09:17:18Z</time>
      </trkpt>
      <trkpt lat="45.87651" lon="6.42772">
        <ele>1479.8428</ele>
        <time>2013-12-08T09:17:23Z</time>
      </trkpt>
      <trkpt lat="45.87644" lon="6.42777">
        <ele>1479.8428</ele>
        <time>2013-12-08T09:17:29Z</time>
      </trkpt>
      <trkpt lat="45.87641" lon="6.42779">
        <ele>1483.3186</ele>
        <time>2013-12-08T09:17:33Z</time>
      </trkpt>
      <trkpt lat="45.87638" lon="6.42781">
        <ele>1483.3186</ele>
        <time>2013-12-08T09:17:38Z</time>
      </trkpt>
      <trkpt lat="45.87638" lon="6.42782">
        <ele>1483.3186</ele>
        <time>2013-12-08T09:17:43Z</time>
      </trkpt>
      <trkpt lat="45.87639" lon="6.42783">
        <ele>1483.3186</ele>
        <time>2013-12-08T09:17:48Z</time>
      </trkpt>
      <trkpt lat="45.87639" lon="6.42783">
        <ele>1483.3186</ele>
        <time>2013-12-08T09:17:53Z</time>
      </trkpt>
      <trkpt lat="45.87639" lon="6.42783">
        <ele>1483.3186</ele>
        <time>2013-12-08T09:17:58Z</time>
      </trkpt>
      <trkpt lat="45.87639" lon="6.42783">
        <ele>1483.3186</ele>
        <time>2013-12-08T09:18:03Z</time>
      </trkpt>
      <trkpt lat="45.87639" lon="6.42783">
        <ele>1483.3186</ele>
        <time>2013-12-08T09:18:08Z</time>
      </trkpt>
      <trkpt lat="45.87639" lon="6.42783">
        <ele>1483.3186</ele>
        <time>2013-12-08T09:18:13Z</time>
      </trkpt>
      <trkpt lat="45.87632" lon="6.4279">
        <ele>1486.6698</ele>
        <time>2013-12-08T09:18:23Z</time>
      </trkpt>
      <trkpt lat="45.87627" lon="6.42797">
        <ele>1486.6698</ele>
        <time>2013-12-08T09:18:28Z</time>
      </trkpt>
      <trkpt lat="45.87622" lon="6.42803">
        <ele>1489.615</ele>
        <time>2013-12-08T09:18:33Z</time>
      </trkpt>
      <trkpt lat="45.87617" lon="6.42806">
        <ele>1489.615</ele>
        <time>2013-12-08T09:18:38Z</time>
      </trkpt>
      <trkpt lat="45.87616" lon="6.42808">
        <ele>1489.615</ele>
        <time>2013-12-08T09:18:43Z</time>
      </trkpt>
      <trkpt lat="45.87616" lon="6.42808">
        <ele>1489.615</ele>
        <time>2013-12-08T09:18:49Z</time>
      </trkpt>
      <trkpt lat="45.87613" lon="6.42804">
        <ele>1492.919</ele>
        <time>2013-12-08T09:18:53Z</time>
      </trkpt>
      <trkpt lat="45.87611" lon="6.42803">
        <ele>1492.919</ele>
        <time>2013-12-08T09:18:58Z</time>
      </trkpt>
      <trkpt lat="45.8761" lon="6.42803">
        <ele>1492.919</ele>
        <time>2013-12-08T09:19:04Z</time>
      </trkpt>
      <trkpt lat="45.87607" lon="6.42801">
        <ele>1492.919</ele>
        <time>2013-12-08T09:19:08Z</time>
      </trkpt>
      <trkpt lat="45.87604" lon="6.428">
        <ele>1496.582</ele>
        <time>2013-12-08T09:19:13Z</time>
      </trkpt>
      <trkpt lat="45.87603" lon="6.42798">
        <ele>1496.582</ele>
        <time>2013-12-08T09:19:19Z</time>
      </trkpt>
      <trkpt lat="45.876" lon="6.42796">
        <ele>1496.582</ele>
        <time>2013-12-08T09:19:23Z</time>
      </trkpt>
      <trkpt lat="45.87602" lon="6.42795">
        <ele>1496.582</ele>
        <time>2013-12-08T09:19:28Z</time>
      </trkpt>
      <trkpt lat="45.87598" lon="6.42793">
        <ele>1500.2866</ele>
        <time>2013-12-08T09:19:33Z</time>
      </trkpt>
      <trkpt lat="45.87594" lon="6.42788">
        <ele>1500.2866</ele>
        <time>2013-12-08T09:19:38Z</time>
      </trkpt>
      <trkpt lat="45.87593" lon="6.42788">
        <ele>1500.2866</ele>
        <time>2013-12-08T09:19:43Z</time>
      </trkpt>
      <trkpt lat="45.87592" lon="6.42788">
        <ele>1500.2866</ele>
        <time>2013-12-08T09:19:48Z</time>
      </trkpt>
      <trkpt lat="45.87592" lon="6.42789">
        <ele>1500.2866</ele>
        <time>2013-12-08T09:19:53Z</time>
      </trkpt>
      <trkpt lat="45.87591" lon="6.42789">
        <ele>1500.2866</ele>
        <time>2013-12-08T09:19:58Z</time>
      </trkpt>
      <trkpt lat="45.87591" lon="6.42788">
        <ele>1503.897</ele>
        <time>2013-12-08T09:20:04Z</time>
      </trkpt>
      <trkpt lat="45.87591" lon="6.42788">
        <ele>1503.897</ele>
        <time>2013-12-08T09:20:08Z</time>
      </trkpt>
      <trkpt lat="45.87591" lon="6.42788">
        <ele>1503.897</ele>
        <time>2013-12-08T09:20:13Z</time>
      </trkpt>
      <trkpt lat="45.87591" lon="6.42788">
        <ele>1503.897</ele>
        <time>2013-12-08T09:20:19Z</time>
      </trkpt>
      <trkpt lat="45.87591" lon="6.42788">
        <ele>1503.897</ele>
        <time>2013-12-08T09:20:23Z</time>
      </trkpt>
      <trkpt lat="45.87591" lon="6.42788">
        <ele>1503.897</ele>
        <time>2013-12-08T09:20:28Z</time>
      </trkpt>
      <trkpt lat="45.87591" lon="6.42788">
        <ele>1503.897</ele>
        <time>2013-12-08T09:20:33Z</time>
      </trkpt>
      <trkpt lat="45.87589" lon="6.42792">
        <ele>1503.897</ele>
        <time>2013-12-08T09:20:38Z</time>
      </trkpt>
      <trkpt lat="45.87582" lon="6.42798">
        <ele>1507.2301</ele>
        <time>2013-12-08T09:20:43Z</time>
      </trkpt>
      <trkpt lat="45.87578" lon="6.42803">
        <ele>1507.2301</ele>
        <time>2013-12-08T09:20:49Z</time>
      </trkpt>
      <trkpt lat="45.87578" lon="6.42807">
        <ele>1507.2301</ele>
        <time>2013-12-08T09:20:53Z</time>
      </trkpt>
      <trkpt lat="45.87577" lon="6.42807">
        <ele>1507.2301</ele>
        <time>2013-12-08T09:20:58Z</time>
      </trkpt>
      <trkpt lat="45.87577" lon="6.42807">
        <ele>1507.2301</ele>
        <time>2013-12-08T09:21:03Z</time>
      </trkpt>
      <trkpt lat="45.87578" lon="6.42807">
        <ele>1510.5641</ele>
        <time>2013-12-08T09:21:08Z</time>
      </trkpt>
      <trkpt lat="45.87578" lon="6.42807">
        <ele>1510.5641</ele>
        <time>2013-12-08T09:21:13Z</time>
      </trkpt>
      <trkpt lat="45.87578" lon="6.42807">
        <ele>1510.5641</ele>
        <time>2013-12-08T09:21:18Z</time>
      </trkpt>
      <trkpt lat="45.87578" lon="6.42807">
        <ele>1510.5641</ele>
        <time>2013-12-08T09:21:23Z</time>
      </trkpt>
      <trkpt lat="45.87577" lon="6.42813">
        <ele>1510.5641</ele>
        <time>2013-12-08T09:21:28Z</time>
      </trkpt>
      <trkpt lat="45.87573" lon="6.4282">
        <ele>1513.8685</ele>
        <time>2013-12-08T09:21:33Z</time>
      </trkpt>
      <trkpt lat="45.87569" lon="6.42826">
        <ele>1513.8685</ele>
        <time>2013-12-08T09:21:38Z</time>
      </trkpt>
      <trkpt lat="45.87566" lon="6.42831">
        <ele>1516.9276</ele>
        <time>2013-12-08T09:21:43Z</time>
      </trkpt>
      <trkpt lat="45.87565" lon="6.42832">
        <ele>1516.9276</ele>
        <time>2013-12-08T09:21:48Z</time>
      </trkpt>
      <trkpt lat="45.87566" lon="6.42833">
        <ele>1516.9276</ele>
        <time>2013-12-08T09:21:58Z</time>
      </trkpt>
      <trkpt lat="45.87566" lon="6.42833">
        <ele>1516.9276</ele>
        <time>2013-12-08T09:22:03Z</time>
      </trkpt>
      <trkpt lat="45.87565" lon="6.42833">
        <ele>1516.9276</ele>
        <time>2013-12-08T09:22:08Z</time>
      </trkpt>
      <trkpt lat="45.87564" lon="6.42837">
        <ele>1516.9276</ele>
        <time>2013-12-08T09:22:13Z</time>
      </trkpt>
      <trkpt lat="45.87558" lon="6.42846">
        <ele>1519.9895</ele>
        <time>2013-12-08T09:22:18Z</time>
      </trkpt>
      <trkpt lat="45.87554" lon="6.42851">
        <ele>1519.9895</ele>
        <time>2013-12-08T09:22:23Z</time>
      </trkpt>
      <trkpt lat="45.87552" lon="6.42853">
        <ele>1519.9895</ele>
        <time>2013-12-08T09:22:28Z</time>
      </trkpt>
      <trkpt lat="45.87551" lon="6.42854">
        <ele>1522.9235</ele>
        <time>2013-12-08T09:22:33Z</time>
      </trkpt>
      <trkpt lat="45.87548" lon="6.42854">
        <ele>1522.9235</ele>
        <time>2013-12-08T09:22:38Z</time>
      </trkpt>
      <trkpt lat="45.87542" lon="6.42851">
        <ele>1526.1711</ele>
        <time>2013-12-08T09:22:43Z</time>
      </trkpt>
      <trkpt lat="45.87536" lon="6.42847">
        <ele>1526.1711</ele>
        <time>2013-12-08T09:22:48Z</time>
      </trkpt>
      <trkpt lat="45.87531" lon="6.42844">
        <ele>1529.0594</ele>
        <time>2013-12-08T09:22:53Z</time>
      </trkpt>
      <trkpt lat="45.87529" lon="6.42842">
        <ele>1529.0594</ele>
        <time>2013-12-08T09:22:58Z</time>
      </trkpt>
      <trkpt lat="45.87525" lon="6.42839">
        <ele>1529.0594</ele>
        <time>2013-12-08T09:23:03Z</time>
      </trkpt>
      <trkpt lat="45.87522" lon="6.42837">
        <ele>1531.9899</ele>
        <time>2013-12-08T09:23:08Z</time>
      </trkpt>
      <trkpt lat="45.8752" lon="6.42836">
        <ele>1531.9899</ele>
        <time>2013-12-08T09:23:13Z</time>
      </trkpt>
      <trkpt lat="45.87518" lon="6.42837">
        <ele>1531.9899</ele>
        <time>2013-12-08T09:23:18Z</time>
      </trkpt>
      <trkpt lat="45.87517" lon="6.42838">
        <ele>1531.9899</ele>
        <time>2013-12-08T09:23:23Z</time>
      </trkpt>
      <trkpt lat="45.87515" lon="6.42841">
        <ele>1531.9899</ele>
        <time>2013-12-08T09:23:28Z</time>
      </trkpt>
      <trkpt lat="45.87513" lon="6.42843">
        <ele>1534.3823</ele>
        <time>2013-12-08T09:23:33Z</time>
      </trkpt>
      <trkpt lat="45.87506" lon="6.42847">
        <ele>1534.3823</ele>
        <time>2013-12-08T09:23:43Z</time>
      </trkpt>
      <trkpt lat="45.87503" lon="6.42848">
        <ele>1536.4073</ele>
        <time>2013-12-08T09:23:48Z</time>
      </trkpt>
      <trkpt lat="45.875" lon="6.42846">
        <ele>1536.4073</ele>
        <time>2013-12-08T09:23:53Z</time>
      </trkpt>
      <trkpt lat="45.87497" lon="6.42847">
        <ele>1536.4073</ele>
        <time>2013-12-08T09:23:58Z</time>
      </trkpt>
      <trkpt lat="45.87492" lon="6.42847">
        <ele>1538.6141</ele>
        <time>2013-12-08T09:24:03Z</time>
      </trkpt>
      <trkpt lat="45.87489" lon="6.4285">
        <ele>1538.6141</ele>
        <time>2013-12-08T09:24:08Z</time>
      </trkpt>
      <trkpt lat="45.87487" lon="6.42854">
        <ele>1538.6141</ele>
        <time>2013-12-08T09:24:13Z</time>
      </trkpt>
      <trkpt lat="45.87486" lon="6.42858">
        <ele>1540.6305</ele>
        <time>2013-12-08T09:24:18Z</time>
      </trkpt>
      <trkpt lat="45.87486" lon="6.42859">
        <ele>1540.6305</ele>
        <time>2013-12-08T09:24:24Z</time>
      </trkpt>
      <trkpt lat="45.8748" lon="6.42861">
        <ele>1540.6305</ele>
        <time>2013-12-08T09:24:28Z</time>
      </trkpt>
      <trkpt lat="45.87475" lon="6.42861">
        <ele>1542.3867</ele>
        <time>2013-12-08T09:24:33Z</time>
      </trkpt>
      <trkpt lat="45.87473" lon="6.42862">
        <ele>1542.3867</ele>
        <time>2013-12-08T09:24:39Z</time>
      </trkpt>
      <trkpt lat="45.87468" lon="6.42863">
        <ele>1542.3867</ele>
        <time>2013-12-08T09:24:43Z</time>
      </trkpt>
      <trkpt lat="45.87464" lon="6.42862">
        <ele>1544.1216</ele>
        <time>2013-12-08T09:24:48Z</time>
      </trkpt>
      <trkpt lat="45.87463" lon="6.42863">
        <ele>1544.1216</ele>
        <time>2013-12-08T09:24:54Z</time>
      </trkpt>
      <trkpt lat="45.8746" lon="6.42865">
        <ele>1544.1216</ele>
        <time>2013-12-08T09:24:58Z</time>
      </trkpt>
      <trkpt lat="45.87457" lon="6.42868">
        <ele>1544.1216</ele>
        <time>2013-12-08T09:25:03Z</time>
      </trkpt>
      <trkpt lat="45.87456" lon="6.42869">
        <ele>1545.1477</ele>
        <time>2013-12-08T09:25:09Z</time>
      </trkpt>
      <trkpt lat="45.87452" lon="6.42873">
        <ele>1545.1477</ele>
        <time>2013-12-08T09:25:13Z</time>
      </trkpt>
      <trkpt lat="45.87449" lon="6.42876">
        <ele>1546.2728</ele>
        <time>2013-12-08T09:25:18Z</time>
      </trkpt>
      <trkpt lat="45.87447" lon="6.42877">
        <ele>1546.2728</ele>
        <time>2013-12-08T09:25:24Z</time>
      </trkpt>
      <trkpt lat="45.87444" lon="6.42878">
        <ele>1546.2728</ele>
        <time>2013-12-08T09:25:28Z</time>
      </trkpt>
      <trkpt lat="45.87441" lon="6.4288">
        <ele>1546.2728</ele>
        <time>2013-12-08T09:25:33Z</time>
      </trkpt>
      <trkpt lat="45.87435" lon="6.42883">
        <ele>1546.8457</ele>
        <time>2013-12-08T09:25:38Z</time>
      </trkpt>
      <trkpt lat="45.87432" lon="6.42886">
        <ele>1546.8457</ele>
        <time>2013-12-08T09:25:43Z</time>
      </trkpt>
      <trkpt lat="45.87429" lon="6.4289">
        <ele>1546.8457</ele>
        <time>2013-12-08T09:25:48Z</time>
      </trkpt>
      <trkpt lat="45.87427" lon="6.42892">
        <ele>1547.2308</ele>
        <time>2013-12-08T09:25:53Z</time>
      </trkpt>
      <trkpt lat="45.87426" lon="6.42892">
        <ele>1547.2308</ele>
        <time>2013-12-08T09:25:59Z</time>
      </trkpt>
      <trkpt lat="45.87423" lon="6.42893">
        <ele>1547.2308</ele>
        <time>2013-12-08T09:26:03Z</time>
      </trkpt>
      <trkpt lat="45.87423" lon="6.42895">
        <ele>1547.2308</ele>
        <time>2013-12-08T09:26:08Z</time>
      </trkpt>
      <trkpt lat="45.87423" lon="6.42895">
        <ele>1547.2308</ele>
        <time>2013-12-08T09:26:14Z</time>
      </trkpt>
      <trkpt lat="45.8742" lon="6.42897">
        <ele>1547.2308</ele>
        <time>2013-12-08T09:26:18Z</time>
      </trkpt>
      <trkpt lat="45.87414" lon="6.42901">
        <ele>1548.2712</ele>
        <time>2013-12-08T09:26:23Z</time>
      </trkpt>
      <trkpt lat="45.87412" lon="6.42902">
        <ele>1548.2712</ele>
        <time>2013-12-08T09:26:29Z</time>
      </trkpt>
      <trkpt lat="45.87405" lon="6.42906">
        <ele>1549.3469</ele>
        <time>2013-12-08T09:26:33Z</time>
      </trkpt>
      <trkpt lat="45.87402" lon="6.42906">
        <ele>1549.3469</ele>
        <time>2013-12-08T09:26:38Z</time>
      </trkpt>
      <trkpt lat="45.874" lon="6.42909">
        <ele>1549.3469</ele>
        <time>2013-12-08T09:26:43Z</time>
      </trkpt>
      <trkpt lat="45.87399" lon="6.42909">
        <ele>1549.3469</ele>
        <time>2013-12-08T09:26:49Z</time>
      </trkpt>
      <trkpt lat="45.87398" lon="6.42912">
        <ele>1549.3469</ele>
        <time>2013-12-08T09:26:53Z</time>
      </trkpt>
      <trkpt lat="45.87398" lon="6.42912">
        <ele>1549.3469</ele>
        <time>2013-12-08T09:26:58Z</time>
      </trkpt>
      <trkpt lat="45.87397" lon="6.42918">
        <ele>1550.5614</ele>
        <time>2013-12-08T09:27:04Z</time>
      </trkpt>
      <trkpt lat="45.87396" lon="6.4292">
        <ele>1550.5614</ele>
        <time>2013-12-08T09:27:08Z</time>
      </trkpt>
      <trkpt lat="45.87396" lon="6.42922">
        <ele>1550.5614</ele>
        <time>2013-12-08T09:27:13Z</time>
      </trkpt>
      <trkpt lat="45.87396" lon="6.42922">
        <ele>1550.5614</ele>
        <time>2013-12-08T09:27:19Z</time>
      </trkpt>
      <trkpt lat="45.87396" lon="6.42923">
        <ele>1550.5614</ele>
        <time>2013-12-08T09:27:23Z</time>
      </trkpt>
      <trkpt lat="45.87396" lon="6.42923">
        <ele>1550.5614</ele>
        <time>2013-12-08T09:27:28Z</time>
      </trkpt>
      <trkpt lat="45.87393" lon="6.42929">
        <ele>1551.505</ele>
        <time>2013-12-08T09:27:33Z</time>
      </trkpt>
      <trkpt lat="45.87386" lon="6.42939">
        <ele>1552.4049</ele>
        <time>2013-12-08T09:27:38Z</time>
      </trkpt>
      <trkpt lat="45.87383" lon="6.42941">
        <ele>1552.4049</ele>
        <time>2013-12-08T09:27:43Z</time>
      </trkpt>
      <trkpt lat="45.87379" lon="6.42944">
        <ele>1552.4049</ele>
        <time>2013-12-08T09:27:49Z</time>
      </trkpt>
      <trkpt lat="45.87373" lon="6.42945">
        <ele>1553.2404</ele>
        <time>2013-12-08T09:27:53Z</time>
      </trkpt>
      <trkpt lat="45.87369" lon="6.42949">
        <ele>1553.2404</ele>
        <time>2013-12-08T09:27:58Z</time>
      </trkpt>
      <trkpt lat="45.87367" lon="6.42952">
        <ele>1553.2404</ele>
        <time>2013-12-08T09:28:03Z</time>
      </trkpt>
      <trkpt lat="45.87364" lon="6.42953">
        <ele>1553.5891</ele>
        <time>2013-12-08T09:28:08Z</time>
      </trkpt>
      <trkpt lat="45.87363" lon="6.42952">
        <ele>1553.5891</ele>
        <time>2013-12-08T09:28:13Z</time>
      </trkpt>
      <trkpt lat="45.87363" lon="6.42952">
        <ele>1553.5891</ele>
        <time>2013-12-08T09:28:19Z</time>
      </trkpt>
      <trkpt lat="45.87363" lon="6.42952">
        <ele>1553.5891</ele>
        <time>2013-12-08T09:28:23Z</time>
      </trkpt>
      <trkpt lat="45.87363" lon="6.42953">
        <ele>1553.5891</ele>
        <time>2013-12-08T09:28:28Z</time>
      </trkpt>
      <trkpt lat="45.87362" lon="6.42956">
        <ele>1553.5891</ele>
        <time>2013-12-08T09:28:33Z</time>
      </trkpt>
      <trkpt lat="45.87359" lon="6.42959">
        <ele>1554.6613</ele>
        <time>2013-12-08T09:28:39Z</time>
      </trkpt>
      <trkpt lat="45.87358" lon="6.4296">
        <ele>1554.6613</ele>
        <time>2013-12-08T09:28:43Z</time>
      </trkpt>
      <trkpt lat="45.87358" lon="6.42962">
        <ele>1554.6613</ele>
        <time>2013-12-08T09:28:48Z</time>
      </trkpt>
      <trkpt lat="45.87358" lon="6.42962">
        <ele>1554.6613</ele>
        <time>2013-12-08T09:28:54Z</time>
      </trkpt>
      <trkpt lat="45.87358" lon="6.42963">
        <ele>1554.6613</ele>
        <time>2013-12-08T09:28:58Z</time>
      </trkpt>
      <trkpt lat="45.87358" lon="6.42964">
        <ele>1554.6613</ele>
        <time>2013-12-08T09:29:03Z</time>
      </trkpt>
      <trkpt lat="45.87358" lon="6.42964">
        <ele>1554.6613</ele>
        <time>2013-12-08T09:29:09Z</time>
      </trkpt>
      <trkpt lat="45.87355" lon="6.42968">
        <ele>1554.6613</ele>
        <time>2013-12-08T09:29:13Z</time>
      </trkpt>
      <trkpt lat="45.87355" lon="6.4297">
        <ele>1556.4509</ele>
        <time>2013-12-08T09:29:18Z</time>
      </trkpt>
      <trkpt lat="45.87355" lon="6.42971">
        <ele>1556.4509</ele>
        <time>2013-12-08T09:29:24Z</time>
      </trkpt>
      <trkpt lat="45.87353" lon="6.42976">
        <ele>1556.4509</ele>
        <time>2013-12-08T09:29:28Z</time>
      </trkpt>
      <trkpt lat="45.87353" lon="6.42977">
        <ele>1556.4509</ele>
        <time>2013-12-08T09:29:33Z</time>
      </trkpt>
      <trkpt lat="45.87353" lon="6.42978">
        <ele>1556.4509</ele>
        <time>2013-12-08T09:29:38Z</time>
      </trkpt>
      <trkpt lat="45.87353" lon="6.42979">
        <ele>1556.4509</ele>
        <time>2013-12-08T09:29:43Z</time>
      </trkpt>
      <trkpt lat="45.87353" lon="6.42984">
        <ele>1558.2301</ele>
        <time>2013-12-08T09:29:48Z</time>
      </trkpt>
      <trkpt lat="45.87354" lon="6.42986">
        <ele>1558.2301</ele>
        <time>2013-12-08T09:29:54Z</time>
      </trkpt>
      <trkpt lat="45.87354" lon="6.42989">
        <ele>1558.2301</ele>
        <time>2013-12-08T09:29:58Z</time>
      </trkpt>
      <trkpt lat="45.87354" lon="6.42991">
        <ele>1558.2301</ele>
        <time>2013-12-08T09:30:03Z</time>
      </trkpt>
      <trkpt lat="45.87354" lon="6.42995">
        <ele>1558.2301</ele>
        <time>2013-12-08T09:30:09Z</time>
      </trkpt>
      <trkpt lat="45.87353" lon="6.42996">
        <ele>1560.2323</ele>
        <time>2013-12-08T09:30:13Z</time>
      </trkpt>
      <trkpt lat="45.87347" lon="6.43">
        <ele>1560.2323</ele>
        <time>2013-12-08T09:30:18Z</time>
      </trkpt>
      <trkpt lat="45.87344" lon="6.43004">
        <ele>1562.6442</ele>
        <time>2013-12-08T09:30:24Z</time>
      </trkpt>
      <trkpt lat="45.87335" lon="6.4301">
        <ele>1564.9023</ele>
        <time>2013-12-08T09:30:28Z</time>
      </trkpt>
      <trkpt lat="45.87331" lon="6.43013">
        <ele>1564.9023</ele>
        <time>2013-12-08T09:30:33Z</time>
      </trkpt>
      <trkpt lat="45.87329" lon="6.43015">
        <ele>1564.9023</ele>
        <time>2013-12-08T09:30:38Z</time>
      </trkpt>
      <trkpt lat="45.87322" lon="6.43018">
        <ele>1566.9753</ele>
        <time>2013-12-08T09:30:43Z</time>
      </trkpt>
      <trkpt lat="45.8732" lon="6.43018">
        <ele>1566.9753</ele>
        <time>2013-12-08T09:30:48Z</time>
      </trkpt>
      <trkpt lat="45.87318" lon="6.4302">
        <ele>1566.9753</ele>
        <time>2013-12-08T09:30:53Z</time>
      </trkpt>
      <trkpt lat="45.87318" lon="6.43021">
        <ele>1566.9753</ele>
        <time>2013-12-08T09:30:59Z</time>
      </trkpt>
      <trkpt lat="45.87318" lon="6.43022">
        <ele>1566.9753</ele>
        <time>2013-12-08T09:31:03Z</time>
      </trkpt>
      <trkpt lat="45.87319" lon="6.43022">
        <ele>1566.9753</ele>
        <time>2013-12-08T09:31:08Z</time>
      </trkpt>
      <trkpt lat="45.87319" lon="6.43022">
        <ele>1566.9753</ele>
        <time>2013-12-08T09:31:14Z</time>
      </trkpt>
      <trkpt lat="45.87319" lon="6.43022">
        <ele>1566.9753</ele>
        <time>2013-12-08T09:31:18Z</time>
      </trkpt>
      <trkpt lat="45.87319" lon="6.43024">
        <ele>1566.9753</ele>
        <time>2013-12-08T09:31:23Z</time>
      </trkpt>
      <trkpt lat="45.87321" lon="6.43026">
        <ele>1569.0505</ele>
        <time>2013-12-08T09:31:29Z</time>
      </trkpt>
      <trkpt lat="45.87321" lon="6.43026">
        <ele>1569.0505</ele>
        <time>2013-12-08T09:31:33Z</time>
      </trkpt>
      <trkpt lat="45.87321" lon="6.43026">
        <ele>1569.0505</ele>
        <time>2013-12-08T09:31:38Z</time>
      </trkpt>
      <trkpt lat="45.87321" lon="6.43026">
        <ele>1569.0505</ele>
        <time>2013-12-08T09:31:43Z</time>
      </trkpt>
      <trkpt lat="45.87321" lon="6.4303">
        <ele>1569.0505</ele>
        <time>2013-12-08T09:31:48Z</time>
      </trkpt>
      <trkpt lat="45.87321" lon="6.43034">
        <ele>1569.0505</ele>
        <time>2013-12-08T09:31:53Z</time>
      </trkpt>
      <trkpt lat="45.87319" lon="6.4304">
        <ele>1571.3446</ele>
        <time>2013-12-08T09:31:58Z</time>
      </trkpt>
      <trkpt lat="45.87319" lon="6.43043">
        <ele>1571.3446</ele>
        <time>2013-12-08T09:32:04Z</time>
      </trkpt>
      <trkpt lat="45.87319" lon="6.43044">
        <ele>1571.3446</ele>
        <time>2013-12-08T09:32:08Z</time>
      </trkpt>
      <trkpt lat="45.87319" lon="6.43046">
        <ele>1571.3446</ele>
        <time>2013-12-08T09:32:13Z</time>
      </trkpt>
      <trkpt lat="45.87318" lon="6.43049">
        <ele>1571.3446</ele>
        <time>2013-12-08T09:32:19Z</time>
      </trkpt>
      <trkpt lat="45.87318" lon="6.43049">
        <ele>1571.3446</ele>
        <time>2013-12-08T09:32:23Z</time>
      </trkpt>
      <trkpt lat="45.87316" lon="6.43051">
        <ele>1571.3446</ele>
        <time>2013-12-08T09:32:28Z</time>
      </trkpt>
      <trkpt lat="45.87314" lon="6.43053">
        <ele>1573.6973</ele>
        <time>2013-12-08T09:32:34Z</time>
      </trkpt>
      <trkpt lat="45.87313" lon="6.43054">
        <ele>1573.6973</ele>
        <time>2013-12-08T09:32:38Z</time>
      </trkpt>
      <trkpt lat="45.87309" lon="6.43054">
        <ele>1573.6973</ele>
        <time>2013-12-08T09:32:43Z</time>
      </trkpt>
      <trkpt lat="45.87304" lon="6.43056">
        <ele>1576.8103</ele>
        <time>2013-12-08T09:32:48Z</time>
      </trkpt>
      <trkpt lat="45.87299" lon="6.43056">
        <ele>1576.8103</ele>
        <time>2013-12-08T09:32:53Z</time>
      </trkpt>
      <trkpt lat="45.87295" lon="6.43057">
        <ele>1576.8103</ele>
        <time>2013-12-08T09:32:58Z</time>
      </trkpt>
      <trkpt lat="45.87292" lon="6.43057">
        <ele>1580.4957</ele>
        <time>2013-12-08T09:33:03Z</time>
      </trkpt>
      <trkpt lat="45.87285" lon="6.4306">
        <ele>1580.4957</ele>
        <time>2013-12-08T09:33:13Z</time>
      </trkpt>
      <trkpt lat="45.87281" lon="6.4306">
        <ele>1583.7703</ele>
        <time>2013-12-08T09:33:18Z</time>
      </trkpt>
      <trkpt lat="45.87281" lon="6.43063">
        <ele>1583.7703</ele>
        <time>2013-12-08T09:33:23Z</time>
      </trkpt>
      <trkpt lat="45.8728" lon="6.43065">
        <ele>1583.7703</ele>
        <time>2013-12-08T09:33:28Z</time>
      </trkpt>
      <trkpt lat="45.8728" lon="6.43065">
        <ele>1583.7703</ele>
        <time>2013-12-08T09:33:33Z</time>
      </trkpt>
      <trkpt lat="45.87278" lon="6.43066">
        <ele>1583.7703</ele>
        <time>2013-12-08T09:33:39Z</time>
      </trkpt>
      <trkpt lat="45.87275" lon="6.43067">
        <ele>1583.7703</ele>
        <time>2013-12-08T09:33:43Z</time>
      </trkpt>
      <trkpt lat="45.87272" lon="6.4307">
        <ele>1586.4884</ele>
        <time>2013-12-08T09:33:48Z</time>
      </trkpt>
      <trkpt lat="45.87273" lon="6.43075">
        <ele>1586.4884</ele>
        <time>2013-12-08T09:33:54Z</time>
      </trkpt>
      <trkpt lat="45.87272" lon="6.43077">
        <ele>1586.4884</ele>
        <time>2013-12-08T09:33:58Z</time>
      </trkpt>
      <trkpt lat="45.87272" lon="6.43078">
        <ele>1586.4884</ele>
        <time>2013-12-08T09:34:03Z</time>
      </trkpt>
      <trkpt lat="45.87272" lon="6.43078">
        <ele>1586.4884</ele>
        <time>2013-12-08T09:34:09Z</time>
      </trkpt>
      <trkpt lat="45.87272" lon="6.43079">
        <ele>1586.4884</ele>
        <time>2013-12-08T09:34:13Z</time>
      </trkpt>
      <trkpt lat="45.87272" lon="6.43079">
        <ele>1586.4884</ele>
        <time>2013-12-08T09:34:18Z</time>
      </trkpt>
      <trkpt lat="45.87272" lon="6.4308">
        <ele>1586.4884</ele>
        <time>2013-12-08T09:34:23Z</time>
      </trkpt>
      <trkpt lat="45.87272" lon="6.43081">
        <ele>1586.4884</ele>
        <time>2013-12-08T09:34:28Z</time>
      </trkpt>
      <trkpt lat="45.87272" lon="6.43082">
        <ele>1586.4884</ele>
        <time>2013-12-08T09:34:33Z</time>
      </trkpt>
      <trkpt lat="45.87272" lon="6.43082">
        <ele>1586.4884</ele>
        <time>2013-12-08T09:34:38Z</time>
      </trkpt>
      <trkpt lat="45.87271" lon="6.43086">
        <ele>1589.1938</ele>
        <time>2013-12-08T09:34:43Z</time>
      </trkpt>
      <trkpt lat="45.8727" lon="6.4309">
        <ele>1589.1938</ele>
        <time>2013-12-08T09:34:48Z</time>
      </trkpt>
      <trkpt lat="45.87268" lon="6.43095">
        <ele>1589.1938</ele>
        <time>2013-12-08T09:34:53Z</time>
      </trkpt>
      <trkpt lat="45.87268" lon="6.43097">
        <ele>1589.1938</ele>
        <time>2013-12-08T09:34:58Z</time>
      </trkpt>
      <trkpt lat="45.87267" lon="6.43097">
        <ele>1589.1938</ele>
        <time>2013-12-08T09:35:04Z</time>
      </trkpt>
      <trkpt lat="45.87259" lon="6.43102">
        <ele>1591.7274</ele>
        <time>2013-12-08T09:35:08Z</time>
      </trkpt>
      <trkpt lat="45.87251" lon="6.43104">
        <ele>1591.7274</ele>
        <time>2013-12-08T09:35:13Z</time>
      </trkpt>
      <trkpt lat="45.87249" lon="6.43105">
        <ele>1594.3748</ele>
        <time>2013-12-08T09:35:19Z</time>
      </trkpt>
      <trkpt lat="45.87244" lon="6.43109">
        <ele>1594.3748</ele>
        <time>2013-12-08T09:35:23Z</time>
      </trkpt>
      <trkpt lat="45.87241" lon="6.43112">
        <ele>1596.8665</ele>
        <time>2013-12-08T09:35:28Z</time>
      </trkpt>
      <trkpt lat="45.87237" lon="6.43115">
        <ele>1596.8665</ele>
        <time>2013-12-08T09:35:33Z</time>
      </trkpt>
      <trkpt lat="45.87234" lon="6.43115">
        <ele>1596.8665</ele>
        <time>2013-12-08T09:35:38Z</time>
      </trkpt>
      <trkpt lat="45.87234" lon="6.43115">
        <ele>1596.8665</ele>
        <time>2013-12-08T09:35:43Z</time>
      </trkpt>
      <trkpt lat="45.87233" lon="6.43115">
        <ele>1596.8665</ele>
        <time>2013-12-08T09:35:48Z</time>
      </trkpt>
      <trkpt lat="45.87233" lon="6.43116">
        <ele>1596.8665</ele>
        <time>2013-12-08T09:35:53Z</time>
      </trkpt>
      <trkpt lat="45.87232" lon="6.43116">
        <ele>1599.2708</ele>
        <time>2013-12-08T09:35:58Z</time>
      </trkpt>
      <trkpt lat="45.87231" lon="6.43115">
        <ele>1599.2708</ele>
        <time>2013-12-08T09:36:03Z</time>
      </trkpt>
      <trkpt lat="45.87223" lon="6.43119">
        <ele>1601.7085</ele>
        <time>2013-12-08T09:36:13Z</time>
      </trkpt>
      <trkpt lat="45.8722" lon="6.4312">
        <ele>1601.7085</ele>
        <time>2013-12-08T09:36:18Z</time>
      </trkpt>
      <trkpt lat="45.8722" lon="6.43122">
        <ele>1601.7085</ele>
        <time>2013-12-08T09:36:28Z</time>
      </trkpt>
      <trkpt lat="45.8722" lon="6.43122">
        <ele>1601.7085</ele>
        <time>2013-12-08T09:36:33Z</time>
      </trkpt>
      <trkpt lat="45.87219" lon="6.43129">
        <ele>1603.3696</ele>
        <time>2013-12-08T09:36:39Z</time>
      </trkpt>
      <trkpt lat="45.87219" lon="6.43131">
        <ele>1603.3696</ele>
        <time>2013-12-08T09:36:43Z</time>
      </trkpt>
      <trkpt lat="45.8722" lon="6.43132">
        <ele>1603.3696</ele>
        <time>2013-12-08T09:36:48Z</time>
      </trkpt>
      <trkpt lat="45.8722" lon="6.43135">
        <ele>1603.3696</ele>
        <time>2013-12-08T09:36:54Z</time>
      </trkpt>
      <trkpt lat="45.8722" lon="6.43136">
        <ele>1603.3696</ele>
        <time>2013-12-08T09:36:58Z</time>
      </trkpt>
      <trkpt lat="45.8722" lon="6.43136">
        <ele>1603.3696</ele>
        <time>2013-12-08T09:37:03Z</time>
      </trkpt>
      <trkpt lat="45.87221" lon="6.43143">
        <ele>1605.3213</ele>
        <time>2013-12-08T09:37:09Z</time>
      </trkpt>
      <trkpt lat="45.87221" lon="6.43144">
        <ele>1605.3213</ele>
        <time>2013-12-08T09:37:13Z</time>
      </trkpt>
      <trkpt lat="45.87222" lon="6.43145">
        <ele>1605.3213</ele>
        <time>2013-12-08T09:37:18Z</time>
      </trkpt>
      <trkpt lat="45.87222" lon="6.43147">
        <ele>1605.3213</ele>
        <time>2013-12-08T09:37:24Z</time>
      </trkpt>
      <trkpt lat="45.87221" lon="6.43151">
        <ele>1605.3213</ele>
        <time>2013-12-08T09:37:28Z</time>
      </trkpt>
      <trkpt lat="45.8722" lon="6.43154">
        <ele>1605.3213</ele>
        <time>2013-12-08T09:37:33Z</time>
      </trkpt>
      <trkpt lat="45.87219" lon="6.43155">
        <ele>1607.8019</ele>
        <time>2013-12-08T09:37:39Z</time>
      </trkpt>
      <trkpt lat="45.87214" lon="6.43159">
        <ele>1607.8019</ele>
        <time>2013-12-08T09:37:43Z</time>
      </trkpt>
      <trkpt lat="45.8721" lon="6.43161">
        <ele>1610.3971</ele>
        <time>2013-12-08T09:37:48Z</time>
      </trkpt>
      <trkpt lat="45.87208" lon="6.43165">
        <ele>1610.3971</ele>
        <time>2013-12-08T09:37:53Z</time>
      </trkpt>
      <trkpt lat="45.87209" lon="6.43166">
        <ele>1610.3971</ele>
        <time>2013-12-08T09:37:58Z</time>
      </trkpt>
      <trkpt lat="45.87209" lon="6.43166">
        <ele>1610.3971</ele>
        <time>2013-12-08T09:38:06Z</time>
      </trkpt>
      <trkpt lat="45.87209" lon="6.43166">
        <ele>1610.3971</ele>
        <time>2013-12-08T09:38:08Z</time>
      </trkpt>
      <trkpt lat="45.87208" lon="6.43165">
        <ele>1610.3971</ele>
        <time>2013-12-08T09:38:13Z</time>
      </trkpt>
      <trkpt lat="45.87209" lon="6.43165">
        <ele>1610.3971</ele>
        <time>2013-12-08T09:38:19Z</time>
      </trkpt>
      <trkpt lat="45.87208" lon="6.43165">
        <ele>1610.3971</ele>
        <time>2013-12-08T09:38:23Z</time>
      </trkpt>
      <trkpt lat="45.87206" lon="6.43167">
        <ele>1610.3971</ele>
        <time>2013-12-08T09:38:28Z</time>
      </trkpt>
      <trkpt lat="45.87205" lon="6.43169">
        <ele>1613.27</ele>
        <time>2013-12-08T09:38:33Z</time>
      </trkpt>
      <trkpt lat="45.87205" lon="6.43168">
        <ele>1613.27</ele>
        <time>2013-12-08T09:38:39Z</time>
      </trkpt>
      <trkpt lat="45.87205" lon="6.43168">
        <ele>1613.27</ele>
        <time>2013-12-08T09:38:43Z</time>
      </trkpt>
      <trkpt lat="45.87205" lon="6.43168">
        <ele>1613.27</ele>
        <time>2013-12-08T09:38:48Z</time>
      </trkpt>
      <trkpt lat="45.87205" lon="6.43169">
        <ele>1613.27</ele>
        <time>2013-12-08T09:38:54Z</time>
      </trkpt>
      <trkpt lat="45.87205" lon="6.43169">
        <ele>1613.27</ele>
        <time>2013-12-08T09:38:58Z</time>
      </trkpt>
      <trkpt lat="45.87206" lon="6.43174">
        <ele>1613.27</ele>
        <time>2013-12-08T09:39:03Z</time>
      </trkpt>
      <trkpt lat="45.87206" lon="6.43179">
        <ele>1613.27</ele>
        <time>2013-12-08T09:39:08Z</time>
      </trkpt>
      <trkpt lat="45.87207" lon="6.4318">
        <ele>1616.2974</ele>
        <time>2013-12-08T09:39:13Z</time>
      </trkpt>
      <trkpt lat="45.87207" lon="6.43181">
        <ele>1616.2974</ele>
        <time>2013-12-08T09:39:18Z</time>
      </trkpt>
      <trkpt lat="45.87206" lon="6.43181">
        <ele>1616.2974</ele>
        <time>2013-12-08T09:39:24Z</time>
      </trkpt>
      <trkpt lat="45.87207" lon="6.43185">
        <ele>1616.2974</ele>
        <time>2013-12-08T09:39:28Z</time>
      </trkpt>
      <trkpt lat="45.87208" lon="6.43189">
        <ele>1616.2974</ele>
        <time>2013-12-08T09:39:33Z</time>
      </trkpt>
      <trkpt lat="45.87211" lon="6.43194">
        <ele>1620.1571</ele>
        <time>2013-12-08T09:39:38Z</time>
      </trkpt>
      <trkpt lat="45.87213" lon="6.43199">
        <ele>1620.1571</ele>
        <time>2013-12-08T09:39:43Z</time>
      </trkpt>
      <trkpt lat="45.87214" lon="6.43205">
        <ele>1620.1571</ele>
        <time>2013-12-08T09:39:49Z</time>
      </trkpt>
      <trkpt lat="45.87215" lon="6.4321">
        <ele>1624.3655</ele>
        <time>2013-12-08T09:39:53Z</time>
      </trkpt>
      <trkpt lat="45.87215" lon="6.43211">
        <ele>1624.3655</ele>
        <time>2013-12-08T09:39:58Z</time>
      </trkpt>
      <trkpt lat="45.87216" lon="6.43212">
        <ele>1624.3655</ele>
        <time>2013-12-08T09:40:05Z</time>
      </trkpt>
      <trkpt lat="45.87216" lon="6.43213">
        <ele>1624.3655</ele>
        <time>2013-12-08T09:40:08Z</time>
      </trkpt>
      <trkpt lat="45.87216" lon="6.43213">
        <ele>1624.3655</ele>
        <time>2013-12-08T09:40:13Z</time>
      </trkpt>
      <trkpt lat="45.87216" lon="6.43213">
        <ele>1624.3655</ele>
        <time>2013-12-08T09:40:19Z</time>
      </trkpt>
      <trkpt lat="45.87219" lon="6.43219">
        <ele>1624.3655</ele>
        <time>2013-12-08T09:40:23Z</time>
      </trkpt>
      <trkpt lat="45.87219" lon="6.43222">
        <ele>1628.5593</ele>
        <time>2013-12-08T09:40:28Z</time>
      </trkpt>
      <trkpt lat="45.8722" lon="6.43224">
        <ele>1628.5593</ele>
        <time>2013-12-08T09:40:33Z</time>
      </trkpt>
      <trkpt lat="45.8722" lon="6.43226">
        <ele>1628.5593</ele>
        <time>2013-12-08T09:40:39Z</time>
      </trkpt>
      <trkpt lat="45.8722" lon="6.43226">
        <ele>1628.5593</ele>
        <time>2013-12-08T09:40:43Z</time>
      </trkpt>
      <trkpt lat="45.8722" lon="6.43226">
        <ele>1628.5593</ele>
        <time>2013-12-08T09:40:48Z</time>
      </trkpt>
      <trkpt lat="45.8722" lon="6.43226">
        <ele>1628.5593</ele>
        <time>2013-12-08T09:40:53Z</time>
      </trkpt>
      <trkpt lat="45.87222" lon="6.4323">
        <ele>1628.5593</ele>
        <time>2013-12-08T09:40:58Z</time>
      </trkpt>
      <trkpt lat="45.87222" lon="6.43232">
        <ele>1628.5593</ele>
        <time>2013-12-08T09:41:03Z</time>
      </trkpt>
      <trkpt lat="45.87223" lon="6.43235">
        <ele>1632.6912</ele>
        <time>2013-12-08T09:41:08Z</time>
      </trkpt>
      <trkpt lat="45.87224" lon="6.43236">
        <ele>1632.6912</ele>
        <time>2013-12-08T09:41:13Z</time>
      </trkpt>
      <trkpt lat="45.87225" lon="6.43241">
        <ele>1632.6912</ele>
        <time>2013-12-08T09:41:18Z</time>
      </trkpt>
      <trkpt lat="45.87225" lon="6.43244">
        <ele>1632.6912</ele>
        <time>2013-12-08T09:41:23Z</time>
      </trkpt>
      <trkpt lat="45.87225" lon="6.43246">
        <ele>1632.6912</ele>
        <time>2013-12-08T09:41:28Z</time>
      </trkpt>
      <trkpt lat="45.87225" lon="6.43246">
        <ele>1632.6912</ele>
        <time>2013-12-08T09:41:33Z</time>
      </trkpt>
      <trkpt lat="45.87225" lon="6.43246">
        <ele>1632.6912</ele>
        <time>2013-12-08T09:41:39Z</time>
      </trkpt>
      <trkpt lat="45.87225" lon="6.43246">
        <ele>1632.6912</ele>
        <time>2013-12-08T09:41:43Z</time>
      </trkpt>
      <trkpt lat="45.87225" lon="6.43246">
        <ele>1632.6912</ele>
        <time>2013-12-08T09:41:48Z</time>
      </trkpt>
      <trkpt lat="45.87225" lon="6.43246">
        <ele>1632.6912</ele>
        <time>2013-12-08T09:41:54Z</time>
      </trkpt>
      <trkpt lat="45.87225" lon="6.43246">
        <ele>1632.6912</ele>
        <time>2013-12-08T09:41:58Z</time>
      </trkpt>
      <trkpt lat="45.87226" lon="6.43246">
        <ele>1632.6912</ele>
        <time>2013-12-08T09:42:03Z</time>
      </trkpt>
      <trkpt lat="45.87226" lon="6.43246">
        <ele>1632.6912</ele>
        <time>2013-12-08T09:42:09Z</time>
      </trkpt>
      <trkpt lat="45.87226" lon="6.43246">
        <ele>1632.6912</ele>
        <time>2013-12-08T09:42:13Z</time>
      </trkpt>
      <trkpt lat="45.87226" lon="6.43246">
        <ele>1632.6912</ele>
        <time>2013-12-08T09:42:18Z</time>
      </trkpt>
      <trkpt lat="45.87226" lon="6.43246">
        <ele>1632.6912</ele>
        <time>2013-12-08T09:42:24Z</time>
      </trkpt>
      <trkpt lat="45.87226" lon="6.43247">
        <ele>1632.6912</ele>
        <time>2013-12-08T09:42:28Z</time>
      </trkpt>
      <trkpt lat="45.87226" lon="6.43247">
        <ele>1632.6912</ele>
        <time>2013-12-08T09:42:33Z</time>
      </trkpt>
      <trkpt lat="45.87226" lon="6.43247">
        <ele>1632.6912</ele>
        <time>2013-12-08T09:42:38Z</time>
      </trkpt>
      <trkpt lat="45.87226" lon="6.43247">
        <ele>1632.6912</ele>
        <time>2013-12-08T09:42:43Z</time>
      </trkpt>
      <trkpt lat="45.87226" lon="6.43247">
        <ele>1632.6912</ele>
        <time>2013-12-08T09:42:48Z</time>
      </trkpt>
      <trkpt lat="45.87226" lon="6.43247">
        <ele>1632.6912</ele>
        <time>2013-12-08T09:42:53Z</time>
      </trkpt>
      <trkpt lat="45.87226" lon="6.43247">
        <ele>1632.6912</ele>
        <time>2013-12-08T09:42:58Z</time>
      </trkpt>
      <trkpt lat="45.87226" lon="6.43247">
        <ele>1632.6912</ele>
        <time>2013-12-08T09:43:03Z</time>
      </trkpt>
      <trkpt lat="45.87226" lon="6.43247">
        <ele>1632.6912</ele>
        <time>2013-12-08T09:43:08Z</time>
      </trkpt>
      <trkpt lat="45.87226" lon="6.43247">
        <ele>1632.6912</ele>
        <time>2013-12-08T09:43:13Z</time>
      </trkpt>
      <trkpt lat="45.87226" lon="6.43247">
        <ele>1632.6912</ele>
        <time>2013-12-08T09:43:19Z</time>
      </trkpt>
      <trkpt lat="45.87226" lon="6.43247">
        <ele>1632.6912</ele>
        <time>2013-12-08T09:43:23Z</time>
      </trkpt>
      <trkpt lat="45.87226" lon="6.43247">
        <ele>1632.6912</ele>
        <time>2013-12-08T09:43:28Z</time>
      </trkpt>
      <trkpt lat="45.87226" lon="6.43247">
        <ele>1632.6912</ele>
        <time>2013-12-08T09:43:33Z</time>
      </trkpt>
      <trkpt lat="45.87226" lon="6.43247">
        <ele>1632.6912</ele>
        <time>2013-12-08T09:43:39Z</time>
      </trkpt>
      <trkpt lat="45.87226" lon="6.43247">
        <ele>1632.6912</ele>
        <time>2013-12-08T09:43:43Z</time>
      </trkpt>
      <trkpt lat="45.87226" lon="6.43247">
        <ele>1632.6912</ele>
        <time>2013-12-08T09:43:48Z</time>
      </trkpt>
      <trkpt lat="45.87226" lon="6.43247">
        <ele>1632.6912</ele>
        <time>2013-12-08T09:43:54Z</time>
      </trkpt>
      <trkpt lat="45.87226" lon="6.43247">
        <ele>1632.6912</ele>
        <time>2013-12-08T09:43:58Z</time>
      </trkpt>
      <trkpt lat="45.87226" lon="6.43247">
        <ele>1632.6912</ele>
        <time>2013-12-08T09:44:03Z</time>
      </trkpt>
      <trkpt lat="45.87226" lon="6.43247">
        <ele>1632.6912</ele>
        <time>2013-12-08T09:44:13Z</time>
      </trkpt>
      <trkpt lat="45.87226" lon="6.43248">
        <ele>1637.077</ele>
        <time>2013-12-08T09:44:18Z</time>
      </trkpt>
      <trkpt lat="45.87229" lon="6.43252">
        <ele>1637.077</ele>
        <time>2013-12-08T09:44:28Z</time>
      </trkpt>
      <trkpt lat="45.8723" lon="6.43252">
        <ele>1637.077</ele>
        <time>2013-12-08T09:44:33Z</time>
      </trkpt>
      <trkpt lat="45.8723" lon="6.43252">
        <ele>1637.077</ele>
        <time>2013-12-08T09:44:39Z</time>
      </trkpt>
      <trkpt lat="45.8723" lon="6.43252">
        <ele>1637.077</ele>
        <time>2013-12-08T09:44:43Z</time>
      </trkpt>
      <trkpt lat="45.8723" lon="6.43252">
        <ele>1637.077</ele>
        <time>2013-12-08T09:44:48Z</time>
      </trkpt>
      <trkpt lat="45.8723" lon="6.43252">
        <ele>1637.077</ele>
        <time>2013-12-08T09:44:58Z</time>
      </trkpt>
      <trkpt lat="45.8723" lon="6.43252">
        <ele>1637.077</ele>
        <time>2013-12-08T09:45:03Z</time>
      </trkpt>
      <trkpt lat="45.8723" lon="6.43252">
        <ele>1637.077</ele>
        <time>2013-12-08T09:45:09Z</time>
      </trkpt>
      <trkpt lat="45.8723" lon="6.43253">
        <ele>1637.077</ele>
        <time>2013-12-08T09:45:13Z</time>
      </trkpt>
      <trkpt lat="45.87231" lon="6.43255">
        <ele>1637.077</ele>
        <time>2013-12-08T09:45:18Z</time>
      </trkpt>
      <trkpt lat="45.87232" lon="6.43256">
        <ele>1637.077</ele>
        <time>2013-12-08T09:45:24Z</time>
      </trkpt>
      <trkpt lat="45.87236" lon="6.4326">
        <ele>1641.4615</ele>
        <time>2013-12-08T09:45:28Z</time>
      </trkpt>
      <trkpt lat="45.87236" lon="6.43262">
        <ele>1641.4615</ele>
        <time>2013-12-08T09:45:33Z</time>
      </trkpt>
      <trkpt lat="45.87237" lon="6.43262">
        <ele>1641.4615</ele>
        <time>2013-12-08T09:45:39Z</time>
      </trkpt>
      <trkpt lat="45.87238" lon="6.43264">
        <ele>1641.4615</ele>
        <time>2013-12-08T09:45:43Z</time>
      </trkpt>
      <trkpt lat="45.87239" lon="6.43267">
        <ele>1641.4615</ele>
        <time>2013-12-08T09:45:48Z</time>
      </trkpt>
      <trkpt lat="45.87238" lon="6.43269">
        <ele>1641.4615</ele>
        <time>2013-12-08T09:45:54Z</time>
      </trkpt>
      <trkpt lat="45.87237" lon="6.43269">
        <ele>1641.4615</ele>
        <time>2013-12-08T09:45:58Z</time>
      </trkpt>
      <trkpt lat="45.87237" lon="6.4327">
        <ele>1641.4615</ele>
        <time>2013-12-08T09:46:03Z</time>
      </trkpt>
      <trkpt lat="45.87236" lon="6.4327">
        <ele>1646.1559</ele>
        <time>2013-12-08T09:46:09Z</time>
      </trkpt>
      <trkpt lat="45.87233" lon="6.43269">
        <ele>1646.1559</ele>
        <time>2013-12-08T09:46:13Z</time>
      </trkpt>
      <trkpt lat="45.87232" lon="6.43269">
        <ele>1646.1559</ele>
        <time>2013-12-08T09:46:18Z</time>
      </trkpt>
      <trkpt lat="45.8723" lon="6.43269">
        <ele>1646.1559</ele>
        <time>2013-12-08T09:46:24Z</time>
      </trkpt>
      <trkpt lat="45.87228" lon="6.43269">
        <ele>1646.1559</ele>
        <time>2013-12-08T09:46:28Z</time>
      </trkpt>
      <trkpt lat="45.87225" lon="6.43269">
        <ele>1650.9</ele>
        <time>2013-12-08T09:46:33Z</time>
      </trkpt>
      <trkpt lat="45.87223" lon="6.43268">
        <ele>1650.9</ele>
        <time>2013-12-08T09:46:38Z</time>
      </trkpt>
      <trkpt lat="45.87222" lon="6.43268">
        <ele>1650.9</ele>
        <time>2013-12-08T09:46:43Z</time>
      </trkpt>
      <trkpt lat="45.87219" lon="6.43268">
        <ele>1650.9</ele>
        <time>2013-12-08T09:46:49Z</time>
      </trkpt>
      <trkpt lat="45.87216" lon="6.43269">
        <ele>1654.9052</ele>
        <time>2013-12-08T09:46:53Z</time>
      </trkpt>
      <trkpt lat="45.87213" lon="6.43269">
        <ele>1654.9052</ele>
        <time>2013-12-08T09:46:58Z</time>
      </trkpt>
      <trkpt lat="45.87211" lon="6.43268">
        <ele>1654.9052</ele>
        <time>2013-12-08T09:47:04Z</time>
      </trkpt>
      <trkpt lat="45.8721" lon="6.43268">
        <ele>1654.9052</ele>
        <time>2013-12-08T09:47:08Z</time>
      </trkpt>
      <trkpt lat="45.87207" lon="6.43267">
        <ele>1659.0426</ele>
        <time>2013-12-08T09:47:13Z</time>
      </trkpt>
      <trkpt lat="45.87206" lon="6.43266">
        <ele>1659.0426</ele>
        <time>2013-12-08T09:47:19Z</time>
      </trkpt>
      <trkpt lat="45.87203" lon="6.43265">
        <ele>1659.0426</ele>
        <time>2013-12-08T09:47:23Z</time>
      </trkpt>
      <trkpt lat="45.87201" lon="6.43264">
        <ele>1659.0426</ele>
        <time>2013-12-08T09:47:28Z</time>
      </trkpt>
      <trkpt lat="45.87202" lon="6.43268">
        <ele>1659.0426</ele>
        <time>2013-12-08T09:47:33Z</time>
      </trkpt>
      <trkpt lat="45.87202" lon="6.4327">
        <ele>1663.211</ele>
        <time>2013-12-08T09:47:38Z</time>
      </trkpt>
      <trkpt lat="45.87202" lon="6.43271">
        <ele>1663.211</ele>
        <time>2013-12-08T09:47:43Z</time>
      </trkpt>
      <trkpt lat="45.87202" lon="6.43272">
        <ele>1663.211</ele>
        <time>2013-12-08T09:47:48Z</time>
      </trkpt>
      <trkpt lat="45.87202" lon="6.43273">
        <ele>1663.211</ele>
        <time>2013-12-08T09:47:53Z</time>
      </trkpt>
      <trkpt lat="45.87202" lon="6.43274">
        <ele>1663.211</ele>
        <time>2013-12-08T09:47:58Z</time>
      </trkpt>
      <trkpt lat="45.87202" lon="6.43275">
        <ele>1663.211</ele>
        <time>2013-12-08T09:48:04Z</time>
      </trkpt>
      <trkpt lat="45.87204" lon="6.43277">
        <ele>1663.211</ele>
        <time>2013-12-08T09:48:08Z</time>
      </trkpt>
      <trkpt lat="45.87204" lon="6.43277">
        <ele>1663.211</ele>
        <time>2013-12-08T09:48:13Z</time>
      </trkpt>
      <trkpt lat="45.87204" lon="6.43278">
        <ele>1663.211</ele>
        <time>2013-12-08T09:48:18Z</time>
      </trkpt>
      <trkpt lat="45.87204" lon="6.43279">
        <ele>1663.211</ele>
        <time>2013-12-08T09:48:23Z</time>
      </trkpt>
      <trkpt lat="45.87205" lon="6.43281">
        <ele>1663.211</ele>
        <time>2013-12-08T09:48:28Z</time>
      </trkpt>
      <trkpt lat="45.87205" lon="6.43283">
        <ele>1666.6687</ele>
        <time>2013-12-08T09:48:33Z</time>
      </trkpt>
      <trkpt lat="45.87206" lon="6.43285">
        <ele>1666.6687</ele>
        <time>2013-12-08T09:48:38Z</time>
      </trkpt>
      <trkpt lat="45.87206" lon="6.43285">
        <ele>1666.6687</ele>
        <time>2013-12-08T09:48:43Z</time>
      </trkpt>
      <trkpt lat="45.87207" lon="6.43286">
        <ele>1666.6687</ele>
        <time>2013-12-08T09:48:48Z</time>
      </trkpt>
      <trkpt lat="45.87207" lon="6.43288">
        <ele>1666.6687</ele>
        <time>2013-12-08T09:48:54Z</time>
      </trkpt>
      <trkpt lat="45.87208" lon="6.4329">
        <ele>1666.6687</ele>
        <time>2013-12-08T09:48:58Z</time>
      </trkpt>
      <trkpt lat="45.87208" lon="6.43295">
        <ele>1670.0702</ele>
        <time>2013-12-08T09:49:03Z</time>
      </trkpt>
      <trkpt lat="45.87208" lon="6.43298">
        <ele>1670.0702</ele>
        <time>2013-12-08T09:49:09Z</time>
      </trkpt>
      <trkpt lat="45.87208" lon="6.433">
        <ele>1670.0702</ele>
        <time>2013-12-08T09:49:13Z</time>
      </trkpt>
      <trkpt lat="45.87208" lon="6.43301">
        <ele>1670.0702</ele>
        <time>2013-12-08T09:49:18Z</time>
      </trkpt>
      <trkpt lat="45.87208" lon="6.43301">
        <ele>1670.0702</ele>
        <time>2013-12-08T09:49:23Z</time>
      </trkpt>
      <trkpt lat="45.87208" lon="6.43301">
        <ele>1670.0702</ele>
        <time>2013-12-08T09:49:28Z</time>
      </trkpt>
      <trkpt lat="45.87208" lon="6.43301">
        <ele>1670.0702</ele>
        <time>2013-12-08T09:49:33Z</time>
      </trkpt>
      <trkpt lat="45.87208" lon="6.43301">
        <ele>1670.0702</ele>
        <time>2013-12-08T09:49:38Z</time>
      </trkpt>
      <trkpt lat="45.87208" lon="6.43301">
        <ele>1670.0702</ele>
        <time>2013-12-08T09:49:43Z</time>
      </trkpt>
      <trkpt lat="45.87208" lon="6.43301">
        <ele>1670.0702</ele>
        <time>2013-12-08T09:49:48Z</time>
      </trkpt>
      <trkpt lat="45.87208" lon="6.43301">
        <ele>1670.0702</ele>
        <time>2013-12-08T09:49:53Z</time>
      </trkpt>
      <trkpt lat="45.87209" lon="6.43301">
        <ele>1670.0702</ele>
        <time>2013-12-08T09:49:58Z</time>
      </trkpt>
      <trkpt lat="45.87209" lon="6.43301">
        <ele>1670.0702</ele>
        <time>2013-12-08T09:50:03Z</time>
      </trkpt>
      <trkpt lat="45.87209" lon="6.43301">
        <ele>1670.0702</ele>
        <time>2013-12-08T09:50:08Z</time>
      </trkpt>
      <trkpt lat="45.87209" lon="6.43301">
        <ele>1670.0702</ele>
        <time>2013-12-08T09:50:13Z</time>
      </trkpt>
      <trkpt lat="45.87209" lon="6.43301">
        <ele>1670.0702</ele>
        <time>2013-12-08T09:50:18Z</time>
      </trkpt>
      <trkpt lat="45.87209" lon="6.43301">
        <ele>1670.0702</ele>
        <time>2013-12-08T09:50:23Z</time>
      </trkpt>
      <trkpt lat="45.87209" lon="6.43301">
        <ele>1670.0702</ele>
        <time>2013-12-08T09:50:28Z</time>
      </trkpt>
      <trkpt lat="45.87209" lon="6.43301">
        <ele>1670.0702</ele>
        <time>2013-12-08T09:50:33Z</time>
      </trkpt>
      <trkpt lat="45.87208" lon="6.43302">
        <ele>1670.0702</ele>
        <time>2013-12-08T09:50:38Z</time>
      </trkpt>
      <trkpt lat="45.87208" lon="6.43303">
        <ele>1670.0702</ele>
        <time>2013-12-08T09:50:48Z</time>
      </trkpt>
      <trkpt lat="45.87208" lon="6.43303">
        <ele>1670.0702</ele>
        <time>2013-12-08T09:50:53Z</time>
      </trkpt>
      <trkpt lat="45.87208" lon="6.43304">
        <ele>1670.0702</ele>
        <time>2013-12-08T09:51:03Z</time>
      </trkpt>
      <trkpt lat="45.87208" lon="6.43304">
        <ele>1670.0702</ele>
        <time>2013-12-08T09:51:08Z</time>
      </trkpt>
      <trkpt lat="45.87208" lon="6.43304">
        <ele>1670.0702</ele>
        <time>2013-12-08T09:51:13Z</time>
      </trkpt>
      <trkpt lat="45.87208" lon="6.43304">
        <ele>1670.0702</ele>
        <time>2013-12-08T09:51:18Z</time>
      </trkpt>
      <trkpt lat="45.87208" lon="6.43303">
        <ele>1670.0702</ele>
        <time>2013-12-08T09:51:23Z</time>
      </trkpt>
      <trkpt lat="45.87209" lon="6.43303">
        <ele>1670.0702</ele>
        <time>2013-12-08T09:51:33Z</time>
      </trkpt>
      <trkpt lat="45.87209" lon="6.43303">
        <ele>1670.0702</ele>
        <time>2013-12-08T09:51:38Z</time>
      </trkpt>
      <trkpt lat="45.87209" lon="6.43303">
        <ele>1670.0702</ele>
        <time>2013-12-08T09:51:44Z</time>
      </trkpt>
      <trkpt lat="45.87209" lon="6.43303">
        <ele>1670.0702</ele>
        <time>2013-12-08T09:51:48Z</time>
      </trkpt>
      <trkpt lat="45.87209" lon="6.43303">
        <ele>1670.0702</ele>
        <time>2013-12-08T09:51:53Z</time>
      </trkpt>
      <trkpt lat="45.87209" lon="6.43303">
        <ele>1670.0702</ele>
        <time>2013-12-08T09:52:03Z</time>
      </trkpt>
      <trkpt lat="45.87209" lon="6.43303">
        <ele>1670.0702</ele>
        <time>2013-12-08T09:52:08Z</time>
      </trkpt>
      <trkpt lat="45.87209" lon="6.43303">
        <ele>1670.0702</ele>
        <time>2013-12-08T09:52:14Z</time>
      </trkpt>
      <trkpt lat="45.87209" lon="6.43303">
        <ele>1670.0702</ele>
        <time>2013-12-08T09:52:18Z</time>
      </trkpt>
      <trkpt lat="45.87209" lon="6.43303">
        <ele>1670.0702</ele>
        <time>2013-12-08T09:52:23Z</time>
      </trkpt>
      <trkpt lat="45.87209" lon="6.43303">
        <ele>1670.0702</ele>
        <time>2013-12-08T09:52:29Z</time>
      </trkpt>
      <trkpt lat="45.87209" lon="6.43303">
        <ele>1670.0702</ele>
        <time>2013-12-08T09:52:33Z</time>
      </trkpt>
      <trkpt lat="45.87209" lon="6.43303">
        <ele>1670.0702</ele>
        <time>2013-12-08T09:52:38Z</time>
      </trkpt>
      <trkpt lat="45.87209" lon="6.43303">
        <ele>1670.0702</ele>
        <time>2013-12-08T09:52:44Z</time>
      </trkpt>
      <trkpt lat="45.87209" lon="6.43303">
        <ele>1670.0702</ele>
        <time>2013-12-08T09:52:48Z</time>
      </trkpt>
      <trkpt lat="45.87209" lon="6.43303">
        <ele>1670.0702</ele>
        <time>2013-12-08T09:52:53Z</time>
      </trkpt>
      <trkpt lat="45.87209" lon="6.43303">
        <ele>1670.0702</ele>
        <time>2013-12-08T09:53:00Z</time>
      </trkpt>
      <trkpt lat="45.87209" lon="6.43303">
        <ele>1670.0702</ele>
        <time>2013-12-08T09:53:03Z</time>
      </trkpt>
      <trkpt lat="45.87209" lon="6.43303">
        <ele>1670.0702</ele>
        <time>2013-12-08T09:53:08Z</time>
      </trkpt>
      <trkpt lat="45.87209" lon="6.43303">
        <ele>1670.0702</ele>
        <time>2013-12-08T09:53:14Z</time>
      </trkpt>
      <trkpt lat="45.87209" lon="6.43303">
        <ele>1670.0702</ele>
        <time>2013-12-08T09:53:23Z</time>
      </trkpt>
      <trkpt lat="45.87209" lon="6.43303">
        <ele>1670.0702</ele>
        <time>2013-12-08T09:53:28Z</time>
      </trkpt>
      <trkpt lat="45.87209" lon="6.43303">
        <ele>1670.0702</ele>
        <time>2013-12-08T09:53:33Z</time>
      </trkpt>
      <trkpt lat="45.87209" lon="6.43303">
        <ele>1670.0702</ele>
        <time>2013-12-08T09:53:39Z</time>
      </trkpt>
      <trkpt lat="45.87209" lon="6.43303">
        <ele>1670.0702</ele>
        <time>2013-12-08T09:53:43Z</time>
      </trkpt>
      <trkpt lat="45.87209" lon="6.43303">
        <ele>1670.0702</ele>
        <time>2013-12-08T09:53:48Z</time>
      </trkpt>
      <trkpt lat="45.87209" lon="6.43303">
        <ele>1670.0702</ele>
        <time>2013-12-08T09:53:53Z</time>
      </trkpt>
      <trkpt lat="45.87209" lon="6.43303">
        <ele>1670.0702</ele>
        <time>2013-12-08T09:54:03Z</time>
      </trkpt>
      <trkpt lat="45.87209" lon="6.43303">
        <ele>1670.0702</ele>
        <time>2013-12-08T09:54:08Z</time>
      </trkpt>
      <trkpt lat="45.87209" lon="6.43303">
        <ele>1670.0702</ele>
        <time>2013-12-08T09:54:14Z</time>
      </trkpt>
      <trkpt lat="45.87209" lon="6.43303">
        <ele>1670.0702</ele>
        <time>2013-12-08T09:54:18Z</time>
      </trkpt>
      <trkpt lat="45.87209" lon="6.43303">
        <ele>1670.0702</ele>
        <time>2013-12-08T09:54:23Z</time>
      </trkpt>
      <trkpt lat="45.87209" lon="6.43303">
        <ele>1670.0702</ele>
        <time>2013-12-08T09:54:29Z</time>
      </trkpt>
      <trkpt lat="45.87209" lon="6.43303">
        <ele>1670.0702</ele>
        <time>2013-12-08T09:54:33Z</time>
      </trkpt>
      <trkpt lat="45.87209" lon="6.43303">
        <ele>1670.0702</ele>
        <time>2013-12-08T09:54:38Z</time>
      </trkpt>
      <trkpt lat="45.87209" lon="6.43303">
        <ele>1670.0702</ele>
        <time>2013-12-08T09:54:44Z</time>
      </trkpt>
      <trkpt lat="45.87208" lon="6.43302">
        <ele>1670.0702</ele>
        <time>2013-12-08T09:54:48Z</time>
      </trkpt>
      <trkpt lat="45.87209" lon="6.43304">
        <ele>1674.0946</ele>
        <time>2013-12-08T09:54:53Z</time>
      </trkpt>
      <trkpt lat="45.87209" lon="6.43305">
        <ele>1674.0946</ele>
        <time>2013-12-08T09:54:59Z</time>
      </trkpt>
      <trkpt lat="45.87209" lon="6.43307">
        <ele>1674.0946</ele>
        <time>2013-12-08T09:55:03Z</time>
      </trkpt>
      <trkpt lat="45.87209" lon="6.43307">
        <ele>1674.0946</ele>
        <time>2013-12-08T09:55:08Z</time>
      </trkpt>
      <trkpt lat="45.8721" lon="6.43307">
        <ele>1674.0946</ele>
        <time>2013-12-08T09:55:14Z</time>
      </trkpt>
      <trkpt lat="45.87209" lon="6.43307">
        <ele>1674.0946</ele>
        <time>2013-12-08T09:55:18Z</time>
      </trkpt>
      <trkpt lat="45.87206" lon="6.43307">
        <ele>1674.0946</ele>
        <time>2013-12-08T09:55:23Z</time>
      </trkpt>
      <trkpt lat="45.87206" lon="6.43308">
        <ele>1674.0946</ele>
        <time>2013-12-08T09:55:29Z</time>
      </trkpt>
      <trkpt lat="45.872" lon="6.43309">
        <ele>1677.7843</ele>
        <time>2013-12-08T09:55:33Z</time>
      </trkpt>
      <trkpt lat="45.87197" lon="6.4331">
        <ele>1677.7843</ele>
        <time>2013-12-08T09:55:38Z</time>
      </trkpt>
      <trkpt lat="45.87196" lon="6.4331">
        <ele>1677.7843</ele>
        <time>2013-12-08T09:55:44Z</time>
      </trkpt>
      <trkpt lat="45.87189" lon="6.43309">
        <ele>1681.8237</ele>
        <time>2013-12-08T09:55:48Z</time>
      </trkpt>
      <trkpt lat="45.87186" lon="6.43309">
        <ele>1681.8237</ele>
        <time>2013-12-08T09:55:53Z</time>
      </trkpt>
      <trkpt lat="45.87186" lon="6.43309">
        <ele>1681.8237</ele>
        <time>2013-12-08T09:55:59Z</time>
      </trkpt>
      <trkpt lat="45.87182" lon="6.43311">
        <ele>1681.8237</ele>
        <time>2013-12-08T09:56:03Z</time>
      </trkpt>
      <trkpt lat="45.8718" lon="6.43311">
        <ele>1685.6215</ele>
        <time>2013-12-08T09:56:08Z</time>
      </trkpt>
      <trkpt lat="45.8718" lon="6.43311">
        <ele>1685.6215</ele>
        <time>2013-12-08T09:56:14Z</time>
      </trkpt>
      <trkpt lat="45.87175" lon="6.43309">
        <ele>1685.6215</ele>
        <time>2013-12-08T09:56:18Z</time>
      </trkpt>
      <trkpt lat="45.87172" lon="6.43309">
        <ele>1685.6215</ele>
        <time>2013-12-08T09:56:23Z</time>
      </trkpt>
      <trkpt lat="45.87172" lon="6.43309">
        <ele>1685.6215</ele>
        <time>2013-12-08T09:56:29Z</time>
      </trkpt>
      <trkpt lat="45.87168" lon="6.43308">
        <ele>1689.0048</ele>
        <time>2013-12-08T09:56:33Z</time>
      </trkpt>
      <trkpt lat="45.87165" lon="6.43307">
        <ele>1689.0048</ele>
        <time>2013-12-08T09:56:38Z</time>
      </trkpt>
      <trkpt lat="45.87163" lon="6.43306">
        <ele>1689.0048</ele>
        <time>2013-12-08T09:56:43Z</time>
      </trkpt>
      <trkpt lat="45.87162" lon="6.43306">
        <ele>1689.0048</ele>
        <time>2013-12-08T09:56:48Z</time>
      </trkpt>
      <trkpt lat="45.87163" lon="6.43311">
        <ele>1689.0048</ele>
        <time>2013-12-08T09:56:53Z</time>
      </trkpt>
      <trkpt lat="45.87163" lon="6.43312">
        <ele>1691.9017</ele>
        <time>2013-12-08T09:56:58Z</time>
      </trkpt>
      <trkpt lat="45.87163" lon="6.43316">
        <ele>1691.9017</ele>
        <time>2013-12-08T09:57:03Z</time>
      </trkpt>
      <trkpt lat="45.87164" lon="6.43317">
        <ele>1691.9017</ele>
        <time>2013-12-08T09:57:09Z</time>
      </trkpt>
      <trkpt lat="45.87164" lon="6.43319">
        <ele>1691.9017</ele>
        <time>2013-12-08T09:57:13Z</time>
      </trkpt>
      <trkpt lat="45.87164" lon="6.43319">
        <ele>1691.9017</ele>
        <time>2013-12-08T09:57:18Z</time>
      </trkpt>
      <trkpt lat="45.87164" lon="6.43319">
        <ele>1691.9017</ele>
        <time>2013-12-08T09:57:24Z</time>
      </trkpt>
      <trkpt lat="45.87161" lon="6.4332">
        <ele>1691.9017</ele>
        <time>2013-12-08T09:57:28Z</time>
      </trkpt>
      <trkpt lat="45.8716" lon="6.4332">
        <ele>1691.9017</ele>
        <time>2013-12-08T09:57:33Z</time>
      </trkpt>
      <trkpt lat="45.8716" lon="6.4332">
        <ele>1691.9017</ele>
        <time>2013-12-08T09:57:39Z</time>
      </trkpt>
      <trkpt lat="45.87158" lon="6.43322">
        <ele>1695.3278</ele>
        <time>2013-12-08T09:57:43Z</time>
      </trkpt>
      <trkpt lat="45.87156" lon="6.43324">
        <ele>1695.3278</ele>
        <time>2013-12-08T09:57:48Z</time>
      </trkpt>
      <trkpt lat="45.87152" lon="6.43322">
        <ele>1695.3278</ele>
        <time>2013-12-08T09:57:58Z</time>
      </trkpt>
      <trkpt lat="45.87149" lon="6.43323">
        <ele>1698.8531</ele>
        <time>2013-12-08T09:58:03Z</time>
      </trkpt>
      <trkpt lat="45.87147" lon="6.43324">
        <ele>1698.8531</ele>
        <time>2013-12-08T09:58:09Z</time>
      </trkpt>
      <trkpt lat="45.87144" lon="6.43325">
        <ele>1698.8531</ele>
        <time>2013-12-08T09:58:13Z</time>
      </trkpt>
      <trkpt lat="45.87143" lon="6.43325">
        <ele>1698.8531</ele>
        <time>2013-12-08T09:58:18Z</time>
      </trkpt>
      <trkpt lat="45.87142" lon="6.43326">
        <ele>1698.8531</ele>
        <time>2013-12-08T09:58:24Z</time>
      </trkpt>
      <trkpt lat="45.87137" lon="6.43326">
        <ele>1702.3826</ele>
        <time>2013-12-08T09:58:28Z</time>
      </trkpt>
      <trkpt lat="45.87133" lon="6.43326">
        <ele>1702.3826</ele>
        <time>2013-12-08T09:58:33Z</time>
      </trkpt>
      <trkpt lat="45.87132" lon="6.43326">
        <ele>1702.3826</ele>
        <time>2013-12-08T09:58:39Z</time>
      </trkpt>
      <trkpt lat="45.87129" lon="6.43326">
        <ele>1702.3826</ele>
        <time>2013-12-08T09:58:43Z</time>
      </trkpt>
      <trkpt lat="45.87127" lon="6.43325">
        <ele>1706.0293</ele>
        <time>2013-12-08T09:58:48Z</time>
      </trkpt>
      <trkpt lat="45.87126" lon="6.43325">
        <ele>1706.0293</ele>
        <time>2013-12-08T09:58:54Z</time>
      </trkpt>
      <trkpt lat="45.87122" lon="6.43324">
        <ele>1706.0293</ele>
        <time>2013-12-08T09:58:58Z</time>
      </trkpt>
      <trkpt lat="45.8712" lon="6.43325">
        <ele>1706.0293</ele>
        <time>2013-12-08T09:59:03Z</time>
      </trkpt>
      <trkpt lat="45.8712" lon="6.43325">
        <ele>1706.0293</ele>
        <time>2013-12-08T09:59:08Z</time>
      </trkpt>
      <trkpt lat="45.87115" lon="6.43323">
        <ele>1709.538</ele>
        <time>2013-12-08T09:59:13Z</time>
      </trkpt>
      <trkpt lat="45.87112" lon="6.43322">
        <ele>1709.538</ele>
        <time>2013-12-08T09:59:18Z</time>
      </trkpt>
      <trkpt lat="45.87111" lon="6.43322">
        <ele>1709.538</ele>
        <time>2013-12-08T09:59:24Z</time>
      </trkpt>
      <trkpt lat="45.87106" lon="6.43319">
        <ele>1709.538</ele>
        <time>2013-12-08T09:59:28Z</time>
      </trkpt>
      <trkpt lat="45.87104" lon="6.43319">
        <ele>1713.2343</ele>
        <time>2013-12-08T09:59:33Z</time>
      </trkpt>
      <trkpt lat="45.87103" lon="6.43318">
        <ele>1713.2343</ele>
        <time>2013-12-08T09:59:38Z</time>
      </trkpt>
      <trkpt lat="45.87103" lon="6.43318">
        <ele>1713.2343</ele>
        <time>2013-12-08T09:59:43Z</time>
      </trkpt>
      <trkpt lat="45.87103" lon="6.43322">
        <ele>1713.2343</ele>
        <time>2013-12-08T09:59:48Z</time>
      </trkpt>
      <trkpt lat="45.87104" lon="6.43323">
        <ele>1713.2343</ele>
        <time>2013-12-08T09:59:53Z</time>
      </trkpt>
      <trkpt lat="45.87104" lon="6.43324">
        <ele>1713.2343</ele>
        <time>2013-12-08T09:59:58Z</time>
      </trkpt>
      <trkpt lat="45.87104" lon="6.43326">
        <ele>1713.2343</ele>
        <time>2013-12-08T10:00:03Z</time>
      </trkpt>
      <trkpt lat="45.87102" lon="6.43327">
        <ele>1716.3676</ele>
        <time>2013-12-08T10:00:08Z</time>
      </trkpt>
      <trkpt lat="45.87102" lon="6.43328">
        <ele>1716.3676</ele>
        <time>2013-12-08T10:00:13Z</time>
      </trkpt>
      <trkpt lat="45.87101" lon="6.43328">
        <ele>1716.3676</ele>
        <time>2013-12-08T10:00:19Z</time>
      </trkpt>
      <trkpt lat="45.871" lon="6.43328">
        <ele>1716.3676</ele>
        <time>2013-12-08T10:00:23Z</time>
      </trkpt>
      <trkpt lat="45.87098" lon="6.43329">
        <ele>1716.3676</ele>
        <time>2013-12-08T10:00:28Z</time>
      </trkpt>
      <trkpt lat="45.87095" lon="6.4333">
        <ele>1716.3676</ele>
        <time>2013-12-08T10:00:33Z</time>
      </trkpt>
      <trkpt lat="45.87092" lon="6.43331">
        <ele>1719.2098</ele>
        <time>2013-12-08T10:00:38Z</time>
      </trkpt>
      <trkpt lat="45.87091" lon="6.43333">
        <ele>1719.2098</ele>
        <time>2013-12-08T10:00:43Z</time>
      </trkpt>
      <trkpt lat="45.87091" lon="6.43336">
        <ele>1719.2098</ele>
        <time>2013-12-08T10:00:48Z</time>
      </trkpt>
      <trkpt lat="45.87091" lon="6.43336">
        <ele>1719.2098</ele>
        <time>2013-12-08T10:00:54Z</time>
      </trkpt>
      <trkpt lat="45.87092" lon="6.4334">
        <ele>1719.2098</ele>
        <time>2013-12-08T10:00:58Z</time>
      </trkpt>
      <trkpt lat="45.87093" lon="6.43341">
        <ele>1719.2098</ele>
        <time>2013-12-08T10:01:03Z</time>
      </trkpt>
      <trkpt lat="45.87093" lon="6.43342">
        <ele>1719.2098</ele>
        <time>2013-12-08T10:01:09Z</time>
      </trkpt>
      <trkpt lat="45.87094" lon="6.43346">
        <ele>1721.596</ele>
        <time>2013-12-08T10:01:13Z</time>
      </trkpt>
      <trkpt lat="45.87096" lon="6.43349">
        <ele>1721.596</ele>
        <time>2013-12-08T10:01:18Z</time>
      </trkpt>
      <trkpt lat="45.87096" lon="6.4335">
        <ele>1721.596</ele>
        <time>2013-12-08T10:01:24Z</time>
      </trkpt>
      <trkpt lat="45.87099" lon="6.43354">
        <ele>1721.596</ele>
        <time>2013-12-08T10:01:33Z</time>
      </trkpt>
      <trkpt lat="45.87099" lon="6.43354">
        <ele>1721.596</ele>
        <time>2013-12-08T10:01:38Z</time>
      </trkpt>
      <trkpt lat="45.87099" lon="6.43354">
        <ele>1721.596</ele>
        <time>2013-12-08T10:01:43Z</time>
      </trkpt>
      <trkpt lat="45.87099" lon="6.43355">
        <ele>1721.596</ele>
        <time>2013-12-08T10:01:48Z</time>
      </trkpt>
      <trkpt lat="45.871" lon="6.43357">
        <ele>1723.8784</ele>
        <time>2013-12-08T10:01:53Z</time>
      </trkpt>
      <trkpt lat="45.87101" lon="6.43359">
        <ele>1723.8784</ele>
        <time>2013-12-08T10:01:59Z</time>
      </trkpt>
      <trkpt lat="45.87103" lon="6.43363">
        <ele>1723.8784</ele>
        <time>2013-12-08T10:02:03Z</time>
      </trkpt>
      <trkpt lat="45.87104" lon="6.43365">
        <ele>1723.8784</ele>
        <time>2013-12-08T10:02:08Z</time>
      </trkpt>
      <trkpt lat="45.87105" lon="6.43366">
        <ele>1723.8784</ele>
        <time>2013-12-08T10:02:14Z</time>
      </trkpt>
      <trkpt lat="45.87106" lon="6.43372">
        <ele>1726.4564</ele>
        <time>2013-12-08T10:02:18Z</time>
      </trkpt>
      <trkpt lat="45.87107" lon="6.43375">
        <ele>1726.4564</ele>
        <time>2013-12-08T10:02:23Z</time>
      </trkpt>
      <trkpt lat="45.87108" lon="6.43376">
        <ele>1726.4564</ele>
        <time>2013-12-08T10:02:29Z</time>
      </trkpt>
      <trkpt lat="45.87109" lon="6.43377">
        <ele>1726.4564</ele>
        <time>2013-12-08T10:02:33Z</time>
      </trkpt>
      <trkpt lat="45.8711" lon="6.4338">
        <ele>1726.4564</ele>
        <time>2013-12-08T10:02:38Z</time>
      </trkpt>
      <trkpt lat="45.8711" lon="6.43384">
        <ele>1728.5464</ele>
        <time>2013-12-08T10:02:43Z</time>
      </trkpt>
      <trkpt lat="45.8711" lon="6.43387">
        <ele>1728.5464</ele>
        <time>2013-12-08T10:02:48Z</time>
      </trkpt>
      <trkpt lat="45.8711" lon="6.43389">
        <ele>1728.5464</ele>
        <time>2013-12-08T10:02:53Z</time>
      </trkpt>
      <trkpt lat="45.87111" lon="6.4339">
        <ele>1728.5464</ele>
        <time>2013-12-08T10:02:59Z</time>
      </trkpt>
      <trkpt lat="45.87111" lon="6.43393">
        <ele>1728.5464</ele>
        <time>2013-12-08T10:03:03Z</time>
      </trkpt>
      <trkpt lat="45.8711" lon="6.43395">
        <ele>1728.5464</ele>
        <time>2013-12-08T10:03:08Z</time>
      </trkpt>
      <trkpt lat="45.87108" lon="6.43399">
        <ele>1730.7637</ele>
        <time>2013-12-08T10:03:13Z</time>
      </trkpt>
      <trkpt lat="45.87107" lon="6.43401">
        <ele>1730.7637</ele>
        <time>2013-12-08T10:03:18Z</time>
      </trkpt>
      <trkpt lat="45.87104" lon="6.43402">
        <ele>1730.7637</ele>
        <time>2013-12-08T10:03:23Z</time>
      </trkpt>
      <trkpt lat="45.87103" lon="6.43403">
        <ele>1730.7637</ele>
        <time>2013-12-08T10:03:29Z</time>
      </trkpt>
      <trkpt lat="45.871" lon="6.43403">
        <ele>1730.7637</ele>
        <time>2013-12-08T10:03:33Z</time>
      </trkpt>
      <trkpt lat="45.87098" lon="6.43404">
        <ele>1733.2603</ele>
        <time>2013-12-08T10:03:38Z</time>
      </trkpt>
      <trkpt lat="45.87097" lon="6.43404">
        <ele>1733.2603</ele>
        <time>2013-12-08T10:03:44Z</time>
      </trkpt>
      <trkpt lat="45.87093" lon="6.43404">
        <ele>1733.2603</ele>
        <time>2013-12-08T10:03:48Z</time>
      </trkpt>
      <trkpt lat="45.87091" lon="6.43405">
        <ele>1733.2603</ele>
        <time>2013-12-08T10:03:53Z</time>
      </trkpt>
      <trkpt lat="45.8709" lon="6.43406">
        <ele>1733.2603</ele>
        <time>2013-12-08T10:03:59Z</time>
      </trkpt>
      <trkpt lat="45.87087" lon="6.43406">
        <ele>1736.4788</ele>
        <time>2013-12-08T10:04:03Z</time>
      </trkpt>
      <trkpt lat="45.87084" lon="6.43407">
        <ele>1736.4788</ele>
        <time>2013-12-08T10:04:08Z</time>
      </trkpt>
      <trkpt lat="45.87081" lon="6.43408">
        <ele>1736.4788</ele>
        <time>2013-12-08T10:04:14Z</time>
      </trkpt>
      <trkpt lat="45.87079" lon="6.43409">
        <ele>1736.4788</ele>
        <time>2013-12-08T10:04:18Z</time>
      </trkpt>
      <trkpt lat="45.87077" lon="6.4341">
        <ele>1739.6168</ele>
        <time>2013-12-08T10:04:23Z</time>
      </trkpt>
      <trkpt lat="45.87074" lon="6.43412">
        <ele>1739.6168</ele>
        <time>2013-12-08T10:04:29Z</time>
      </trkpt>
      <trkpt lat="45.87072" lon="6.43413">
        <ele>1739.6168</ele>
        <time>2013-12-08T10:04:33Z</time>
      </trkpt>
      <trkpt lat="45.8707" lon="6.43414">
        <ele>1739.6168</ele>
        <time>2013-12-08T10:04:38Z</time>
      </trkpt>
      <trkpt lat="45.87066" lon="6.43415">
        <ele>1742.8682</ele>
        <time>2013-12-08T10:04:44Z</time>
      </trkpt>
      <trkpt lat="45.87064" lon="6.43415">
        <ele>1742.8682</ele>
        <time>2013-12-08T10:04:48Z</time>
      </trkpt>
      <trkpt lat="45.87061" lon="6.43416">
        <ele>1742.8682</ele>
        <time>2013-12-08T10:04:53Z</time>
      </trkpt>
      <trkpt lat="45.87058" lon="6.43417">
        <ele>1742.8682</ele>
        <time>2013-12-08T10:04:59Z</time>
      </trkpt>
      <trkpt lat="45.87056" lon="6.43419">
        <ele>1746.181</ele>
        <time>2013-12-08T10:05:03Z</time>
      </trkpt>
      <trkpt lat="45.87057" lon="6.4342">
        <ele>1746.181</ele>
        <time>2013-12-08T10:05:08Z</time>
      </trkpt>
      <trkpt lat="45.87057" lon="6.43424">
        <ele>1746.181</ele>
        <time>2013-12-08T10:05:14Z</time>
      </trkpt>
      <trkpt lat="45.87056" lon="6.43429">
        <ele>1746.181</ele>
        <time>2013-12-08T10:05:18Z</time>
      </trkpt>
      <trkpt lat="45.87056" lon="6.43432">
        <ele>1748.9456</ele>
        <time>2013-12-08T10:05:23Z</time>
      </trkpt>
      <trkpt lat="45.87056" lon="6.43435">
        <ele>1748.9456</ele>
        <time>2013-12-08T10:05:28Z</time>
      </trkpt>
      <trkpt lat="45.87056" lon="6.43438">
        <ele>1748.9456</ele>
        <time>2013-12-08T10:05:33Z</time>
      </trkpt>
      <trkpt lat="45.87056" lon="6.43442">
        <ele>1748.9456</ele>
        <time>2013-12-08T10:05:38Z</time>
      </trkpt>
      <trkpt lat="45.87057" lon="6.43444">
        <ele>1748.9456</ele>
        <time>2013-12-08T10:05:44Z</time>
      </trkpt>
      <trkpt lat="45.87057" lon="6.43447">
        <ele>1751.1168</ele>
        <time>2013-12-08T10:05:48Z</time>
      </trkpt>
      <trkpt lat="45.87057" lon="6.43451">
        <ele>1751.1168</ele>
        <time>2013-12-08T10:05:53Z</time>
      </trkpt>
      <trkpt lat="45.87057" lon="6.43452">
        <ele>1751.1168</ele>
        <time>2013-12-08T10:05:59Z</time>
      </trkpt>
      <trkpt lat="45.87054" lon="6.43454">
        <ele>1751.1168</ele>
        <time>2013-12-08T10:06:03Z</time>
      </trkpt>
      <trkpt lat="45.87052" lon="6.43453">
        <ele>1751.1168</ele>
        <time>2013-12-08T10:06:08Z</time>
      </trkpt>
      <trkpt lat="45.87051" lon="6.43453">
        <ele>1753.6351</ele>
        <time>2013-12-08T10:06:14Z</time>
      </trkpt>
      <trkpt lat="45.87048" lon="6.43453">
        <ele>1753.6351</ele>
        <time>2013-12-08T10:06:18Z</time>
      </trkpt>
      <trkpt lat="45.87045" lon="6.43452">
        <ele>1753.6351</ele>
        <time>2013-12-08T10:06:23Z</time>
      </trkpt>
      <trkpt lat="45.87045" lon="6.43452">
        <ele>1753.6351</ele>
        <time>2013-12-08T10:06:29Z</time>
      </trkpt>
      <trkpt lat="45.87042" lon="6.4345">
        <ele>1753.6351</ele>
        <time>2013-12-08T10:06:33Z</time>
      </trkpt>
      <trkpt lat="45.8704" lon="6.4345">
        <ele>1756.8082</ele>
        <time>2013-12-08T10:06:38Z</time>
      </trkpt>
      <trkpt lat="45.8704" lon="6.43451">
        <ele>1756.8082</ele>
        <time>2013-12-08T10:06:44Z</time>
      </trkpt>
      <trkpt lat="45.87038" lon="6.4345">
        <ele>1756.8082</ele>
        <time>2013-12-08T10:06:48Z</time>
      </trkpt>
      <trkpt lat="45.87037" lon="6.43449">
        <ele>1756.8082</ele>
        <time>2013-12-08T10:06:53Z</time>
      </trkpt>
      <trkpt lat="45.87036" lon="6.43449">
        <ele>1756.8082</ele>
        <time>2013-12-08T10:06:59Z</time>
      </trkpt>
      <trkpt lat="45.87033" lon="6.43447">
        <ele>1756.8082</ele>
        <time>2013-12-08T10:07:03Z</time>
      </trkpt>
      <trkpt lat="45.87032" lon="6.43447">
        <ele>1756.8082</ele>
        <time>2013-12-08T10:07:08Z</time>
      </trkpt>
      <trkpt lat="45.87031" lon="6.43447">
        <ele>1759.8967</ele>
        <time>2013-12-08T10:07:14Z</time>
      </trkpt>
      <trkpt lat="45.87027" lon="6.43446">
        <ele>1759.8967</ele>
        <time>2013-12-08T10:07:18Z</time>
      </trkpt>
      <trkpt lat="45.87024" lon="6.43445">
        <ele>1759.8967</ele>
        <time>2013-12-08T10:07:23Z</time>
      </trkpt>
      <trkpt lat="45.87022" lon="6.43445">
        <ele>1759.8967</ele>
        <time>2013-12-08T10:07:29Z</time>
      </trkpt>
      <trkpt lat="45.87019" lon="6.43445">
        <ele>1762.7919</ele>
        <time>2013-12-08T10:07:33Z</time>
      </trkpt>
      <trkpt lat="45.87017" lon="6.43447">
        <ele>1762.7919</ele>
        <time>2013-12-08T10:07:38Z</time>
      </trkpt>
      <trkpt lat="45.87016" lon="6.43447">
        <ele>1762.7919</ele>
        <time>2013-12-08T10:07:44Z</time>
      </trkpt>
      <trkpt lat="45.87011" lon="6.43446">
        <ele>1762.7919</ele>
        <time>2013-12-08T10:07:48Z</time>
      </trkpt>
      <trkpt lat="45.87009" lon="6.43446">
        <ele>1765.8403</ele>
        <time>2013-12-08T10:07:53Z</time>
      </trkpt>
      <trkpt lat="45.87008" lon="6.43447">
        <ele>1765.8403</ele>
        <time>2013-12-08T10:08:00Z</time>
      </trkpt>
      <trkpt lat="45.87005" lon="6.4345">
        <ele>1765.8403</ele>
        <time>2013-12-08T10:08:03Z</time>
      </trkpt>
      <trkpt lat="45.87002" lon="6.4345">
        <ele>1765.8403</ele>
        <time>2013-12-08T10:08:08Z</time>
      </trkpt>
      <trkpt lat="45.87" lon="6.43451">
        <ele>1768.3829</ele>
        <time>2013-12-08T10:08:13Z</time>
      </trkpt>
      <trkpt lat="45.86997" lon="6.43448">
        <ele>1768.3829</ele>
        <time>2013-12-08T10:08:18Z</time>
      </trkpt>
      <trkpt lat="45.86995" lon="6.43447">
        <ele>1768.3829</ele>
        <time>2013-12-08T10:08:23Z</time>
      </trkpt>
      <trkpt lat="45.86993" lon="6.43447">
        <ele>1768.3829</ele>
        <time>2013-12-08T10:08:28Z</time>
      </trkpt>
      <trkpt lat="45.8699" lon="6.43446">
        <ele>1771.6692</ele>
        <time>2013-12-08T10:08:33Z</time>
      </trkpt>
      <trkpt lat="45.86988" lon="6.43445">
        <ele>1771.6692</ele>
        <time>2013-12-08T10:08:38Z</time>
      </trkpt>
      <trkpt lat="45.86987" lon="6.43446">
        <ele>1771.6692</ele>
        <time>2013-12-08T10:08:43Z</time>
      </trkpt>
      <trkpt lat="45.86987" lon="6.4345">
        <ele>1771.6692</ele>
        <time>2013-12-08T10:08:48Z</time>
      </trkpt>
      <trkpt lat="45.86987" lon="6.43454">
        <ele>1774.2753</ele>
        <time>2013-12-08T10:08:53Z</time>
      </trkpt>
      <trkpt lat="45.86988" lon="6.43455">
        <ele>1774.2753</ele>
        <time>2013-12-08T10:08:59Z</time>
      </trkpt>
      <trkpt lat="45.86988" lon="6.4346">
        <ele>1774.2753</ele>
        <time>2013-12-08T10:09:03Z</time>
      </trkpt>
      <trkpt lat="45.8699" lon="6.43462">
        <ele>1774.2753</ele>
        <time>2013-12-08T10:09:08Z</time>
      </trkpt>
      <trkpt lat="45.8699" lon="6.43464">
        <ele>1774.2753</ele>
        <time>2013-12-08T10:09:14Z</time>
      </trkpt>
      <trkpt lat="45.86991" lon="6.43466">
        <ele>1776.1377</ele>
        <time>2013-12-08T10:09:18Z</time>
      </trkpt>
      <trkpt lat="45.86991" lon="6.43466">
        <ele>1776.1377</ele>
        <time>2013-12-08T10:09:23Z</time>
      </trkpt>
      <trkpt lat="45.86991" lon="6.43467">
        <ele>1776.1377</ele>
        <time>2013-12-08T10:09:29Z</time>
      </trkpt>
      <trkpt lat="45.8699" lon="6.43474">
        <ele>1776.1377</ele>
        <time>2013-12-08T10:09:33Z</time>
      </trkpt>
      <trkpt lat="45.86989" lon="6.43477">
        <ele>1776.1377</ele>
        <time>2013-12-08T10:09:38Z</time>
      </trkpt>
      <trkpt lat="45.86989" lon="6.4348">
        <ele>1777.9921</ele>
        <time>2013-12-08T10:09:43Z</time>
      </trkpt>
      <trkpt lat="45.86989" lon="6.43481">
        <ele>1777.9921</ele>
        <time>2013-12-08T10:09:48Z</time>
      </trkpt>
      <trkpt lat="45.86989" lon="6.43484">
        <ele>1777.9921</ele>
        <time>2013-12-08T10:09:53Z</time>
      </trkpt>
      <trkpt lat="45.8699" lon="6.43487">
        <ele>1777.9921</ele>
        <time>2013-12-08T10:09:58Z</time>
      </trkpt>
      <trkpt lat="45.8699" lon="6.43489">
        <ele>1777.9921</ele>
        <time>2013-12-08T10:10:04Z</time>
      </trkpt>
      <trkpt lat="45.8699" lon="6.43491">
        <ele>1777.9921</ele>
        <time>2013-12-08T10:10:08Z</time>
      </trkpt>
      <trkpt lat="45.8699" lon="6.43492">
        <ele>1777.9921</ele>
        <time>2013-12-08T10:10:13Z</time>
      </trkpt>
      <trkpt lat="45.86991" lon="6.43497">
        <ele>1779.5546</ele>
        <time>2013-12-08T10:10:19Z</time>
      </trkpt>
      <trkpt lat="45.86993" lon="6.43498">
        <ele>1779.5546</ele>
        <time>2013-12-08T10:10:23Z</time>
      </trkpt>
      <trkpt lat="45.86992" lon="6.43502">
        <ele>1779.5546</ele>
        <time>2013-12-08T10:10:28Z</time>
      </trkpt>
      <trkpt lat="45.86988" lon="6.43506">
        <ele>1781.1106</ele>
        <time>2013-12-08T10:10:33Z</time>
      </trkpt>
      <trkpt lat="45.86986" lon="6.43508">
        <ele>1781.1106</ele>
        <time>2013-12-08T10:10:38Z</time>
      </trkpt>
      <trkpt lat="45.86984" lon="6.43508">
        <ele>1781.1106</ele>
        <time>2013-12-08T10:10:43Z</time>
      </trkpt>
      <trkpt lat="45.86982" lon="6.4351">
        <ele>1781.1106</ele>
        <time>2013-12-08T10:10:49Z</time>
      </trkpt>
      <trkpt lat="45.86979" lon="6.43509">
        <ele>1783.2992</ele>
        <time>2013-12-08T10:10:53Z</time>
      </trkpt>
      <trkpt lat="45.86978" lon="6.43509">
        <ele>1783.2992</ele>
        <time>2013-12-08T10:10:58Z</time>
      </trkpt>
      <trkpt lat="45.86978" lon="6.43509">
        <ele>1783.2992</ele>
        <time>2013-12-08T10:11:04Z</time>
      </trkpt>
      <trkpt lat="45.86976" lon="6.4351">
        <ele>1783.2992</ele>
        <time>2013-12-08T10:11:08Z</time>
      </trkpt>
      <trkpt lat="45.86974" lon="6.4351">
        <ele>1783.2992</ele>
        <time>2013-12-08T10:11:13Z</time>
      </trkpt>
      <trkpt lat="45.86972" lon="6.4351">
        <ele>1783.2992</ele>
        <time>2013-12-08T10:11:18Z</time>
      </trkpt>
      <trkpt lat="45.86969" lon="6.43509">
        <ele>1785.9182</ele>
        <time>2013-12-08T10:11:23Z</time>
      </trkpt>
      <trkpt lat="45.86968" lon="6.43509">
        <ele>1785.9182</ele>
        <time>2013-12-08T10:11:28Z</time>
      </trkpt>
      <trkpt lat="45.86965" lon="6.43508">
        <ele>1785.9182</ele>
        <time>2013-12-08T10:11:33Z</time>
      </trkpt>
      <trkpt lat="45.86963" lon="6.43508">
        <ele>1785.9182</ele>
        <time>2013-12-08T10:11:38Z</time>
      </trkpt>
      <trkpt lat="45.8696" lon="6.43508">
        <ele>1788.4761</ele>
        <time>2013-12-08T10:11:43Z</time>
      </trkpt>
      <trkpt lat="45.86958" lon="6.43508">
        <ele>1788.4761</ele>
        <time>2013-12-08T10:11:48Z</time>
      </trkpt>
      <trkpt lat="45.86957" lon="6.43508">
        <ele>1788.4761</ele>
        <time>2013-12-08T10:11:53Z</time>
      </trkpt>
      <trkpt lat="45.86956" lon="6.43508">
        <ele>1788.4761</ele>
        <time>2013-12-08T10:11:59Z</time>
      </trkpt>
      <trkpt lat="45.86957" lon="6.4351">
        <ele>1788.4761</ele>
        <time>2013-12-08T10:12:03Z</time>
      </trkpt>
      <trkpt lat="45.86956" lon="6.43511">
        <ele>1788.4761</ele>
        <time>2013-12-08T10:12:08Z</time>
      </trkpt>
      <trkpt lat="45.86955" lon="6.43512">
        <ele>1788.4761</ele>
        <time>2013-12-08T10:12:14Z</time>
      </trkpt>
      <trkpt lat="45.86956" lon="6.43513">
        <ele>1788.4761</ele>
        <time>2013-12-08T10:12:18Z</time>
      </trkpt>
      <trkpt lat="45.86956" lon="6.43515">
        <ele>1790.8206</ele>
        <time>2013-12-08T10:12:23Z</time>
      </trkpt>
      <trkpt lat="45.86957" lon="6.43518">
        <ele>1790.8206</ele>
        <time>2013-12-08T10:12:28Z</time>
      </trkpt>
      <trkpt lat="45.86956" lon="6.43524">
        <ele>1790.8206</ele>
        <time>2013-12-08T10:12:33Z</time>
      </trkpt>
      <trkpt lat="45.86956" lon="6.43525">
        <ele>1790.8206</ele>
        <time>2013-12-08T10:12:38Z</time>
      </trkpt>
      <trkpt lat="45.86956" lon="6.43526">
        <ele>1790.8206</ele>
        <time>2013-12-08T10:12:44Z</time>
      </trkpt>
      <trkpt lat="45.86955" lon="6.43531">
        <ele>1792.3926</ele>
        <time>2013-12-08T10:12:48Z</time>
      </trkpt>
      <trkpt lat="45.86956" lon="6.43531">
        <ele>1792.3926</ele>
        <time>2013-12-08T10:12:53Z</time>
      </trkpt>
      <trkpt lat="45.86957" lon="6.43533">
        <ele>1792.3926</ele>
        <time>2013-12-08T10:12:59Z</time>
      </trkpt>
      <trkpt lat="45.86957" lon="6.43536">
        <ele>1792.3926</ele>
        <time>2013-12-08T10:13:03Z</time>
      </trkpt>
      <trkpt lat="45.86958" lon="6.43538">
        <ele>1792.3926</ele>
        <time>2013-12-08T10:13:08Z</time>
      </trkpt>
      <trkpt lat="45.86958" lon="6.43541">
        <ele>1792.3926</ele>
        <time>2013-12-08T10:13:13Z</time>
      </trkpt>
      <trkpt lat="45.86958" lon="6.43543">
        <ele>1793.7002</ele>
        <time>2013-12-08T10:13:18Z</time>
      </trkpt>
      <trkpt lat="45.86958" lon="6.43545">
        <ele>1793.7002</ele>
        <time>2013-12-08T10:13:23Z</time>
      </trkpt>
      <trkpt lat="45.86959" lon="6.43548">
        <ele>1793.7002</ele>
        <time>2013-12-08T10:13:29Z</time>
      </trkpt>
      <trkpt lat="45.8696" lon="6.43551">
        <ele>1793.7002</ele>
        <time>2013-12-08T10:13:33Z</time>
      </trkpt>
      <trkpt lat="45.86961" lon="6.43552">
        <ele>1793.7002</ele>
        <time>2013-12-08T10:13:38Z</time>
      </trkpt>
      <trkpt lat="45.86961" lon="6.43555">
        <ele>1794.8827</ele>
        <time>2013-12-08T10:13:43Z</time>
      </trkpt>
      <trkpt lat="45.86962" lon="6.43558">
        <ele>1794.8827</ele>
        <time>2013-12-08T10:13:48Z</time>
      </trkpt>
      <trkpt lat="45.86962" lon="6.43562">
        <ele>1794.8827</ele>
        <time>2013-12-08T10:13:53Z</time>
      </trkpt>
      <trkpt lat="45.86963" lon="6.43565">
        <ele>1794.8827</ele>
        <time>2013-12-08T10:13:58Z</time>
      </trkpt>
      <trkpt lat="45.86964" lon="6.43568">
        <ele>1795.4069</ele>
        <time>2013-12-08T10:14:03Z</time>
      </trkpt>
      <trkpt lat="45.86965" lon="6.43569">
        <ele>1795.4069</ele>
        <time>2013-12-08T10:14:08Z</time>
      </trkpt>
      <trkpt lat="45.86966" lon="6.4357">
        <ele>1795.4069</ele>
        <time>2013-12-08T10:14:13Z</time>
      </trkpt>
      <trkpt lat="45.86967" lon="6.43574">
        <ele>1795.4069</ele>
        <time>2013-12-08T10:14:18Z</time>
      </trkpt>
      <trkpt lat="45.86967" lon="6.43578">
        <ele>1795.4069</ele>
        <time>2013-12-08T10:14:23Z</time>
      </trkpt>
      <trkpt lat="45.86967" lon="6.4358">
        <ele>1795.789</ele>
        <time>2013-12-08T10:14:28Z</time>
      </trkpt>
      <trkpt lat="45.86969" lon="6.43582">
        <ele>1795.789</ele>
        <time>2013-12-08T10:14:33Z</time>
      </trkpt>
      <trkpt lat="45.8697" lon="6.43586">
        <ele>1795.789</ele>
        <time>2013-12-08T10:14:38Z</time>
      </trkpt>
      <trkpt lat="45.8697" lon="6.43591">
        <ele>1795.789</ele>
        <time>2013-12-08T10:14:43Z</time>
      </trkpt>
      <trkpt lat="45.8697" lon="6.43593">
        <ele>1796.5078</ele>
        <time>2013-12-08T10:14:48Z</time>
      </trkpt>
      <trkpt lat="45.86971" lon="6.43596">
        <ele>1796.5078</ele>
        <time>2013-12-08T10:14:53Z</time>
      </trkpt>
      <trkpt lat="45.86971" lon="6.43598">
        <ele>1796.5078</ele>
        <time>2013-12-08T10:14:58Z</time>
      </trkpt>
      <trkpt lat="45.86972" lon="6.43597">
        <ele>1796.5078</ele>
        <time>2013-12-08T10:15:03Z</time>
      </trkpt>
      <trkpt lat="45.86974" lon="6.43598">
        <ele>1796.5078</ele>
        <time>2013-12-08T10:15:09Z</time>
      </trkpt>
      <trkpt lat="45.86976" lon="6.436">
        <ele>1796.5078</ele>
        <time>2013-12-08T10:15:13Z</time>
      </trkpt>
      <trkpt lat="45.86977" lon="6.43603">
        <ele>1797.1844</ele>
        <time>2013-12-08T10:15:18Z</time>
      </trkpt>
      <trkpt lat="45.86978" lon="6.43606">
        <ele>1797.1844</ele>
        <time>2013-12-08T10:15:24Z</time>
      </trkpt>
      <trkpt lat="45.86981" lon="6.43608">
        <ele>1797.1844</ele>
        <time>2013-12-08T10:15:28Z</time>
      </trkpt>
      <trkpt lat="45.86981" lon="6.43609">
        <ele>1797.1844</ele>
        <time>2013-12-08T10:15:33Z</time>
      </trkpt>
      <trkpt lat="45.8698" lon="6.43612">
        <ele>1797.1844</ele>
        <time>2013-12-08T10:15:38Z</time>
      </trkpt>
      <trkpt lat="45.86981" lon="6.43618">
        <ele>1797.7848</ele>
        <time>2013-12-08T10:15:43Z</time>
      </trkpt>
      <trkpt lat="45.86982" lon="6.43622">
        <ele>1797.7848</ele>
        <time>2013-12-08T10:15:48Z</time>
      </trkpt>
      <trkpt lat="45.86982" lon="6.43624">
        <ele>1797.7848</ele>
        <time>2013-12-08T10:15:53Z</time>
      </trkpt>
      <trkpt lat="45.86984" lon="6.43626">
        <ele>1797.7848</ele>
        <time>2013-12-08T10:15:58Z</time>
      </trkpt>
      <trkpt lat="45.86985" lon="6.4363">
        <ele>1798.4216</ele>
        <time>2013-12-08T10:16:03Z</time>
      </trkpt>
      <trkpt lat="45.86986" lon="6.43633">
        <ele>1798.4216</ele>
        <time>2013-12-08T10:16:08Z</time>
      </trkpt>
      <trkpt lat="45.86986" lon="6.4364">
        <ele>1798.4216</ele>
        <time>2013-12-08T10:16:13Z</time>
      </trkpt>
      <trkpt lat="45.86987" lon="6.43639">
        <ele>1798.4216</ele>
        <time>2013-12-08T10:16:18Z</time>
      </trkpt>
      <trkpt lat="45.86985" lon="6.43641">
        <ele>1798.4216</ele>
        <time>2013-12-08T10:16:24Z</time>
      </trkpt>
      <trkpt lat="45.86985" lon="6.43641">
        <ele>1799.7032</ele>
        <time>2013-12-08T10:16:28Z</time>
      </trkpt>
      <trkpt lat="45.86984" lon="6.43642">
        <ele>1799.7032</ele>
        <time>2013-12-08T10:16:33Z</time>
      </trkpt>
      <trkpt lat="45.86982" lon="6.43643">
        <ele>1799.7032</ele>
        <time>2013-12-08T10:16:38Z</time>
      </trkpt>
      <trkpt lat="45.86979" lon="6.43645">
        <ele>1799.7032</ele>
        <time>2013-12-08T10:16:43Z</time>
      </trkpt>
      <trkpt lat="45.86978" lon="6.43645">
        <ele>1799.7032</ele>
        <time>2013-12-08T10:16:48Z</time>
      </trkpt>
      <trkpt lat="45.86976" lon="6.43645">
        <ele>1802.4222</ele>
        <time>2013-12-08T10:16:53Z</time>
      </trkpt>
      <trkpt lat="45.86976" lon="6.43646">
        <ele>1802.4222</ele>
        <time>2013-12-08T10:16:59Z</time>
      </trkpt>
      <trkpt lat="45.86974" lon="6.43644">
        <ele>1802.4222</ele>
        <time>2013-12-08T10:17:03Z</time>
      </trkpt>
      <trkpt lat="45.86974" lon="6.43645">
        <ele>1802.4222</ele>
        <time>2013-12-08T10:17:08Z</time>
      </trkpt>
      <trkpt lat="45.86974" lon="6.43648">
        <ele>1802.4222</ele>
        <time>2013-12-08T10:17:14Z</time>
      </trkpt>
      <trkpt lat="45.86974" lon="6.43651">
        <ele>1802.4222</ele>
        <time>2013-12-08T10:17:18Z</time>
      </trkpt>
      <trkpt lat="45.86974" lon="6.43654">
        <ele>1805.3776</ele>
        <time>2013-12-08T10:17:23Z</time>
      </trkpt>
      <trkpt lat="45.86974" lon="6.43656">
        <ele>1805.3776</ele>
        <time>2013-12-08T10:17:29Z</time>
      </trkpt>
      <trkpt lat="45.86974" lon="6.4366">
        <ele>1805.3776</ele>
        <time>2013-12-08T10:17:33Z</time>
      </trkpt>
      <trkpt lat="45.86975" lon="6.4366">
        <ele>1805.3776</ele>
        <time>2013-12-08T10:17:38Z</time>
      </trkpt>
      <trkpt lat="45.86975" lon="6.43663">
        <ele>1805.3776</ele>
        <time>2013-12-08T10:17:43Z</time>
      </trkpt>
      <trkpt lat="45.86975" lon="6.43663">
        <ele>1805.3776</ele>
        <time>2013-12-08T10:17:48Z</time>
      </trkpt>
      <trkpt lat="45.86975" lon="6.43663">
        <ele>1805.3776</ele>
        <time>2013-12-08T10:17:53Z</time>
      </trkpt>
      <trkpt lat="45.86976" lon="6.43662">
        <ele>1805.3776</ele>
        <time>2013-12-08T10:17:58Z</time>
      </trkpt>
      <trkpt lat="45.86976" lon="6.43662">
        <ele>1805.3776</ele>
        <time>2013-12-08T10:18:04Z</time>
      </trkpt>
      <trkpt lat="45.86976" lon="6.43661">
        <ele>1805.3776</ele>
        <time>2013-12-08T10:18:08Z</time>
      </trkpt>
      <trkpt lat="45.86975" lon="6.4366">
        <ele>1808.4786</ele>
        <time>2013-12-08T10:18:13Z</time>
      </trkpt>
      <trkpt lat="45.86974" lon="6.4366">
        <ele>1808.4786</ele>
        <time>2013-12-08T10:18:19Z</time>
      </trkpt>
      <trkpt lat="45.86974" lon="6.43661">
        <ele>1808.4786</ele>
        <time>2013-12-08T10:18:23Z</time>
      </trkpt>
      <trkpt lat="45.86974" lon="6.43661">
        <ele>1808.4786</ele>
        <time>2013-12-08T10:18:28Z</time>
      </trkpt>
      <trkpt lat="45.86974" lon="6.43662">
        <ele>1808.4786</ele>
        <time>2013-12-08T10:18:33Z</time>
      </trkpt>
      <trkpt lat="45.86974" lon="6.43662">
        <ele>1808.4786</ele>
        <time>2013-12-08T10:18:39Z</time>
      </trkpt>
      <trkpt lat="45.86971" lon="6.43661">
        <ele>1808.4786</ele>
        <time>2013-12-08T10:18:43Z</time>
      </trkpt>
      <trkpt lat="45.86969" lon="6.4366">
        <ele>1808.4786</ele>
        <time>2013-12-08T10:18:48Z</time>
      </trkpt>
      <trkpt lat="45.86968" lon="6.43659">
        <ele>1808.4786</ele>
        <time>2013-12-08T10:18:54Z</time>
      </trkpt>
      <trkpt lat="45.86965" lon="6.4366">
        <ele>1812.3042</ele>
        <time>2013-12-08T10:18:58Z</time>
      </trkpt>
      <trkpt lat="45.86963" lon="6.43661">
        <ele>1812.3042</ele>
        <time>2013-12-08T10:19:03Z</time>
      </trkpt>
      <trkpt lat="45.86963" lon="6.43661">
        <ele>1812.3042</ele>
        <time>2013-12-08T10:19:09Z</time>
      </trkpt>
      <trkpt lat="45.86964" lon="6.43663">
        <ele>1812.3042</ele>
        <time>2013-12-08T10:19:13Z</time>
      </trkpt>
      <trkpt lat="45.86964" lon="6.43664">
        <ele>1812.3042</ele>
        <time>2013-12-08T10:19:18Z</time>
      </trkpt>
      <trkpt lat="45.86964" lon="6.43664">
        <ele>1812.3042</ele>
        <time>2013-12-08T10:19:24Z</time>
      </trkpt>
      <trkpt lat="45.86965" lon="6.43667">
        <ele>1812.3042</ele>
        <time>2013-12-08T10:19:28Z</time>
      </trkpt>
      <trkpt lat="45.86966" lon="6.43671">
        <ele>1816.2064</ele>
        <time>2013-12-08T10:19:33Z</time>
      </trkpt>
      <trkpt lat="45.86966" lon="6.43673">
        <ele>1816.2064</ele>
        <time>2013-12-08T10:19:39Z</time>
      </trkpt>
      <trkpt lat="45.86966" lon="6.43676">
        <ele>1816.2064</ele>
        <time>2013-12-08T10:19:43Z</time>
      </trkpt>
      <trkpt lat="45.86964" lon="6.43678">
        <ele>1816.2064</ele>
        <time>2013-12-08T10:19:48Z</time>
      </trkpt>
      <trkpt lat="45.86964" lon="6.4368">
        <ele>1816.2064</ele>
        <time>2013-12-08T10:19:54Z</time>
      </trkpt>
      <trkpt lat="45.86962" lon="6.43684">
        <ele>1819.6138</ele>
        <time>2013-12-08T10:19:58Z</time>
      </trkpt>
      <trkpt lat="45.86961" lon="6.43687">
        <ele>1819.6138</ele>
        <time>2013-12-08T10:20:03Z</time>
      </trkpt>
      <trkpt lat="45.8696" lon="6.43687">
        <ele>1819.6138</ele>
        <time>2013-12-08T10:20:09Z</time>
      </trkpt>
      <trkpt lat="45.86958" lon="6.43686">
        <ele>1819.6138</ele>
        <time>2013-12-08T10:20:13Z</time>
      </trkpt>
      <trkpt lat="45.86955" lon="6.43686">
        <ele>1819.6138</ele>
        <time>2013-12-08T10:20:18Z</time>
      </trkpt>
      <trkpt lat="45.86953" lon="6.43686">
        <ele>1823.4387</ele>
        <time>2013-12-08T10:20:23Z</time>
      </trkpt>
      <trkpt lat="45.86952" lon="6.43686">
        <ele>1823.4387</ele>
        <time>2013-12-08T10:20:28Z</time>
      </trkpt>
      <trkpt lat="45.8695" lon="6.43686">
        <ele>1823.4387</ele>
        <time>2013-12-08T10:20:33Z</time>
      </trkpt>
      <trkpt lat="45.86947" lon="6.43686">
        <ele>1823.4387</ele>
        <time>2013-12-08T10:20:38Z</time>
      </trkpt>
      <trkpt lat="45.86946" lon="6.43686">
        <ele>1823.4387</ele>
        <time>2013-12-08T10:20:43Z</time>
      </trkpt>
      <trkpt lat="45.86942" lon="6.43687">
        <ele>1827.791</ele>
        <time>2013-12-08T10:20:48Z</time>
      </trkpt>
      <trkpt lat="45.8694" lon="6.43685">
        <ele>1827.791</ele>
        <time>2013-12-08T10:20:53Z</time>
      </trkpt>
      <trkpt lat="45.86938" lon="6.43687">
        <ele>1827.791</ele>
        <time>2013-12-08T10:20:58Z</time>
      </trkpt>
      <trkpt lat="45.86937" lon="6.43687">
        <ele>1827.791</ele>
        <time>2013-12-08T10:21:03Z</time>
      </trkpt>
      <trkpt lat="45.86936" lon="6.43688">
        <ele>1827.791</ele>
        <time>2013-12-08T10:21:09Z</time>
      </trkpt>
      <trkpt lat="45.86935" lon="6.4369">
        <ele>1827.791</ele>
        <time>2013-12-08T10:21:13Z</time>
      </trkpt>
      <trkpt lat="45.86934" lon="6.4369">
        <ele>1832.1077</ele>
        <time>2013-12-08T10:21:18Z</time>
      </trkpt>
      <trkpt lat="45.86932" lon="6.4369">
        <ele>1832.1077</ele>
        <time>2013-12-08T10:21:24Z</time>
      </trkpt>
      <trkpt lat="45.86932" lon="6.43691">
        <ele>1832.1077</ele>
        <time>2013-12-08T10:21:28Z</time>
      </trkpt>
      <trkpt lat="45.86932" lon="6.43691">
        <ele>1832.1077</ele>
        <time>2013-12-08T10:21:33Z</time>
      </trkpt>
      <trkpt lat="45.86932" lon="6.43693">
        <ele>1832.1077</ele>
        <time>2013-12-08T10:21:39Z</time>
      </trkpt>
      <trkpt lat="45.86932" lon="6.43695">
        <ele>1832.1077</ele>
        <time>2013-12-08T10:21:43Z</time>
      </trkpt>
      <trkpt lat="45.86932" lon="6.43695">
        <ele>1832.1077</ele>
        <time>2013-12-08T10:21:48Z</time>
      </trkpt>
      <trkpt lat="45.86932" lon="6.43695">
        <ele>1832.1077</ele>
        <time>2013-12-08T10:21:53Z</time>
      </trkpt>
      <trkpt lat="45.86932" lon="6.43696">
        <ele>1832.1077</ele>
        <time>2013-12-08T10:21:58Z</time>
      </trkpt>
      <trkpt lat="45.86932" lon="6.437">
        <ele>1836.6163</ele>
        <time>2013-12-08T10:22:03Z</time>
      </trkpt>
      <trkpt lat="45.86932" lon="6.43701">
        <ele>1836.6163</ele>
        <time>2013-12-08T10:22:09Z</time>
      </trkpt>
      <trkpt lat="45.86932" lon="6.43703">
        <ele>1836.6163</ele>
        <time>2013-12-08T10:22:13Z</time>
      </trkpt>
      <trkpt lat="45.86933" lon="6.43706">
        <ele>1836.6163</ele>
        <time>2013-12-08T10:22:18Z</time>
      </trkpt>
      <trkpt lat="45.86933" lon="6.43708">
        <ele>1836.6163</ele>
        <time>2013-12-08T10:22:24Z</time>
      </trkpt>
      <trkpt lat="45.86934" lon="6.43711">
        <ele>1836.6163</ele>
        <time>2013-12-08T10:22:28Z</time>
      </trkpt>
      <trkpt lat="45.86934" lon="6.43715">
        <ele>1840.7208</ele>
        <time>2013-12-08T10:22:33Z</time>
      </trkpt>
      <trkpt lat="45.86934" lon="6.43718">
        <ele>1840.7208</ele>
        <time>2013-12-08T10:22:39Z</time>
      </trkpt>
      <trkpt lat="45.86934" lon="6.43721">
        <ele>1840.7208</ele>
        <time>2013-12-08T10:22:43Z</time>
      </trkpt>
      <trkpt lat="45.86934" lon="6.43725">
        <ele>1840.7208</ele>
        <time>2013-12-08T10:22:48Z</time>
      </trkpt>
      <trkpt lat="45.86934" lon="6.43726">
        <ele>1840.7208</ele>
        <time>2013-12-08T10:22:54Z</time>
      </trkpt>
      <trkpt lat="45.86935" lon="6.43731">
        <ele>1844.3162</ele>
        <time>2013-12-08T10:22:58Z</time>
      </trkpt>
      <trkpt lat="45.86935" lon="6.43732">
        <ele>1844.3162</ele>
        <time>2013-12-08T10:23:03Z</time>
      </trkpt>
      <trkpt lat="45.86935" lon="6.43732">
        <ele>1844.3162</ele>
        <time>2013-12-08T10:23:09Z</time>
      </trkpt>
      <trkpt lat="45.86935" lon="6.43733">
        <ele>1844.3162</ele>
        <time>2013-12-08T10:23:13Z</time>
      </trkpt>
      <trkpt lat="45.86935" lon="6.43735">
        <ele>1844.3162</ele>
        <time>2013-12-08T10:23:18Z</time>
      </trkpt>
      <trkpt lat="45.86935" lon="6.43736">
        <ele>1844.3162</ele>
        <time>2013-12-08T10:23:24Z</time>
      </trkpt>
      <trkpt lat="45.86934" lon="6.43738">
        <ele>1844.3162</ele>
        <time>2013-12-08T10:23:28Z</time>
      </trkpt>
      <trkpt lat="45.86932" lon="6.4374">
        <ele>1844.3162</ele>
        <time>2013-12-08T10:23:33Z</time>
      </trkpt>
      <trkpt lat="45.86932" lon="6.43741">
        <ele>1844.3162</ele>
        <time>2013-12-08T10:23:38Z</time>
      </trkpt>
      <trkpt lat="45.86931" lon="6.43741">
        <ele>1848.4165</ele>
        <time>2013-12-08T10:23:43Z</time>
      </trkpt>
      <trkpt lat="45.8693" lon="6.43742">
        <ele>1848.4165</ele>
        <time>2013-12-08T10:23:49Z</time>
      </trkpt>
      <trkpt lat="45.8693" lon="6.43743">
        <ele>1848.4165</ele>
        <time>2013-12-08T10:23:53Z</time>
      </trkpt>
      <trkpt lat="45.86929" lon="6.43744">
        <ele>1848.4165</ele>
        <time>2013-12-08T10:23:58Z</time>
      </trkpt>
      <trkpt lat="45.86929" lon="6.43744">
        <ele>1848.4165</ele>
        <time>2013-12-08T10:24:04Z</time>
      </trkpt>
      <trkpt lat="45.86929" lon="6.43744">
        <ele>1848.4165</ele>
        <time>2013-12-08T10:24:08Z</time>
      </trkpt>
      <trkpt lat="45.86929" lon="6.43744">
        <ele>1848.4165</ele>
        <time>2013-12-08T10:24:13Z</time>
      </trkpt>
      <trkpt lat="45.86925" lon="6.43744">
        <ele>1848.4165</ele>
        <time>2013-12-08T10:24:19Z</time>
      </trkpt>
      <trkpt lat="45.86925" lon="6.43744">
        <ele>1848.4165</ele>
        <time>2013-12-08T10:24:23Z</time>
      </trkpt>
      <trkpt lat="45.86923" lon="6.43744">
        <ele>1848.4165</ele>
        <time>2013-12-08T10:24:28Z</time>
      </trkpt>
      <trkpt lat="45.8692" lon="6.43745">
        <ele>1852.6919</ele>
        <time>2013-12-08T10:24:34Z</time>
      </trkpt>
      <trkpt lat="45.86919" lon="6.43744">
        <ele>1852.6919</ele>
        <time>2013-12-08T10:24:38Z</time>
      </trkpt>
      <trkpt lat="45.86918" lon="6.43744">
        <ele>1852.6919</ele>
        <time>2013-12-08T10:24:43Z</time>
      </trkpt>
      <trkpt lat="45.86915" lon="6.43743">
        <ele>1852.6919</ele>
        <time>2013-12-08T10:24:48Z</time>
      </trkpt>
      <trkpt lat="45.86914" lon="6.43742">
        <ele>1852.6919</ele>
        <time>2013-12-08T10:24:53Z</time>
      </trkpt>
      <trkpt lat="45.86914" lon="6.43742">
        <ele>1852.6919</ele>
        <time>2013-12-08T10:24:58Z</time>
      </trkpt>
      <trkpt lat="45.86914" lon="6.43742">
        <ele>1852.6919</ele>
        <time>2013-12-08T10:25:03Z</time>
      </trkpt>
      <trkpt lat="45.86914" lon="6.43742">
        <ele>1852.6919</ele>
        <time>2013-12-08T10:25:09Z</time>
      </trkpt>
      <trkpt lat="45.86914" lon="6.43743">
        <ele>1852.6919</ele>
        <time>2013-12-08T10:25:13Z</time>
      </trkpt>
      <trkpt lat="45.86914" lon="6.43744">
        <ele>1852.6919</ele>
        <time>2013-12-08T10:25:18Z</time>
      </trkpt>
      <trkpt lat="45.86913" lon="6.43744">
        <ele>1852.6919</ele>
        <time>2013-12-08T10:25:24Z</time>
      </trkpt>
      <trkpt lat="45.86913" lon="6.43745">
        <ele>1857.6575</ele>
        <time>2013-12-08T10:25:28Z</time>
      </trkpt>
      <trkpt lat="45.86912" lon="6.43745">
        <ele>1857.6575</ele>
        <time>2013-12-08T10:25:33Z</time>
      </trkpt>
      <trkpt lat="45.86912" lon="6.43745">
        <ele>1857.6575</ele>
        <time>2013-12-08T10:25:38Z</time>
      </trkpt>
      <trkpt lat="45.86911" lon="6.43746">
        <ele>1857.6575</ele>
        <time>2013-12-08T10:25:43Z</time>
      </trkpt>
      <trkpt lat="45.86911" lon="6.43746">
        <ele>1857.6575</ele>
        <time>2013-12-08T10:25:48Z</time>
      </trkpt>
      <trkpt lat="45.86911" lon="6.43746">
        <ele>1857.6575</ele>
        <time>2013-12-08T10:25:54Z</time>
      </trkpt>
      <trkpt lat="45.86911" lon="6.43746">
        <ele>1857.6575</ele>
        <time>2013-12-08T10:25:58Z</time>
      </trkpt>
      <trkpt lat="45.86913" lon="6.43747">
        <ele>1857.6575</ele>
        <time>2013-12-08T10:26:03Z</time>
      </trkpt>
      <trkpt lat="45.86914" lon="6.4375">
        <ele>1857.6575</ele>
        <time>2013-12-08T10:26:09Z</time>
      </trkpt>
      <trkpt lat="45.86913" lon="6.43755">
        <ele>1862.7944</ele>
        <time>2013-12-08T10:26:13Z</time>
      </trkpt>
      <trkpt lat="45.86912" lon="6.43757">
        <ele>1862.7944</ele>
        <time>2013-12-08T10:26:18Z</time>
      </trkpt>
      <trkpt lat="45.86912" lon="6.43757">
        <ele>1862.7944</ele>
        <time>2013-12-08T10:26:24Z</time>
      </trkpt>
      <trkpt lat="45.86911" lon="6.43758">
        <ele>1862.7944</ele>
        <time>2013-12-08T10:26:28Z</time>
      </trkpt>
      <trkpt lat="45.86911" lon="6.43758">
        <ele>1862.7944</ele>
        <time>2013-12-08T10:26:33Z</time>
      </trkpt>
      <trkpt lat="45.86911" lon="6.43761">
        <ele>1862.7944</ele>
        <time>2013-12-08T10:26:38Z</time>
      </trkpt>
      <trkpt lat="45.86911" lon="6.43764">
        <ele>1862.7944</ele>
        <time>2013-12-08T10:26:43Z</time>
      </trkpt>
      <trkpt lat="45.86911" lon="6.43765">
        <ele>1862.7944</ele>
        <time>2013-12-08T10:26:48Z</time>
      </trkpt>
      <trkpt lat="45.8691" lon="6.43768">
        <ele>1867.3044</ele>
        <time>2013-12-08T10:26:53Z</time>
      </trkpt>
      <trkpt lat="45.86911" lon="6.43775">
        <ele>1867.3044</ele>
        <time>2013-12-08T10:26:58Z</time>
      </trkpt>
      <trkpt lat="45.8691" lon="6.4378">
        <ele>1867.3044</ele>
        <time>2013-12-08T10:27:04Z</time>
      </trkpt>
      <trkpt lat="45.8691" lon="6.43784">
        <ele>1871.4155</ele>
        <time>2013-12-08T10:27:08Z</time>
      </trkpt>
      <trkpt lat="45.8691" lon="6.43785">
        <ele>1871.4155</ele>
        <time>2013-12-08T10:27:13Z</time>
      </trkpt>
      <trkpt lat="45.8691" lon="6.43785">
        <ele>1871.4155</ele>
        <time>2013-12-08T10:27:19Z</time>
      </trkpt>
      <trkpt lat="45.86911" lon="6.43788">
        <ele>1871.4155</ele>
        <time>2013-12-08T10:27:23Z</time>
      </trkpt>
      <trkpt lat="45.86911" lon="6.43791">
        <ele>1871.4155</ele>
        <time>2013-12-08T10:27:28Z</time>
      </trkpt>
      <trkpt lat="45.86911" lon="6.43793">
        <ele>1871.4155</ele>
        <time>2013-12-08T10:27:33Z</time>
      </trkpt>
      <trkpt lat="45.86911" lon="6.43794">
        <ele>1871.4155</ele>
        <time>2013-12-08T10:27:38Z</time>
      </trkpt>
      <trkpt lat="45.86911" lon="6.43795">
        <ele>1871.4155</ele>
        <time>2013-12-08T10:27:43Z</time>
      </trkpt>
      <trkpt lat="45.86911" lon="6.43797">
        <ele>1875.2101</ele>
        <time>2013-12-08T10:27:48Z</time>
      </trkpt>
      <trkpt lat="45.86911" lon="6.438">
        <ele>1875.2101</ele>
        <time>2013-12-08T10:27:53Z</time>
      </trkpt>
      <trkpt lat="45.86911" lon="6.43801">
        <ele>1875.2101</ele>
        <time>2013-12-08T10:27:58Z</time>
      </trkpt>
      <trkpt lat="45.8691" lon="6.43801">
        <ele>1875.2101</ele>
        <time>2013-12-08T10:28:03Z</time>
      </trkpt>
      <trkpt lat="45.8691" lon="6.43802">
        <ele>1875.2101</ele>
        <time>2013-12-08T10:28:08Z</time>
      </trkpt>
      <trkpt lat="45.8691" lon="6.43802">
        <ele>1875.2101</ele>
        <time>2013-12-08T10:28:13Z</time>
      </trkpt>
      <trkpt lat="45.8691" lon="6.43805">
        <ele>1875.2101</ele>
        <time>2013-12-08T10:28:18Z</time>
      </trkpt>
      <trkpt lat="45.86909" lon="6.43806">
        <ele>1875.2101</ele>
        <time>2013-12-08T10:28:23Z</time>
      </trkpt>
      <trkpt lat="45.86909" lon="6.43807">
        <ele>1875.2101</ele>
        <time>2013-12-08T10:28:28Z</time>
      </trkpt>
      <trkpt lat="45.86909" lon="6.43807">
        <ele>1875.2101</ele>
        <time>2013-12-08T10:28:33Z</time>
      </trkpt>
      <trkpt lat="45.86909" lon="6.43807">
        <ele>1875.2101</ele>
        <time>2013-12-08T10:28:38Z</time>
      </trkpt>
      <trkpt lat="45.86908" lon="6.43808">
        <ele>1875.2101</ele>
        <time>2013-12-08T10:28:43Z</time>
      </trkpt>
      <trkpt lat="45.86915" lon="6.43821">
        <ele>1881.9076</ele>
        <time>2013-12-08T10:28:48Z</time>
      </trkpt>
      <trkpt lat="45.86898" lon="6.43823">
        <ele>1887.3057</ele>
        <time>2013-12-08T10:29:23Z</time>
      </trkpt>
      <trkpt lat="45.86898" lon="6.43824">
        <ele>1887.3057</ele>
        <time>2013-12-08T10:29:28Z</time>
      </trkpt>
      <trkpt lat="45.86898" lon="6.43824">
        <ele>1887.3057</ele>
        <time>2013-12-08T10:29:33Z</time>
      </trkpt>
      <trkpt lat="45.86897" lon="6.43825">
        <ele>1887.3057</ele>
        <time>2013-12-08T10:29:38Z</time>
      </trkpt>
      <trkpt lat="45.86898" lon="6.43827">
        <ele>1887.3057</ele>
        <time>2013-12-08T10:29:43Z</time>
      </trkpt>
      <trkpt lat="45.86899" lon="6.43832">
        <ele>1887.3057</ele>
        <time>2013-12-08T10:29:48Z</time>
      </trkpt>
      <trkpt lat="45.869" lon="6.43838">
        <ele>1891.8813</ele>
        <time>2013-12-08T10:29:53Z</time>
      </trkpt>
      <trkpt lat="45.86902" lon="6.43842">
        <ele>1891.8813</ele>
        <time>2013-12-08T10:29:58Z</time>
      </trkpt>
      <trkpt lat="45.86902" lon="6.43846">
        <ele>1891.8813</ele>
        <time>2013-12-08T10:30:04Z</time>
      </trkpt>
      <trkpt lat="45.86903" lon="6.43853">
        <ele>1895.8197</ele>
        <time>2013-12-08T10:30:08Z</time>
      </trkpt>
      <trkpt lat="45.86906" lon="6.43855">
        <ele>1895.8197</ele>
        <time>2013-12-08T10:30:13Z</time>
      </trkpt>
      <trkpt lat="45.86905" lon="6.43855">
        <ele>1895.8197</ele>
        <time>2013-12-08T10:30:18Z</time>
      </trkpt>
      <trkpt lat="45.86906" lon="6.43856">
        <ele>1895.8197</ele>
        <time>2013-12-08T10:30:23Z</time>
      </trkpt>
      <trkpt lat="45.86905" lon="6.43857">
        <ele>1895.8197</ele>
        <time>2013-12-08T10:30:28Z</time>
      </trkpt>
      <trkpt lat="45.86905" lon="6.43857">
        <ele>1895.8197</ele>
        <time>2013-12-08T10:30:34Z</time>
      </trkpt>
      <trkpt lat="45.86906" lon="6.43858">
        <ele>1895.8197</ele>
        <time>2013-12-08T10:30:38Z</time>
      </trkpt>
      <trkpt lat="45.86906" lon="6.43858">
        <ele>1895.8197</ele>
        <time>2013-12-08T10:30:43Z</time>
      </trkpt>
      <trkpt lat="45.86906" lon="6.43859">
        <ele>1895.8197</ele>
        <time>2013-12-08T10:30:49Z</time>
      </trkpt>
      <trkpt lat="45.86907" lon="6.43862">
        <ele>1895.8197</ele>
        <time>2013-12-08T10:30:53Z</time>
      </trkpt>
      <trkpt lat="45.86909" lon="6.43862">
        <ele>1899.7118</ele>
        <time>2013-12-08T10:30:58Z</time>
      </trkpt>
      <trkpt lat="45.86913" lon="6.43865">
        <ele>1899.7118</ele>
        <time>2013-12-08T10:31:03Z</time>
      </trkpt>
      <trkpt lat="45.86915" lon="6.43866">
        <ele>1899.7118</ele>
        <time>2013-12-08T10:31:08Z</time>
      </trkpt>
      <trkpt lat="45.86917" lon="6.43867">
        <ele>1903.8176</ele>
        <time>2013-12-08T10:31:13Z</time>
      </trkpt>
      <trkpt lat="45.86918" lon="6.43868">
        <ele>1903.8176</ele>
        <time>2013-12-08T10:31:18Z</time>
      </trkpt>
      <trkpt lat="45.86919" lon="6.43867">
        <ele>1903.8176</ele>
        <time>2013-12-08T10:31:23Z</time>
      </trkpt>
      <trkpt lat="45.86919" lon="6.43867">
        <ele>1903.8176</ele>
        <time>2013-12-08T10:31:28Z</time>
      </trkpt>
      <trkpt lat="45.86919" lon="6.43867">
        <ele>1903.8176</ele>
        <time>2013-12-08T10:31:33Z</time>
      </trkpt>
      <trkpt lat="45.86919" lon="6.43867">
        <ele>1903.8176</ele>
        <time>2013-12-08T10:31:38Z</time>
      </trkpt>
      <trkpt lat="45.86919" lon="6.43867">
        <ele>1903.8176</ele>
        <time>2013-12-08T10:31:43Z</time>
      </trkpt>
      <trkpt lat="45.86919" lon="6.43867">
        <ele>1903.8176</ele>
        <time>2013-12-08T10:31:48Z</time>
      </trkpt>
      <trkpt lat="45.86919" lon="6.43867">
        <ele>1903.8176</ele>
        <time>2013-12-08T10:31:53Z</time>
      </trkpt>
      <trkpt lat="45.86919" lon="6.43867">
        <ele>1903.8176</ele>
        <time>2013-12-08T10:31:58Z</time>
      </trkpt>
      <trkpt lat="45.86919" lon="6.43867">
        <ele>1903.8176</ele>
        <time>2013-12-08T10:32:03Z</time>
      </trkpt>
      <trkpt lat="45.86919" lon="6.43867">
        <ele>1903.8176</ele>
        <time>2013-12-08T10:32:08Z</time>
      </trkpt>
      <trkpt lat="45.86919" lon="6.43867">
        <ele>1903.8176</ele>
        <time>2013-12-08T10:32:13Z</time>
      </trkpt>
      <trkpt lat="45.86919" lon="6.43867">
        <ele>1903.8176</ele>
        <time>2013-12-08T10:32:23Z</time>
      </trkpt>
      <trkpt lat="45.86919" lon="6.43867">
        <ele>1903.8176</ele>
        <time>2013-12-08T10:32:28Z</time>
      </trkpt>
      <trkpt lat="45.86919" lon="6.43867">
        <ele>1903.8176</ele>
        <time>2013-12-08T10:32:38Z</time>
      </trkpt>
      <trkpt lat="45.86921" lon="6.43869">
        <ele>1903.8176</ele>
        <time>2013-12-08T10:32:43Z</time>
      </trkpt>
      <trkpt lat="45.86926" lon="6.4387">
        <ele>1907.9451</ele>
        <time>2013-12-08T10:32:48Z</time>
      </trkpt>
      <trkpt lat="45.86929" lon="6.43872">
        <ele>1907.9451</ele>
        <time>2013-12-08T10:32:53Z</time>
      </trkpt>
      <trkpt lat="45.8693" lon="6.43871">
        <ele>1907.9451</ele>
        <time>2013-12-08T10:32:58Z</time>
      </trkpt>
      <trkpt lat="45.86931" lon="6.43871">
        <ele>1907.9451</ele>
        <time>2013-12-08T10:33:03Z</time>
      </trkpt>
      <trkpt lat="45.86931" lon="6.43871">
        <ele>1907.9451</ele>
        <time>2013-12-08T10:33:08Z</time>
      </trkpt>
      <trkpt lat="45.86931" lon="6.43872">
        <ele>1907.9451</ele>
        <time>2013-12-08T10:33:13Z</time>
      </trkpt>
      <trkpt lat="45.86931" lon="6.43872">
        <ele>1907.9451</ele>
        <time>2013-12-08T10:33:19Z</time>
      </trkpt>
      <trkpt lat="45.86932" lon="6.43872">
        <ele>1907.9451</ele>
        <time>2013-12-08T10:33:23Z</time>
      </trkpt>
      <trkpt lat="45.86932" lon="6.43872">
        <ele>1907.9451</ele>
        <time>2013-12-08T10:33:28Z</time>
      </trkpt>
      <trkpt lat="45.86932" lon="6.43872">
        <ele>1907.9451</ele>
        <time>2013-12-08T10:33:33Z</time>
      </trkpt>
      <trkpt lat="45.86932" lon="6.43872">
        <ele>1907.9451</ele>
        <time>2013-12-08T10:33:38Z</time>
      </trkpt>
      <trkpt lat="45.86932" lon="6.43872">
        <ele>1907.9451</ele>
        <time>2013-12-08T10:33:43Z</time>
      </trkpt>
      <trkpt lat="45.86932" lon="6.43872">
        <ele>1907.9451</ele>
        <time>2013-12-08T10:33:48Z</time>
      </trkpt>
      <trkpt lat="45.86932" lon="6.43872">
        <ele>1907.9451</ele>
        <time>2013-12-08T10:33:55Z</time>
      </trkpt>
      <trkpt lat="45.86932" lon="6.43872">
        <ele>1907.9451</ele>
        <time>2013-12-08T10:33:58Z</time>
      </trkpt>
      <trkpt lat="45.86932" lon="6.43872">
        <ele>1907.9451</ele>
        <time>2013-12-08T10:34:03Z</time>
      </trkpt>
      <trkpt lat="45.86932" lon="6.43873">
        <ele>1907.9451</ele>
        <time>2013-12-08T10:34:10Z</time>
      </trkpt>
      <trkpt lat="45.86933" lon="6.43874">
        <ele>1907.9451</ele>
        <time>2013-12-08T10:34:13Z</time>
      </trkpt>
      <trkpt lat="45.86933" lon="6.43874">
        <ele>1907.9451</ele>
        <time>2013-12-08T10:34:18Z</time>
      </trkpt>
      <trkpt lat="45.86935" lon="6.43875">
        <ele>1911.8444</ele>
        <time>2013-12-08T10:34:24Z</time>
      </trkpt>
      <trkpt lat="45.86937" lon="6.43876">
        <ele>1911.8444</ele>
        <time>2013-12-08T10:34:28Z</time>
      </trkpt>
      <trkpt lat="45.86941" lon="6.43877">
        <ele>1911.8444</ele>
        <time>2013-12-08T10:34:33Z</time>
      </trkpt>
      <trkpt lat="45.86945" lon="6.43878">
        <ele>1915.4865</ele>
        <time>2013-12-08T10:34:39Z</time>
      </trkpt>
      <trkpt lat="45.8695" lon="6.43878">
        <ele>1915.4865</ele>
        <time>2013-12-08T10:34:43Z</time>
      </trkpt>
      <trkpt lat="45.86956" lon="6.43879">
        <ele>1919.0614</ele>
        <time>2013-12-08T10:34:48Z</time>
      </trkpt>
      <trkpt lat="45.86958" lon="6.4388">
        <ele>1919.0614</ele>
        <time>2013-12-08T10:34:54Z</time>
      </trkpt>
      <trkpt lat="45.86963" lon="6.43882">
        <ele>1919.0614</ele>
        <time>2013-12-08T10:34:58Z</time>
      </trkpt>
      <trkpt lat="45.86965" lon="6.43885">
        <ele>1921.9102</ele>
        <time>2013-12-08T10:35:03Z</time>
      </trkpt>
      <trkpt lat="45.86967" lon="6.43887">
        <ele>1921.9102</ele>
        <time>2013-12-08T10:35:09Z</time>
      </trkpt>
      <trkpt lat="45.86971" lon="6.4389">
        <ele>1921.9102</ele>
        <time>2013-12-08T10:35:13Z</time>
      </trkpt>
      <trkpt lat="45.86973" lon="6.43893">
        <ele>1924.4757</ele>
        <time>2013-12-08T10:35:18Z</time>
      </trkpt>
      <trkpt lat="45.86975" lon="6.43895">
        <ele>1924.4757</ele>
        <time>2013-12-08T10:35:23Z</time>
      </trkpt>
      <trkpt lat="45.86977" lon="6.43899">
        <ele>1924.4757</ele>
        <time>2013-12-08T10:35:28Z</time>
      </trkpt>
      <trkpt lat="45.86976" lon="6.43909">
        <ele>1927.0115</ele>
        <time>2013-12-08T10:35:33Z</time>
      </trkpt>
      <trkpt lat="45.86977" lon="6.43908">
        <ele>1927.0115</ele>
        <time>2013-12-08T10:35:38Z</time>
      </trkpt>
      <trkpt lat="45.86977" lon="6.43908">
        <ele>1927.0115</ele>
        <time>2013-12-08T10:35:43Z</time>
      </trkpt>
      <trkpt lat="45.86976" lon="6.43911">
        <ele>1927.0115</ele>
        <time>2013-12-08T10:35:48Z</time>
      </trkpt>
      <trkpt lat="45.86973" lon="6.43912">
        <ele>1927.0115</ele>
        <time>2013-12-08T10:35:53Z</time>
      </trkpt>
      <trkpt lat="45.86971" lon="6.43912">
        <ele>1930.069</ele>
        <time>2013-12-08T10:35:58Z</time>
      </trkpt>
      <trkpt lat="45.86969" lon="6.43911">
        <ele>1930.069</ele>
        <time>2013-12-08T10:36:03Z</time>
      </trkpt>
      <trkpt lat="45.86967" lon="6.43909">
        <ele>1930.069</ele>
        <time>2013-12-08T10:36:08Z</time>
      </trkpt>
      <trkpt lat="45.86964" lon="6.43907">
        <ele>1930.069</ele>
        <time>2013-12-08T10:36:13Z</time>
      </trkpt>
      <trkpt lat="45.86963" lon="6.43907">
        <ele>1930.069</ele>
        <time>2013-12-08T10:36:19Z</time>
      </trkpt>
      <trkpt lat="45.86962" lon="6.43908">
        <ele>1933.4807</ele>
        <time>2013-12-08T10:36:23Z</time>
      </trkpt>
      <trkpt lat="45.86962" lon="6.43908">
        <ele>1933.4807</ele>
        <time>2013-12-08T10:36:28Z</time>
      </trkpt>
      <trkpt lat="45.8696" lon="6.43907">
        <ele>1933.4807</ele>
        <time>2013-12-08T10:36:33Z</time>
      </trkpt>
      <trkpt lat="45.86959" lon="6.43909">
        <ele>1933.4807</ele>
        <time>2013-12-08T10:36:38Z</time>
      </trkpt>
      <trkpt lat="45.86959" lon="6.43909">
        <ele>1933.4807</ele>
        <time>2013-12-08T10:36:43Z</time>
      </trkpt>
      <trkpt lat="45.86958" lon="6.4391">
        <ele>1933.4807</ele>
        <time>2013-12-08T10:36:48Z</time>
      </trkpt>
      <trkpt lat="45.86957" lon="6.43911">
        <ele>1933.4807</ele>
        <time>2013-12-08T10:36:54Z</time>
      </trkpt>
      <trkpt lat="45.86953" lon="6.43914">
        <ele>1937.0764</ele>
        <time>2013-12-08T10:36:58Z</time>
      </trkpt>
      <trkpt lat="45.8695" lon="6.43915">
        <ele>1937.0764</ele>
        <time>2013-12-08T10:37:03Z</time>
      </trkpt>
      <trkpt lat="45.86949" lon="6.43917">
        <ele>1937.0764</ele>
        <time>2013-12-08T10:37:09Z</time>
      </trkpt>
      <trkpt lat="45.86945" lon="6.43919">
        <ele>1940.366</ele>
        <time>2013-12-08T10:37:13Z</time>
      </trkpt>
      <trkpt lat="45.86943" lon="6.43921">
        <ele>1940.366</ele>
        <time>2013-12-08T10:37:18Z</time>
      </trkpt>
      <trkpt lat="45.86942" lon="6.43922">
        <ele>1940.366</ele>
        <time>2013-12-08T10:37:24Z</time>
      </trkpt>
      <trkpt lat="45.86938" lon="6.43924">
        <ele>1940.366</ele>
        <time>2013-12-08T10:37:28Z</time>
      </trkpt>
      <trkpt lat="45.86935" lon="6.43923">
        <ele>1943.819</ele>
        <time>2013-12-08T10:37:33Z</time>
      </trkpt>
      <trkpt lat="45.86934" lon="6.43924">
        <ele>1943.819</ele>
        <time>2013-12-08T10:37:39Z</time>
      </trkpt>
      <trkpt lat="45.86933" lon="6.43926">
        <ele>1943.819</ele>
        <time>2013-12-08T10:37:43Z</time>
      </trkpt>
      <trkpt lat="45.86933" lon="6.43926">
        <ele>1943.819</ele>
        <time>2013-12-08T10:37:48Z</time>
      </trkpt>
      <trkpt lat="45.86932" lon="6.43926">
        <ele>1943.819</ele>
        <time>2013-12-08T10:37:54Z</time>
      </trkpt>
      <trkpt lat="45.86932" lon="6.43926">
        <ele>1943.819</ele>
        <time>2013-12-08T10:37:58Z</time>
      </trkpt>
      <trkpt lat="45.86933" lon="6.43927">
        <ele>1943.819</ele>
        <time>2013-12-08T10:38:03Z</time>
      </trkpt>
      <trkpt lat="45.86933" lon="6.43927">
        <ele>1943.819</ele>
        <time>2013-12-08T10:38:09Z</time>
      </trkpt>
      <trkpt lat="45.86935" lon="6.4393">
        <ele>1943.819</ele>
        <time>2013-12-08T10:38:13Z</time>
      </trkpt>
      <trkpt lat="45.86937" lon="6.43933">
        <ele>1946.6016</ele>
        <time>2013-12-08T10:38:18Z</time>
      </trkpt>
      <trkpt lat="45.86939" lon="6.43935">
        <ele>1946.6016</ele>
        <time>2013-12-08T10:38:24Z</time>
      </trkpt>
      <trkpt lat="45.86941" lon="6.43939">
        <ele>1946.6016</ele>
        <time>2013-12-08T10:38:28Z</time>
      </trkpt>
      <trkpt lat="45.86942" lon="6.43941">
        <ele>1946.6016</ele>
        <time>2013-12-08T10:38:33Z</time>
      </trkpt>
      <trkpt lat="45.86944" lon="6.43945">
        <ele>1949.1539</ele>
        <time>2013-12-08T10:38:38Z</time>
      </trkpt>
      <trkpt lat="45.86947" lon="6.4395">
        <ele>1949.1539</ele>
        <time>2013-12-08T10:38:43Z</time>
      </trkpt>
      <trkpt lat="45.86949" lon="6.43953">
        <ele>1949.1539</ele>
        <time>2013-12-08T10:38:48Z</time>
      </trkpt>
      <trkpt lat="45.8695" lon="6.43953">
        <ele>1951.1637</ele>
        <time>2013-12-08T10:38:53Z</time>
      </trkpt>
      <trkpt lat="45.86951" lon="6.43956">
        <ele>1951.1637</ele>
        <time>2013-12-08T10:38:58Z</time>
      </trkpt>
      <trkpt lat="45.86951" lon="6.43959">
        <ele>1951.1637</ele>
        <time>2013-12-08T10:39:03Z</time>
      </trkpt>
      <trkpt lat="45.86954" lon="6.43968">
        <ele>1952.9342</ele>
        <time>2013-12-08T10:39:13Z</time>
      </trkpt>
      <trkpt lat="45.86955" lon="6.43971">
        <ele>1952.9342</ele>
        <time>2013-12-08T10:39:19Z</time>
      </trkpt>
      <trkpt lat="45.86959" lon="6.43975">
        <ele>1952.9342</ele>
        <time>2013-12-08T10:39:23Z</time>
      </trkpt>
      <trkpt lat="45.86961" lon="6.43977">
        <ele>1954.7327</ele>
        <time>2013-12-08T10:39:28Z</time>
      </trkpt>
      <trkpt lat="45.86961" lon="6.4398">
        <ele>1954.7327</ele>
        <time>2013-12-08T10:39:33Z</time>
      </trkpt>
      <trkpt lat="45.86962" lon="6.43981">
        <ele>1954.7327</ele>
        <time>2013-12-08T10:39:38Z</time>
      </trkpt>
      <trkpt lat="45.86962" lon="6.43984">
        <ele>1954.7327</ele>
        <time>2013-12-08T10:39:43Z</time>
      </trkpt>
      <trkpt lat="45.86963" lon="6.43985">
        <ele>1954.7327</ele>
        <time>2013-12-08T10:39:48Z</time>
      </trkpt>
      <trkpt lat="45.86964" lon="6.43986">
        <ele>1954.7327</ele>
        <time>2013-12-08T10:39:53Z</time>
      </trkpt>
      <trkpt lat="45.86965" lon="6.43988">
        <ele>1956.5905</ele>
        <time>2013-12-08T10:39:58Z</time>
      </trkpt>
      <trkpt lat="45.86965" lon="6.4399">
        <ele>1956.5905</ele>
        <time>2013-12-08T10:40:03Z</time>
      </trkpt>
      <trkpt lat="45.86967" lon="6.43994">
        <ele>1956.5905</ele>
        <time>2013-12-08T10:40:09Z</time>
      </trkpt>
      <trkpt lat="45.86967" lon="6.44001">
        <ele>1958.4354</ele>
        <time>2013-12-08T10:40:18Z</time>
      </trkpt>
      <trkpt lat="45.86968" lon="6.44002">
        <ele>1958.4354</ele>
        <time>2013-12-08T10:40:23Z</time>
      </trkpt>
      <trkpt lat="45.86965" lon="6.44009">
        <ele>1958.4354</ele>
        <time>2013-12-08T10:40:33Z</time>
      </trkpt>
      <trkpt lat="45.86963" lon="6.44012">
        <ele>1960.9792</ele>
        <time>2013-12-08T10:40:39Z</time>
      </trkpt>
      <trkpt lat="45.86959" lon="6.44017">
        <ele>1960.9792</ele>
        <time>2013-12-08T10:40:48Z</time>
      </trkpt>
      <trkpt lat="45.86959" lon="6.4402">
        <ele>1960.9792</ele>
        <time>2013-12-08T10:40:53Z</time>
      </trkpt>
      <trkpt lat="45.86957" lon="6.44024">
        <ele>1963.8702</ele>
        <time>2013-12-08T10:40:58Z</time>
      </trkpt>
      <trkpt lat="45.86955" lon="6.44026">
        <ele>1963.8702</ele>
        <time>2013-12-08T10:41:03Z</time>
      </trkpt>
      <trkpt lat="45.86954" lon="6.44028">
        <ele>1963.8702</ele>
        <time>2013-12-08T10:41:08Z</time>
      </trkpt>
      <trkpt lat="45.86952" lon="6.44032">
        <ele>1963.8702</ele>
        <time>2013-12-08T10:41:18Z</time>
      </trkpt>
      <trkpt lat="45.86953" lon="6.44033">
        <ele>1963.8702</ele>
        <time>2013-12-08T10:41:24Z</time>
      </trkpt>
      <trkpt lat="45.86955" lon="6.44036">
        <ele>1966.6376</ele>
        <time>2013-12-08T10:41:33Z</time>
      </trkpt>
      <trkpt lat="45.86956" lon="6.44037">
        <ele>1966.6376</ele>
        <time>2013-12-08T10:41:38Z</time>
      </trkpt>
      <trkpt lat="45.86957" lon="6.44038">
        <ele>1966.6376</ele>
        <time>2013-12-08T10:41:44Z</time>
      </trkpt>
      <trkpt lat="45.86957" lon="6.44039">
        <ele>1966.6376</ele>
        <time>2013-12-08T10:41:48Z</time>
      </trkpt>
      <trkpt lat="45.86958" lon="6.44039">
        <ele>1966.6376</ele>
        <time>2013-12-08T10:41:53Z</time>
      </trkpt>
      <trkpt lat="45.86959" lon="6.4404">
        <ele>1966.6376</ele>
        <time>2013-12-08T10:41:59Z</time>
      </trkpt>
      <trkpt lat="45.86959" lon="6.44044">
        <ele>1966.6376</ele>
        <time>2013-12-08T10:42:03Z</time>
      </trkpt>
      <trkpt lat="45.8696" lon="6.44047">
        <ele>1968.6437</ele>
        <time>2013-12-08T10:42:08Z</time>
      </trkpt>
      <trkpt lat="45.8696" lon="6.44047">
        <ele>1968.6437</ele>
        <time>2013-12-08T10:42:14Z</time>
      </trkpt>
      <trkpt lat="45.86961" lon="6.4405">
        <ele>1968.6437</ele>
        <time>2013-12-08T10:42:18Z</time>
      </trkpt>
      <trkpt lat="45.86959" lon="6.44054">
        <ele>1968.6437</ele>
        <time>2013-12-08T10:42:23Z</time>
      </trkpt>
      <trkpt lat="45.8696" lon="6.44055">
        <ele>1968.6437</ele>
        <time>2013-12-08T10:42:29Z</time>
      </trkpt>
      <trkpt lat="45.86958" lon="6.44058">
        <ele>1968.6437</ele>
        <time>2013-12-08T10:42:33Z</time>
      </trkpt>
      <trkpt lat="45.86956" lon="6.44059">
        <ele>1971.3606</ele>
        <time>2013-12-08T10:42:38Z</time>
      </trkpt>
      <trkpt lat="45.86955" lon="6.4406">
        <ele>1971.3606</ele>
        <time>2013-12-08T10:42:44Z</time>
      </trkpt>
      <trkpt lat="45.86953" lon="6.44061">
        <ele>1971.3606</ele>
        <time>2013-12-08T10:42:48Z</time>
      </trkpt>
      <trkpt lat="45.86951" lon="6.44063">
        <ele>1971.3606</ele>
        <time>2013-12-08T10:42:53Z</time>
      </trkpt>
      <trkpt lat="45.86951" lon="6.44063">
        <ele>1971.3606</ele>
        <time>2013-12-08T10:42:59Z</time>
      </trkpt>
      <trkpt lat="45.86947" lon="6.44066">
        <ele>1974.8242</ele>
        <time>2013-12-08T10:43:03Z</time>
      </trkpt>
      <trkpt lat="45.86948" lon="6.4407">
        <ele>1974.8242</ele>
        <time>2013-12-08T10:43:08Z</time>
      </trkpt>
      <trkpt lat="45.86948" lon="6.4407">
        <ele>1974.8242</ele>
        <time>2013-12-08T10:43:14Z</time>
      </trkpt>
      <trkpt lat="45.86944" lon="6.44072">
        <ele>1974.8242</ele>
        <time>2013-12-08T10:43:18Z</time>
      </trkpt>
      <trkpt lat="45.86942" lon="6.44074">
        <ele>1977.9996</ele>
        <time>2013-12-08T10:43:23Z</time>
      </trkpt>
      <trkpt lat="45.86941" lon="6.44074">
        <ele>1977.9996</ele>
        <time>2013-12-08T10:43:29Z</time>
      </trkpt>
      <trkpt lat="45.86938" lon="6.44076">
        <ele>1977.9996</ele>
        <time>2013-12-08T10:43:33Z</time>
      </trkpt>
      <trkpt lat="45.86936" lon="6.44076">
        <ele>1977.9996</ele>
        <time>2013-12-08T10:43:38Z</time>
      </trkpt>
      <trkpt lat="45.86935" lon="6.44076">
        <ele>1977.9996</ele>
        <time>2013-12-08T10:43:44Z</time>
      </trkpt>
      <trkpt lat="45.86933" lon="6.44076">
        <ele>1981.1964</ele>
        <time>2013-12-08T10:43:48Z</time>
      </trkpt>
      <trkpt lat="45.86931" lon="6.44075">
        <ele>1981.1964</ele>
        <time>2013-12-08T10:43:53Z</time>
      </trkpt>
      <trkpt lat="45.8693" lon="6.44075">
        <ele>1981.1964</ele>
        <time>2013-12-08T10:43:59Z</time>
      </trkpt>
      <trkpt lat="45.86927" lon="6.44075">
        <ele>1981.1964</ele>
        <time>2013-12-08T10:44:03Z</time>
      </trkpt>
      <trkpt lat="45.86926" lon="6.44075">
        <ele>1981.1964</ele>
        <time>2013-12-08T10:44:08Z</time>
      </trkpt>
      <trkpt lat="45.86926" lon="6.44074">
        <ele>1981.1964</ele>
        <time>2013-12-08T10:44:14Z</time>
      </trkpt>
      <trkpt lat="45.86923" lon="6.44073">
        <ele>1984.5288</ele>
        <time>2013-12-08T10:44:18Z</time>
      </trkpt>
      <trkpt lat="45.86921" lon="6.44072">
        <ele>1984.5288</ele>
        <time>2013-12-08T10:44:23Z</time>
      </trkpt>
      <trkpt lat="45.86921" lon="6.44072">
        <ele>1984.5288</ele>
        <time>2013-12-08T10:44:29Z</time>
      </trkpt>
      <trkpt lat="45.8692" lon="6.44072">
        <ele>1984.5288</ele>
        <time>2013-12-08T10:44:33Z</time>
      </trkpt>
      <trkpt lat="45.86918" lon="6.44072">
        <ele>1984.5288</ele>
        <time>2013-12-08T10:44:38Z</time>
      </trkpt>
      <trkpt lat="45.86916" lon="6.44072">
        <ele>1984.5288</ele>
        <time>2013-12-08T10:44:43Z</time>
      </trkpt>
      <trkpt lat="45.86915" lon="6.44072">
        <ele>1984.5288</ele>
        <time>2013-12-08T10:44:48Z</time>
      </trkpt>
      <trkpt lat="45.86915" lon="6.44072">
        <ele>1984.5288</ele>
        <time>2013-12-08T10:44:53Z</time>
      </trkpt>
      <trkpt lat="45.86914" lon="6.44072">
        <ele>1988.073</ele>
        <time>2013-12-08T10:44:58Z</time>
      </trkpt>
      <trkpt lat="45.86913" lon="6.44072">
        <ele>1988.073</ele>
        <time>2013-12-08T10:45:03Z</time>
      </trkpt>
      <trkpt lat="45.86913" lon="6.44072">
        <ele>1988.073</ele>
        <time>2013-12-08T10:45:08Z</time>
      </trkpt>
      <trkpt lat="45.86913" lon="6.44072">
        <ele>1988.073</ele>
        <time>2013-12-08T10:45:13Z</time>
      </trkpt>
      <trkpt lat="45.86913" lon="6.44072">
        <ele>1988.073</ele>
        <time>2013-12-08T10:45:18Z</time>
      </trkpt>
      <trkpt lat="45.86913" lon="6.44072">
        <ele>1988.073</ele>
        <time>2013-12-08T10:45:24Z</time>
      </trkpt>
      <trkpt lat="45.86912" lon="6.44075">
        <ele>1988.073</ele>
        <time>2013-12-08T10:45:28Z</time>
      </trkpt>
      <trkpt lat="45.86911" lon="6.44077">
        <ele>1988.073</ele>
        <time>2013-12-08T10:45:33Z</time>
      </trkpt>
      <trkpt lat="45.86911" lon="6.44078">
        <ele>1988.073</ele>
        <time>2013-12-08T10:45:39Z</time>
      </trkpt>
      <trkpt lat="45.86909" lon="6.44082">
        <ele>1988.073</ele>
        <time>2013-12-08T10:45:43Z</time>
      </trkpt>
      <trkpt lat="45.86907" lon="6.44087">
        <ele>1991.1356</ele>
        <time>2013-12-08T10:45:48Z</time>
      </trkpt>
      <trkpt lat="45.86906" lon="6.44089">
        <ele>1991.1356</ele>
        <time>2013-12-08T10:45:53Z</time>
      </trkpt>
      <trkpt lat="45.86906" lon="6.4409">
        <ele>1991.1356</ele>
        <time>2013-12-08T10:45:58Z</time>
      </trkpt>
      <trkpt lat="45.86905" lon="6.44091">
        <ele>1991.1356</ele>
        <time>2013-12-08T10:46:03Z</time>
      </trkpt>
      <trkpt lat="45.86905" lon="6.44091">
        <ele>1991.1356</ele>
        <time>2013-12-08T10:46:08Z</time>
      </trkpt>
      <trkpt lat="45.86905" lon="6.44091">
        <ele>1991.1356</ele>
        <time>2013-12-08T10:46:13Z</time>
      </trkpt>
      <trkpt lat="45.86903" lon="6.44096">
        <ele>1991.1356</ele>
        <time>2013-12-08T10:46:18Z</time>
      </trkpt>
      <trkpt lat="45.86901" lon="6.44099">
        <ele>1994.0839</ele>
        <time>2013-12-08T10:46:24Z</time>
      </trkpt>
      <trkpt lat="45.86899" lon="6.44103">
        <ele>1994.0839</ele>
        <time>2013-12-08T10:46:28Z</time>
      </trkpt>
      <trkpt lat="45.86897" lon="6.44107">
        <ele>1994.0839</ele>
        <time>2013-12-08T10:46:33Z</time>
      </trkpt>
      <trkpt lat="45.86896" lon="6.44108">
        <ele>1994.0839</ele>
        <time>2013-12-08T10:46:38Z</time>
      </trkpt>
      <trkpt lat="45.86894" lon="6.44111">
        <ele>1997.0856</ele>
        <time>2013-12-08T10:46:43Z</time>
      </trkpt>
      <trkpt lat="45.86894" lon="6.44112">
        <ele>1997.0856</ele>
        <time>2013-12-08T10:46:48Z</time>
      </trkpt>
      <trkpt lat="45.86893" lon="6.44114">
        <ele>1997.0856</ele>
        <time>2013-12-08T10:46:53Z</time>
      </trkpt>
      <trkpt lat="45.86893" lon="6.44114">
        <ele>1997.0856</ele>
        <time>2013-12-08T10:46:59Z</time>
      </trkpt>
      <trkpt lat="45.8689" lon="6.44119">
        <ele>1997.0856</ele>
        <time>2013-12-08T10:47:03Z</time>
      </trkpt>
      <trkpt lat="45.86889" lon="6.44121">
        <ele>1997.0856</ele>
        <time>2013-12-08T10:47:08Z</time>
      </trkpt>
      <trkpt lat="45.86889" lon="6.44122">
        <ele>2000.0367</ele>
        <time>2013-12-08T10:47:14Z</time>
      </trkpt>
      <trkpt lat="45.86887" lon="6.44124">
        <ele>2000.0367</ele>
        <time>2013-12-08T10:47:18Z</time>
      </trkpt>
      <trkpt lat="45.86887" lon="6.44125">
        <ele>2000.0367</ele>
        <time>2013-12-08T10:47:23Z</time>
      </trkpt>
      <trkpt lat="45.86887" lon="6.44125">
        <ele>2000.0367</ele>
        <time>2013-12-08T10:47:29Z</time>
      </trkpt>
      <trkpt lat="45.86885" lon="6.44128">
        <ele>2000.0367</ele>
        <time>2013-12-08T10:47:33Z</time>
      </trkpt>
      <trkpt lat="45.86883" lon="6.4413">
        <ele>2000.0367</ele>
        <time>2013-12-08T10:47:38Z</time>
      </trkpt>
      <trkpt lat="45.86883" lon="6.44132">
        <ele>2002.9418</ele>
        <time>2013-12-08T10:47:43Z</time>
      </trkpt>
      <trkpt lat="45.86882" lon="6.44132">
        <ele>2002.9418</ele>
        <time>2013-12-08T10:47:48Z</time>
      </trkpt>
      <trkpt lat="45.86879" lon="6.44134">
        <ele>2002.9418</ele>
        <time>2013-12-08T10:47:53Z</time>
      </trkpt>
      <trkpt lat="45.86878" lon="6.44136">
        <ele>2002.9418</ele>
        <time>2013-12-08T10:47:58Z</time>
      </trkpt>
      <trkpt lat="45.86877" lon="6.44137">
        <ele>2002.9418</ele>
        <time>2013-12-08T10:48:03Z</time>
      </trkpt>
      <trkpt lat="45.86877" lon="6.44138">
        <ele>2002.9418</ele>
        <time>2013-12-08T10:48:08Z</time>
      </trkpt>
      <trkpt lat="45.86876" lon="6.4414">
        <ele>2005.6609</ele>
        <time>2013-12-08T10:48:13Z</time>
      </trkpt>
      <trkpt lat="45.86874" lon="6.44144">
        <ele>2005.6609</ele>
        <time>2013-12-08T10:48:18Z</time>
      </trkpt>
      <trkpt lat="45.86873" lon="6.44144">
        <ele>2005.6609</ele>
        <time>2013-12-08T10:48:24Z</time>
      </trkpt>
      <trkpt lat="45.86871" lon="6.44148">
        <ele>2005.6609</ele>
        <time>2013-12-08T10:48:28Z</time>
      </trkpt>
      <trkpt lat="45.86871" lon="6.44148">
        <ele>2005.6609</ele>
        <time>2013-12-08T10:48:33Z</time>
      </trkpt>
      <trkpt lat="45.86871" lon="6.44148">
        <ele>2005.6609</ele>
        <time>2013-12-08T10:48:38Z</time>
      </trkpt>
      <trkpt lat="45.86869" lon="6.44151">
        <ele>2008.9153</ele>
        <time>2013-12-08T10:48:43Z</time>
      </trkpt>
      <trkpt lat="45.86866" lon="6.44153">
        <ele>2008.9153</ele>
        <time>2013-12-08T10:48:48Z</time>
      </trkpt>
      <trkpt lat="45.86865" lon="6.44155">
        <ele>2008.9153</ele>
        <time>2013-12-08T10:48:54Z</time>
      </trkpt>
      <trkpt lat="45.86864" lon="6.44157">
        <ele>2008.9153</ele>
        <time>2013-12-08T10:48:58Z</time>
      </trkpt>
      <trkpt lat="45.86863" lon="6.44158">
        <ele>2008.9153</ele>
        <time>2013-12-08T10:49:03Z</time>
      </trkpt>
      <trkpt lat="45.86863" lon="6.44159">
        <ele>2008.9153</ele>
        <time>2013-12-08T10:49:09Z</time>
      </trkpt>
      <trkpt lat="45.86863" lon="6.44159">
        <ele>2008.9153</ele>
        <time>2013-12-08T10:49:13Z</time>
      </trkpt>
      <trkpt lat="45.86863" lon="6.44159">
        <ele>2008.9153</ele>
        <time>2013-12-08T10:49:18Z</time>
      </trkpt>
      <trkpt lat="45.86863" lon="6.44159">
        <ele>2008.9153</ele>
        <time>2013-12-08T10:49:24Z</time>
      </trkpt>
      <trkpt lat="45.86863" lon="6.44159">
        <ele>2008.9153</ele>
        <time>2013-12-08T10:49:28Z</time>
      </trkpt>
      <trkpt lat="45.86863" lon="6.44159">
        <ele>2008.9153</ele>
        <time>2013-12-08T10:49:33Z</time>
      </trkpt>
      <trkpt lat="45.86862" lon="6.4416">
        <ele>2012.089</ele>
        <time>2013-12-08T10:49:38Z</time>
      </trkpt>
      <trkpt lat="45.86861" lon="6.44165">
        <ele>2012.089</ele>
        <time>2013-12-08T10:49:43Z</time>
      </trkpt>
      <trkpt lat="45.86857" lon="6.44173">
        <ele>2015.6205</ele>
        <time>2013-12-08T10:49:48Z</time>
      </trkpt>
      <trkpt lat="45.86856" lon="6.44175">
        <ele>2015.6205</ele>
        <time>2013-12-08T10:49:53Z</time>
      </trkpt>
      <trkpt lat="45.86855" lon="6.44176">
        <ele>2015.6205</ele>
        <time>2013-12-08T10:49:58Z</time>
      </trkpt>
      <trkpt lat="45.86855" lon="6.44177">
        <ele>2015.6205</ele>
        <time>2013-12-08T10:50:03Z</time>
      </trkpt>
      <trkpt lat="45.86854" lon="6.44179">
        <ele>2015.6205</ele>
        <time>2013-12-08T10:50:09Z</time>
      </trkpt>
      <trkpt lat="45.86854" lon="6.44179">
        <ele>2015.6205</ele>
        <time>2013-12-08T10:50:13Z</time>
      </trkpt>
      <trkpt lat="45.86854" lon="6.4418">
        <ele>2015.6205</ele>
        <time>2013-12-08T10:50:18Z</time>
      </trkpt>
      <trkpt lat="45.86854" lon="6.4418">
        <ele>2015.6205</ele>
        <time>2013-12-08T10:50:24Z</time>
      </trkpt>
      <trkpt lat="45.86854" lon="6.4418">
        <ele>2015.6205</ele>
        <time>2013-12-08T10:50:28Z</time>
      </trkpt>
      <trkpt lat="45.86853" lon="6.44182">
        <ele>2015.6205</ele>
        <time>2013-12-08T10:50:33Z</time>
      </trkpt>
      <trkpt lat="45.86852" lon="6.44185">
        <ele>2019.0931</ele>
        <time>2013-12-08T10:50:38Z</time>
      </trkpt>
      <trkpt lat="45.86851" lon="6.44189">
        <ele>2019.0931</ele>
        <time>2013-12-08T10:50:43Z</time>
      </trkpt>
      <trkpt lat="45.8685" lon="6.44191">
        <ele>2019.0931</ele>
        <time>2013-12-08T10:50:48Z</time>
      </trkpt>
      <trkpt lat="45.86849" lon="6.44192">
        <ele>2019.0931</ele>
        <time>2013-12-08T10:50:53Z</time>
      </trkpt>
      <trkpt lat="45.86849" lon="6.44192">
        <ele>2019.0931</ele>
        <time>2013-12-08T10:50:58Z</time>
      </trkpt>
      <trkpt lat="45.86849" lon="6.44192">
        <ele>2019.0931</ele>
        <time>2013-12-08T10:51:03Z</time>
      </trkpt>
      <trkpt lat="45.86849" lon="6.44192">
        <ele>2019.0931</ele>
        <time>2013-12-08T10:51:08Z</time>
      </trkpt>
      <trkpt lat="45.86847" lon="6.442">
        <ele>2022.8998</ele>
        <time>2013-12-08T10:51:13Z</time>
      </trkpt>
      <trkpt lat="45.86846" lon="6.44202">
        <ele>2022.8998</ele>
        <time>2013-12-08T10:51:18Z</time>
      </trkpt>
      <trkpt lat="45.86845" lon="6.44204">
        <ele>2022.8998</ele>
        <time>2013-12-08T10:51:24Z</time>
      </trkpt>
      <trkpt lat="45.86841" lon="6.44213">
        <ele>2026.5817</ele>
        <time>2013-12-08T10:51:33Z</time>
      </trkpt>
      <trkpt lat="45.8684" lon="6.44216">
        <ele>2026.5817</ele>
        <time>2013-12-08T10:51:38Z</time>
      </trkpt>
      <trkpt lat="45.86839" lon="6.44217">
        <ele>2026.5817</ele>
        <time>2013-12-08T10:51:43Z</time>
      </trkpt>
      <trkpt lat="45.86838" lon="6.44217">
        <ele>2026.5817</ele>
        <time>2013-12-08T10:51:48Z</time>
      </trkpt>
      <trkpt lat="45.86838" lon="6.44217">
        <ele>2026.5817</ele>
        <time>2013-12-08T10:51:53Z</time>
      </trkpt>
      <trkpt lat="45.86838" lon="6.44217">
        <ele>2026.5817</ele>
        <time>2013-12-08T10:51:58Z</time>
      </trkpt>
      <trkpt lat="45.86836" lon="6.44217">
        <ele>2026.5817</ele>
        <time>2013-12-08T10:52:03Z</time>
      </trkpt>
      <trkpt lat="45.86833" lon="6.44218">
        <ele>2026.5817</ele>
        <time>2013-12-08T10:52:09Z</time>
      </trkpt>
      <trkpt lat="45.86831" lon="6.44218">
        <ele>2029.8727</ele>
        <time>2013-12-08T10:52:13Z</time>
      </trkpt>
      <trkpt lat="45.86831" lon="6.44218">
        <ele>2029.8727</ele>
        <time>2013-12-08T10:52:18Z</time>
      </trkpt>
      <trkpt lat="45.86831" lon="6.44218">
        <ele>2029.8727</ele>
        <time>2013-12-08T10:52:24Z</time>
      </trkpt>
      <trkpt lat="45.86829" lon="6.44217">
        <ele>2029.8727</ele>
        <time>2013-12-08T10:52:28Z</time>
      </trkpt>
      <trkpt lat="45.8682" lon="6.44215">
        <ele>2032.8444</ele>
        <time>2013-12-08T10:52:33Z</time>
      </trkpt>
      <trkpt lat="45.86819" lon="6.44215">
        <ele>2032.8444</ele>
        <time>2013-12-08T10:52:38Z</time>
      </trkpt>
      <trkpt lat="45.86818" lon="6.44215">
        <ele>2032.8444</ele>
        <time>2013-12-08T10:52:45Z</time>
      </trkpt>
      <trkpt lat="45.86817" lon="6.44215">
        <ele>2032.8444</ele>
        <time>2013-12-08T10:52:48Z</time>
      </trkpt>
      <trkpt lat="45.86817" lon="6.44215">
        <ele>2032.8444</ele>
        <time>2013-12-08T10:52:53Z</time>
      </trkpt>
      <trkpt lat="45.86817" lon="6.44215">
        <ele>2032.8444</ele>
        <time>2013-12-08T10:52:59Z</time>
      </trkpt>
      <trkpt lat="45.86816" lon="6.44214">
        <ele>2032.8444</ele>
        <time>2013-12-08T10:53:03Z</time>
      </trkpt>
      <trkpt lat="45.86811" lon="6.44213">
        <ele>2035.0741</ele>
        <time>2013-12-08T10:53:08Z</time>
      </trkpt>
      <trkpt lat="45.8681" lon="6.44212">
        <ele>2035.0741</ele>
        <time>2013-12-08T10:53:14Z</time>
      </trkpt>
      <trkpt lat="45.86806" lon="6.4421">
        <ele>2035.0741</ele>
        <time>2013-12-08T10:53:18Z</time>
      </trkpt>
      <trkpt lat="45.86805" lon="6.44213">
        <ele>2035.0741</ele>
        <time>2013-12-08T10:53:23Z</time>
      </trkpt>
      <trkpt lat="45.86805" lon="6.44213">
        <ele>2035.0741</ele>
        <time>2013-12-08T10:53:29Z</time>
      </trkpt>
      <trkpt lat="45.86805" lon="6.44214">
        <ele>2035.0741</ele>
        <time>2013-12-08T10:53:33Z</time>
      </trkpt>
      <trkpt lat="45.86805" lon="6.44214">
        <ele>2035.0741</ele>
        <time>2013-12-08T10:53:38Z</time>
      </trkpt>
      <trkpt lat="45.86805" lon="6.44214">
        <ele>2035.0741</ele>
        <time>2013-12-08T10:53:44Z</time>
      </trkpt>
      <trkpt lat="45.86805" lon="6.44214">
        <ele>2035.0741</ele>
        <time>2013-12-08T10:53:48Z</time>
      </trkpt>
      <trkpt lat="45.86805" lon="6.44214">
        <ele>2035.0741</ele>
        <time>2013-12-08T10:53:53Z</time>
      </trkpt>
      <trkpt lat="45.86804" lon="6.44216">
        <ele>2037.397</ele>
        <time>2013-12-08T10:54:00Z</time>
      </trkpt>
      <trkpt lat="45.86803" lon="6.44219">
        <ele>2037.397</ele>
        <time>2013-12-08T10:54:03Z</time>
      </trkpt>
      <trkpt lat="45.86801" lon="6.44224">
        <ele>2037.397</ele>
        <time>2013-12-08T10:54:08Z</time>
      </trkpt>
      <trkpt lat="45.86802" lon="6.44226">
        <ele>2037.397</ele>
        <time>2013-12-08T10:54:14Z</time>
      </trkpt>
      <trkpt lat="45.86801" lon="6.44228">
        <ele>2037.397</ele>
        <time>2013-12-08T10:54:18Z</time>
      </trkpt>
      <trkpt lat="45.868" lon="6.44229">
        <ele>2039.924</ele>
        <time>2013-12-08T10:54:23Z</time>
      </trkpt>
      <trkpt lat="45.868" lon="6.4423">
        <ele>2039.924</ele>
        <time>2013-12-08T10:54:29Z</time>
      </trkpt>
      <trkpt lat="45.868" lon="6.4423">
        <ele>2039.924</ele>
        <time>2013-12-08T10:54:33Z</time>
      </trkpt>
      <trkpt lat="45.868" lon="6.4423">
        <ele>2039.924</ele>
        <time>2013-12-08T10:54:38Z</time>
      </trkpt>
      <trkpt lat="45.868" lon="6.4423">
        <ele>2039.924</ele>
        <time>2013-12-08T10:54:44Z</time>
      </trkpt>
      <trkpt lat="45.868" lon="6.4423">
        <ele>2039.924</ele>
        <time>2013-12-08T10:54:48Z</time>
      </trkpt>
      <trkpt lat="45.868" lon="6.4423">
        <ele>2039.924</ele>
        <time>2013-12-08T10:54:53Z</time>
      </trkpt>
      <trkpt lat="45.868" lon="6.4423">
        <ele>2039.924</ele>
        <time>2013-12-08T10:54:59Z</time>
      </trkpt>
      <trkpt lat="45.868" lon="6.4423">
        <ele>2039.924</ele>
        <time>2013-12-08T10:55:03Z</time>
      </trkpt>
      <trkpt lat="45.86798" lon="6.44231">
        <ele>2039.924</ele>
        <time>2013-12-08T10:55:08Z</time>
      </trkpt>
      <trkpt lat="45.86796" lon="6.44231">
        <ele>2039.924</ele>
        <time>2013-12-08T10:55:14Z</time>
      </trkpt>
      <trkpt lat="45.8679" lon="6.4423">
        <ele>2042.584</ele>
        <time>2013-12-08T10:55:18Z</time>
      </trkpt>
      <trkpt lat="45.86789" lon="6.4423">
        <ele>2042.584</ele>
        <time>2013-12-08T10:55:23Z</time>
      </trkpt>
      <trkpt lat="45.86789" lon="6.4423">
        <ele>2042.584</ele>
        <time>2013-12-08T10:55:29Z</time>
      </trkpt>
      <trkpt lat="45.86784" lon="6.4423">
        <ele>2042.584</ele>
        <time>2013-12-08T10:55:33Z</time>
      </trkpt>
      <trkpt lat="45.86783" lon="6.4423">
        <ele>2042.584</ele>
        <time>2013-12-08T10:55:38Z</time>
      </trkpt>
      <trkpt lat="45.86783" lon="6.4423">
        <ele>2042.584</ele>
        <time>2013-12-08T10:55:44Z</time>
      </trkpt>
      <trkpt lat="45.86783" lon="6.4423">
        <ele>2042.584</ele>
        <time>2013-12-08T10:55:48Z</time>
      </trkpt>
      <trkpt lat="45.86783" lon="6.4423">
        <ele>2042.584</ele>
        <time>2013-12-08T10:55:53Z</time>
      </trkpt>
      <trkpt lat="45.86781" lon="6.4423">
        <ele>2044.4896</ele>
        <time>2013-12-08T10:55:59Z</time>
      </trkpt>
      <trkpt lat="45.86777" lon="6.44229">
        <ele>2044.4896</ele>
        <time>2013-12-08T10:56:03Z</time>
      </trkpt>
      <trkpt lat="45.86775" lon="6.44229">
        <ele>2044.4896</ele>
        <time>2013-12-08T10:56:08Z</time>
      </trkpt>
      <trkpt lat="45.86775" lon="6.44229">
        <ele>2044.4896</ele>
        <time>2013-12-08T10:56:14Z</time>
      </trkpt>
      <trkpt lat="45.86775" lon="6.44229">
        <ele>2044.4896</ele>
        <time>2013-12-08T10:56:18Z</time>
      </trkpt>
      <trkpt lat="45.86775" lon="6.44229">
        <ele>2044.4896</ele>
        <time>2013-12-08T10:56:23Z</time>
      </trkpt>
      <trkpt lat="45.86775" lon="6.44229">
        <ele>2044.4896</ele>
        <time>2013-12-08T10:56:29Z</time>
      </trkpt>
      <trkpt lat="45.86775" lon="6.44229">
        <ele>2044.4896</ele>
        <time>2013-12-08T10:56:33Z</time>
      </trkpt>
      <trkpt lat="45.86775" lon="6.44229">
        <ele>2044.4896</ele>
        <time>2013-12-08T10:56:38Z</time>
      </trkpt>
      <trkpt lat="45.86775" lon="6.44229">
        <ele>2044.4896</ele>
        <time>2013-12-08T10:56:44Z</time>
      </trkpt>
      <trkpt lat="45.86775" lon="6.44229">
        <ele>2044.4896</ele>
        <time>2013-12-08T10:56:48Z</time>
      </trkpt>
      <trkpt lat="45.86775" lon="6.44229">
        <ele>2044.4896</ele>
        <time>2013-12-08T10:56:53Z</time>
      </trkpt>
      <trkpt lat="45.86775" lon="6.44229">
        <ele>2044.4896</ele>
        <time>2013-12-08T10:57:00Z</time>
      </trkpt>
      <trkpt lat="45.86775" lon="6.44229">
        <ele>2044.4896</ele>
        <time>2013-12-08T10:57:03Z</time>
      </trkpt>
      <trkpt lat="45.86775" lon="6.44229">
        <ele>2044.4896</ele>
        <time>2013-12-08T10:57:08Z</time>
      </trkpt>
      <trkpt lat="45.86775" lon="6.44229">
        <ele>2044.4896</ele>
        <time>2013-12-08T10:57:14Z</time>
      </trkpt>
      <trkpt lat="45.86775" lon="6.44229">
        <ele>2044.4896</ele>
        <time>2013-12-08T10:57:23Z</time>
      </trkpt>
      <trkpt lat="45.86775" lon="6.44229">
        <ele>2044.4896</ele>
        <time>2013-12-08T10:57:28Z</time>
      </trkpt>
      <trkpt lat="45.86775" lon="6.44229">
        <ele>2044.4896</ele>
        <time>2013-12-08T10:57:38Z</time>
      </trkpt>
      <trkpt lat="45.86775" lon="6.44229">
        <ele>2044.4896</ele>
        <time>2013-12-08T10:57:44Z</time>
      </trkpt>
      <trkpt lat="45.86773" lon="6.44231">
        <ele>2044.4896</ele>
        <time>2013-12-08T10:57:53Z</time>
      </trkpt>
      <trkpt lat="45.86772" lon="6.44239">
        <ele>2046.6075</ele>
        <time>2013-12-08T10:57:59Z</time>
      </trkpt>
      <trkpt lat="45.8677" lon="6.44243">
        <ele>2046.6075</ele>
        <time>2013-12-08T10:58:03Z</time>
      </trkpt>
      <trkpt lat="45.86767" lon="6.44247">
        <ele>2046.6075</ele>
        <time>2013-12-08T10:58:08Z</time>
      </trkpt>
      <trkpt lat="45.86765" lon="6.44249">
        <ele>2049.487</ele>
        <time>2013-12-08T10:58:14Z</time>
      </trkpt>
      <trkpt lat="45.86765" lon="6.44251">
        <ele>2049.487</ele>
        <time>2013-12-08T10:58:23Z</time>
      </trkpt>
      <trkpt lat="45.86765" lon="6.44251">
        <ele>2049.487</ele>
        <time>2013-12-08T10:58:29Z</time>
      </trkpt>
      <trkpt lat="45.86764" lon="6.44251">
        <ele>2049.487</ele>
        <time>2013-12-08T10:58:38Z</time>
      </trkpt>
      <trkpt lat="45.86764" lon="6.44251">
        <ele>2049.487</ele>
        <time>2013-12-08T10:58:44Z</time>
      </trkpt>
      <trkpt lat="45.86764" lon="6.44251">
        <ele>2049.487</ele>
        <time>2013-12-08T10:58:48Z</time>
      </trkpt>
      <trkpt lat="45.86764" lon="6.44251">
        <ele>2049.487</ele>
        <time>2013-12-08T10:58:54Z</time>
      </trkpt>
      <trkpt lat="45.86764" lon="6.44251">
        <ele>2049.487</ele>
        <time>2013-12-08T10:58:58Z</time>
      </trkpt>
      <trkpt lat="45.86764" lon="6.44251">
        <ele>2049.487</ele>
        <time>2013-12-08T10:59:03Z</time>
      </trkpt>
      <trkpt lat="45.86764" lon="6.44251">
        <ele>2049.487</ele>
        <time>2013-12-08T10:59:08Z</time>
      </trkpt>
      <trkpt lat="45.86763" lon="6.4425">
        <ele>2049.487</ele>
        <time>2013-12-08T10:59:13Z</time>
      </trkpt>
      <trkpt lat="45.86761" lon="6.4425">
        <ele>2049.487</ele>
        <time>2013-12-08T10:59:18Z</time>
      </trkpt>
      <trkpt lat="45.86759" lon="6.4425">
        <ele>2049.487</ele>
        <time>2013-12-08T10:59:23Z</time>
      </trkpt>
      <trkpt lat="45.86757" lon="6.44249">
        <ele>2052.1792</ele>
        <time>2013-12-08T10:59:29Z</time>
      </trkpt>
      <trkpt lat="45.86757" lon="6.44249">
        <ele>2052.1792</ele>
        <time>2013-12-08T10:59:33Z</time>
      </trkpt>
      <trkpt lat="45.86757" lon="6.44249">
        <ele>2052.1792</ele>
        <time>2013-12-08T10:59:38Z</time>
      </trkpt>
      <trkpt lat="45.86756" lon="6.44248">
        <ele>2052.1792</ele>
        <time>2013-12-08T10:59:44Z</time>
      </trkpt>
      <trkpt lat="45.86754" lon="6.44246">
        <ele>2052.1792</ele>
        <time>2013-12-08T10:59:48Z</time>
      </trkpt>
      <trkpt lat="45.86753" lon="6.44245">
        <ele>2052.1792</ele>
        <time>2013-12-08T10:59:53Z</time>
      </trkpt>
      <trkpt lat="45.86753" lon="6.44244">
        <ele>2052.1792</ele>
        <time>2013-12-08T10:59:59Z</time>
      </trkpt>
      <trkpt lat="45.86752" lon="6.44244">
        <ele>2052.1792</ele>
        <time>2013-12-08T11:00:03Z</time>
      </trkpt>
      <trkpt lat="45.8675" lon="6.44242">
        <ele>2052.1792</ele>
        <time>2013-12-08T11:00:08Z</time>
      </trkpt>
      <trkpt lat="45.86749" lon="6.44243">
        <ele>2052.1792</ele>
        <time>2013-12-08T11:00:13Z</time>
      </trkpt>
      <trkpt lat="45.86749" lon="6.44243">
        <ele>2052.1792</ele>
        <time>2013-12-08T11:00:18Z</time>
      </trkpt>
      <trkpt lat="45.86749" lon="6.44243">
        <ele>2055.535</ele>
        <time>2013-12-08T11:00:23Z</time>
      </trkpt>
      <trkpt lat="45.86749" lon="6.44243">
        <ele>2055.535</ele>
        <time>2013-12-08T11:00:28Z</time>
      </trkpt>
      <trkpt lat="45.86749" lon="6.44243">
        <ele>2055.535</ele>
        <time>2013-12-08T11:00:33Z</time>
      </trkpt>
      <trkpt lat="45.86749" lon="6.44243">
        <ele>2055.535</ele>
        <time>2013-12-08T11:00:38Z</time>
      </trkpt>
      <trkpt lat="45.86749" lon="6.44243">
        <ele>2055.535</ele>
        <time>2013-12-08T11:00:44Z</time>
      </trkpt>
      <trkpt lat="45.86749" lon="6.44243">
        <ele>2055.535</ele>
        <time>2013-12-08T11:00:48Z</time>
      </trkpt>
      <trkpt lat="45.86749" lon="6.44243">
        <ele>2055.535</ele>
        <time>2013-12-08T11:00:53Z</time>
      </trkpt>
      <trkpt lat="45.86749" lon="6.44243">
        <ele>2055.535</ele>
        <time>2013-12-08T11:00:59Z</time>
      </trkpt>
      <trkpt lat="45.86749" lon="6.44243">
        <ele>2055.535</ele>
        <time>2013-12-08T11:01:03Z</time>
      </trkpt>
      <trkpt lat="45.86749" lon="6.44243">
        <ele>2055.535</ele>
        <time>2013-12-08T11:01:08Z</time>
      </trkpt>
      <trkpt lat="45.86749" lon="6.44243">
        <ele>2055.535</ele>
        <time>2013-12-08T11:01:14Z</time>
      </trkpt>
      <trkpt lat="45.86749" lon="6.44243">
        <ele>2055.535</ele>
        <time>2013-12-08T11:01:18Z</time>
      </trkpt>
      <trkpt lat="45.86749" lon="6.44243">
        <ele>2055.535</ele>
        <time>2013-12-08T11:01:23Z</time>
      </trkpt>
      <trkpt lat="45.86749" lon="6.44243">
        <ele>2055.535</ele>
        <time>2013-12-08T11:01:29Z</time>
      </trkpt>
      <trkpt lat="45.86749" lon="6.44243">
        <ele>2055.535</ele>
        <time>2013-12-08T11:01:33Z</time>
      </trkpt>
      <trkpt lat="45.86749" lon="6.44243">
        <ele>2055.535</ele>
        <time>2013-12-08T11:01:38Z</time>
      </trkpt>
      <trkpt lat="45.86749" lon="6.44243">
        <ele>2055.535</ele>
        <time>2013-12-08T11:01:43Z</time>
      </trkpt>
      <trkpt lat="45.86749" lon="6.44243">
        <ele>2055.535</ele>
        <time>2013-12-08T11:01:48Z</time>
      </trkpt>
      <trkpt lat="45.86749" lon="6.44243">
        <ele>2055.535</ele>
        <time>2013-12-08T11:01:53Z</time>
      </trkpt>
      <trkpt lat="45.86749" lon="6.44243">
        <ele>2055.535</ele>
        <time>2013-12-08T11:01:58Z</time>
      </trkpt>
      <trkpt lat="45.86749" lon="6.44243">
        <ele>2055.535</ele>
        <time>2013-12-08T11:02:03Z</time>
      </trkpt>
      <trkpt lat="45.86749" lon="6.44243">
        <ele>2055.535</ele>
        <time>2013-12-08T11:02:08Z</time>
      </trkpt>
      <trkpt lat="45.86749" lon="6.44243">
        <ele>2055.535</ele>
        <time>2013-12-08T11:02:13Z</time>
      </trkpt>
      <trkpt lat="45.86749" lon="6.44243">
        <ele>2055.535</ele>
        <time>2013-12-08T11:02:18Z</time>
      </trkpt>
      <trkpt lat="45.86748" lon="6.44244">
        <ele>2055.535</ele>
        <time>2013-12-08T11:02:23Z</time>
      </trkpt>
      <trkpt lat="45.86747" lon="6.44253">
        <ele>2055.535</ele>
        <time>2013-12-08T11:02:28Z</time>
      </trkpt>
      <trkpt lat="45.86747" lon="6.44255">
        <ele>2058.294</ele>
        <time>2013-12-08T11:02:33Z</time>
      </trkpt>
      <trkpt lat="45.86747" lon="6.44256">
        <ele>2058.294</ele>
        <time>2013-12-08T11:02:38Z</time>
      </trkpt>
      <trkpt lat="45.86747" lon="6.44257">
        <ele>2058.294</ele>
        <time>2013-12-08T11:02:43Z</time>
      </trkpt>
      <trkpt lat="45.86747" lon="6.44257">
        <ele>2058.294</ele>
        <time>2013-12-08T11:02:48Z</time>
      </trkpt>
      <trkpt lat="45.86747" lon="6.44258">
        <ele>2058.294</ele>
        <time>2013-12-08T11:02:54Z</time>
      </trkpt>
      <trkpt lat="45.86746" lon="6.4426">
        <ele>2058.294</ele>
        <time>2013-12-08T11:02:58Z</time>
      </trkpt>
      <trkpt lat="45.86746" lon="6.4426">
        <ele>2058.294</ele>
        <time>2013-12-08T11:03:03Z</time>
      </trkpt>
      <trkpt lat="45.86746" lon="6.44261">
        <ele>2058.294</ele>
        <time>2013-12-08T11:03:08Z</time>
      </trkpt>
      <trkpt lat="45.86746" lon="6.44261">
        <ele>2058.294</ele>
        <time>2013-12-08T11:03:14Z</time>
      </trkpt>
      <trkpt lat="45.86746" lon="6.44261">
        <ele>2058.294</ele>
        <time>2013-12-08T11:03:18Z</time>
      </trkpt>
      <trkpt lat="45.86746" lon="6.44261">
        <ele>2058.294</ele>
        <time>2013-12-08T11:03:23Z</time>
      </trkpt>
      <trkpt lat="45.86746" lon="6.44261">
        <ele>2058.294</ele>
        <time>2013-12-08T11:03:29Z</time>
      </trkpt>
      <trkpt lat="45.86746" lon="6.44261">
        <ele>2058.294</ele>
        <time>2013-12-08T11:03:33Z</time>
      </trkpt>
      <trkpt lat="45.86746" lon="6.44262">
        <ele>2058.294</ele>
        <time>2013-12-08T11:03:38Z</time>
      </trkpt>
      <trkpt lat="45.86746" lon="6.44262">
        <ele>2058.294</ele>
        <time>2013-12-08T11:03:44Z</time>
      </trkpt>
      <trkpt lat="45.86746" lon="6.44264">
        <ele>2058.294</ele>
        <time>2013-12-08T11:03:48Z</time>
      </trkpt>
      <trkpt lat="45.86746" lon="6.44264">
        <ele>2058.294</ele>
        <time>2013-12-08T11:03:53Z</time>
      </trkpt>
      <trkpt lat="45.86746" lon="6.44264">
        <ele>2058.294</ele>
        <time>2013-12-08T11:03:59Z</time>
      </trkpt>
      <trkpt lat="45.86747" lon="6.44264">
        <ele>2058.294</ele>
        <time>2013-12-08T11:04:03Z</time>
      </trkpt>
      <trkpt lat="45.86746" lon="6.44264">
        <ele>2058.294</ele>
        <time>2013-12-08T11:04:08Z</time>
      </trkpt>
      <trkpt lat="45.86747" lon="6.44264">
        <ele>2058.294</ele>
        <time>2013-12-08T11:04:14Z</time>
      </trkpt>
      <trkpt lat="45.86747" lon="6.44264">
        <ele>2061.6252</ele>
        <time>2013-12-08T11:04:18Z</time>
      </trkpt>
      <trkpt lat="45.86747" lon="6.44264">
        <ele>2061.6252</ele>
        <time>2013-12-08T11:04:23Z</time>
      </trkpt>
      <trkpt lat="45.86747" lon="6.44264">
        <ele>2061.6252</ele>
        <time>2013-12-08T11:04:29Z</time>
      </trkpt>
      <trkpt lat="45.86747" lon="6.44265">
        <ele>2061.6252</ele>
        <time>2013-12-08T11:04:33Z</time>
      </trkpt>
      <trkpt lat="45.86747" lon="6.44264">
        <ele>2061.6252</ele>
        <time>2013-12-08T11:04:38Z</time>
      </trkpt>
      <trkpt lat="45.86747" lon="6.44264">
        <ele>2061.6252</ele>
        <time>2013-12-08T11:04:43Z</time>
      </trkpt>
      <trkpt lat="45.86747" lon="6.44264">
        <ele>2061.6252</ele>
        <time>2013-12-08T11:04:48Z</time>
      </trkpt>
      <trkpt lat="45.86747" lon="6.44264">
        <ele>2061.6252</ele>
        <time>2013-12-08T11:04:53Z</time>
      </trkpt>
      <trkpt lat="45.86747" lon="6.44264">
        <ele>2061.6252</ele>
        <time>2013-12-08T11:04:58Z</time>
      </trkpt>
      <trkpt lat="45.86747" lon="6.44264">
        <ele>2061.6252</ele>
        <time>2013-12-08T11:05:03Z</time>
      </trkpt>
      <trkpt lat="45.86747" lon="6.44264">
        <ele>2061.6252</ele>
        <time>2013-12-08T11:05:08Z</time>
      </trkpt>
      <trkpt lat="45.86747" lon="6.44264">
        <ele>2061.6252</ele>
        <time>2013-12-08T11:05:13Z</time>
      </trkpt>
      <trkpt lat="45.86747" lon="6.44265">
        <ele>2061.6252</ele>
        <time>2013-12-08T11:05:18Z</time>
      </trkpt>
      <trkpt lat="45.86747" lon="6.44266">
        <ele>2061.6252</ele>
        <time>2013-12-08T11:05:24Z</time>
      </trkpt>
      <trkpt lat="45.86747" lon="6.44266">
        <ele>2061.6252</ele>
        <time>2013-12-08T11:05:28Z</time>
      </trkpt>
      <trkpt lat="45.86747" lon="6.44266">
        <ele>2061.6252</ele>
        <time>2013-12-08T11:05:33Z</time>
      </trkpt>
      <trkpt lat="45.86747" lon="6.44266">
        <ele>2061.6252</ele>
        <time>2013-12-08T11:05:38Z</time>
      </trkpt>
      <trkpt lat="45.86747" lon="6.44266">
        <ele>2061.6252</ele>
        <time>2013-12-08T11:05:44Z</time>
      </trkpt>
      <trkpt lat="45.86747" lon="6.44266">
        <ele>2061.6252</ele>
        <time>2013-12-08T11:05:48Z</time>
      </trkpt>
      <trkpt lat="45.86747" lon="6.44266">
        <ele>2061.6252</ele>
        <time>2013-12-08T11:05:53Z</time>
      </trkpt>
      <trkpt lat="45.86747" lon="6.44266">
        <ele>2061.6252</ele>
        <time>2013-12-08T11:06:03Z</time>
      </trkpt>
      <trkpt lat="45.86747" lon="6.44266">
        <ele>2061.6252</ele>
        <time>2013-12-08T11:06:08Z</time>
      </trkpt>
      <trkpt lat="45.86747" lon="6.44266">
        <ele>2061.6252</ele>
        <time>2013-12-08T11:06:18Z</time>
      </trkpt>
      <trkpt lat="45.86747" lon="6.44266">
        <ele>2061.6252</ele>
        <time>2013-12-08T11:06:23Z</time>
      </trkpt>
      <trkpt lat="45.86747" lon="6.44266">
        <ele>2061.6252</ele>
        <time>2013-12-08T11:06:33Z</time>
      </trkpt>
      <trkpt lat="45.86747" lon="6.44266">
        <ele>2061.6252</ele>
        <time>2013-12-08T11:06:38Z</time>
      </trkpt>
      <trkpt lat="45.86747" lon="6.44266">
        <ele>2061.6252</ele>
        <time>2013-12-08T11:06:43Z</time>
      </trkpt>
      <trkpt lat="45.86747" lon="6.44266">
        <ele>2061.6252</ele>
        <time>2013-12-08T11:06:48Z</time>
      </trkpt>
      <trkpt lat="45.86747" lon="6.44266">
        <ele>2061.6252</ele>
        <time>2013-12-08T11:06:53Z</time>
      </trkpt>
      <trkpt lat="45.86747" lon="6.44266">
        <ele>2061.6252</ele>
        <time>2013-12-08T11:06:58Z</time>
      </trkpt>
      <trkpt lat="45.86747" lon="6.44266">
        <ele>2061.6252</ele>
        <time>2013-12-08T11:07:03Z</time>
      </trkpt>
      <trkpt lat="45.86747" lon="6.44266">
        <ele>2061.6252</ele>
        <time>2013-12-08T11:07:08Z</time>
      </trkpt>
      <trkpt lat="45.86747" lon="6.44266">
        <ele>2061.6252</ele>
        <time>2013-12-08T11:07:13Z</time>
      </trkpt>
      <trkpt lat="45.86747" lon="6.44266">
        <ele>2061.6252</ele>
        <time>2013-12-08T11:07:18Z</time>
      </trkpt>
      <trkpt lat="45.86747" lon="6.44266">
        <ele>2061.6252</ele>
        <time>2013-12-08T11:07:23Z</time>
      </trkpt>
      <trkpt lat="45.86747" lon="6.44266">
        <ele>2061.6252</ele>
        <time>2013-12-08T11:07:28Z</time>
      </trkpt>
      <trkpt lat="45.86747" lon="6.44266">
        <ele>2061.6252</ele>
        <time>2013-12-08T11:07:33Z</time>
      </trkpt>
      <trkpt lat="45.86747" lon="6.44267">
        <ele>2061.6252</ele>
        <time>2013-12-08T11:07:38Z</time>
      </trkpt>
      <trkpt lat="45.86748" lon="6.44267">
        <ele>2061.6252</ele>
        <time>2013-12-08T11:07:43Z</time>
      </trkpt>
      <trkpt lat="45.86748" lon="6.44267">
        <ele>2061.6252</ele>
        <time>2013-12-08T11:07:48Z</time>
      </trkpt>
      <trkpt lat="45.86748" lon="6.44267">
        <ele>2061.6252</ele>
        <time>2013-12-08T11:07:53Z</time>
      </trkpt>
      <trkpt lat="45.86748" lon="6.44267">
        <ele>2061.6252</ele>
        <time>2013-12-08T11:07:58Z</time>
      </trkpt>
      <trkpt lat="45.86748" lon="6.44267">
        <ele>2061.6252</ele>
        <time>2013-12-08T11:08:03Z</time>
      </trkpt>
      <trkpt lat="45.86748" lon="6.44267">
        <ele>2061.6252</ele>
        <time>2013-12-08T11:08:08Z</time>
      </trkpt>
      <trkpt lat="45.86748" lon="6.44267">
        <ele>2061.6252</ele>
        <time>2013-12-08T11:08:14Z</time>
      </trkpt>
      <trkpt lat="45.86748" lon="6.44267">
        <ele>2061.6252</ele>
        <time>2013-12-08T11:08:18Z</time>
      </trkpt>
      <trkpt lat="45.86747" lon="6.44267">
        <ele>2061.6252</ele>
        <time>2013-12-08T11:08:23Z</time>
      </trkpt>
      <trkpt lat="45.86747" lon="6.44267">
        <ele>2061.6252</ele>
        <time>2013-12-08T11:08:29Z</time>
      </trkpt>
      <trkpt lat="45.86747" lon="6.44267">
        <ele>2061.6252</ele>
        <time>2013-12-08T11:08:33Z</time>
      </trkpt>
      <trkpt lat="45.86747" lon="6.44267">
        <ele>2061.6252</ele>
        <time>2013-12-08T11:08:38Z</time>
      </trkpt>
      <trkpt lat="45.86747" lon="6.44267">
        <ele>2061.6252</ele>
        <time>2013-12-08T11:08:44Z</time>
      </trkpt>
      <trkpt lat="45.86747" lon="6.44267">
        <ele>2061.6252</ele>
        <time>2013-12-08T11:08:48Z</time>
      </trkpt>
      <trkpt lat="45.86747" lon="6.44267">
        <ele>2061.6252</ele>
        <time>2013-12-08T11:08:53Z</time>
      </trkpt>
      <trkpt lat="45.86747" lon="6.44267">
        <ele>2061.6252</ele>
        <time>2013-12-08T11:08:59Z</time>
      </trkpt>
      <trkpt lat="45.86747" lon="6.44267">
        <ele>2061.6252</ele>
        <time>2013-12-08T11:09:03Z</time>
      </trkpt>
      <trkpt lat="45.86747" lon="6.44267">
        <ele>2061.6252</ele>
        <time>2013-12-08T11:09:08Z</time>
      </trkpt>
      <trkpt lat="45.86747" lon="6.44267">
        <ele>2061.6252</ele>
        <time>2013-12-08T11:09:14Z</time>
      </trkpt>
      <trkpt lat="45.86747" lon="6.44267">
        <ele>2061.6252</ele>
        <time>2013-12-08T11:09:18Z</time>
      </trkpt>
      <trkpt lat="45.86747" lon="6.44267">
        <ele>2061.6252</ele>
        <time>2013-12-08T11:09:23Z</time>
      </trkpt>
      <trkpt lat="45.86747" lon="6.44267">
        <ele>2061.6252</ele>
        <time>2013-12-08T11:09:29Z</time>
      </trkpt>
      <trkpt lat="45.86747" lon="6.44267">
        <ele>2061.6252</ele>
        <time>2013-12-08T11:09:33Z</time>
      </trkpt>
      <trkpt lat="45.86747" lon="6.44267">
        <ele>2061.6252</ele>
        <time>2013-12-08T11:09:38Z</time>
      </trkpt>
      <trkpt lat="45.86747" lon="6.44267">
        <ele>2061.6252</ele>
        <time>2013-12-08T11:09:43Z</time>
      </trkpt>
      <trkpt lat="45.86747" lon="6.44267">
        <ele>2061.6252</ele>
        <time>2013-12-08T11:09:48Z</time>
      </trkpt>
      <trkpt lat="45.86747" lon="6.44267">
        <ele>2061.6252</ele>
        <time>2013-12-08T11:09:53Z</time>
      </trkpt>
      <trkpt lat="45.86747" lon="6.44267">
        <ele>2061.6252</ele>
        <time>2013-12-08T11:09:58Z</time>
      </trkpt>
      <trkpt lat="45.86747" lon="6.44267">
        <ele>2061.6252</ele>
        <time>2013-12-08T11:10:03Z</time>
      </trkpt>
      <trkpt lat="45.86747" lon="6.44267">
        <ele>2061.6252</ele>
        <time>2013-12-08T11:10:08Z</time>
      </trkpt>
      <trkpt lat="45.86747" lon="6.44267">
        <ele>2061.6252</ele>
        <time>2013-12-08T11:10:28Z</time>
      </trkpt>
      <trkpt lat="45.86747" lon="6.44267">
        <ele>2061.6252</ele>
        <time>2013-12-08T11:10:34Z</time>
      </trkpt>
      <trkpt lat="45.86747" lon="6.44267">
        <ele>2061.6252</ele>
        <time>2013-12-08T11:10:38Z</time>
      </trkpt>
      <trkpt lat="45.86747" lon="6.44267">
        <ele>2061.6252</ele>
        <time>2013-12-08T11:10:43Z</time>
      </trkpt>
      <trkpt lat="45.86747" lon="6.44267">
        <ele>2061.6252</ele>
        <time>2013-12-08T11:10:48Z</time>
      </trkpt>
      <trkpt lat="45.86747" lon="6.44267">
        <ele>2061.6252</ele>
        <time>2013-12-08T11:10:53Z</time>
      </trkpt>
      <trkpt lat="45.86748" lon="6.44267">
        <ele>2061.6252</ele>
        <time>2013-12-08T11:10:58Z</time>
      </trkpt>
      <trkpt lat="45.86749" lon="6.44267">
        <ele>2061.6252</ele>
        <time>2013-12-08T11:11:03Z</time>
      </trkpt>
      <trkpt lat="45.86749" lon="6.44267">
        <ele>2061.6252</ele>
        <time>2013-12-08T11:11:08Z</time>
      </trkpt>
      <trkpt lat="45.86749" lon="6.44267">
        <ele>2061.6252</ele>
        <time>2013-12-08T11:11:13Z</time>
      </trkpt>
      <trkpt lat="45.86749" lon="6.44267">
        <ele>2061.6252</ele>
        <time>2013-12-08T11:11:18Z</time>
      </trkpt>
      <trkpt lat="45.86749" lon="6.44267">
        <ele>2061.6252</ele>
        <time>2013-12-08T11:11:23Z</time>
      </trkpt>
      <trkpt lat="45.86749" lon="6.44267">
        <ele>2061.6252</ele>
        <time>2013-12-08T11:11:28Z</time>
      </trkpt>
      <trkpt lat="45.86749" lon="6.44267">
        <ele>2061.6252</ele>
        <time>2013-12-08T11:11:33Z</time>
      </trkpt>
      <trkpt lat="45.86749" lon="6.44267">
        <ele>2061.6252</ele>
        <time>2013-12-08T11:11:38Z</time>
      </trkpt>
      <trkpt lat="45.86749" lon="6.44267">
        <ele>2061.6252</ele>
        <time>2013-12-08T11:11:43Z</time>
      </trkpt>
      <trkpt lat="45.86749" lon="6.44267">
        <ele>2061.6252</ele>
        <time>2013-12-08T11:11:48Z</time>
      </trkpt>
      <trkpt lat="45.86749" lon="6.44267">
        <ele>2061.6252</ele>
        <time>2013-12-08T11:11:54Z</time>
      </trkpt>
      <trkpt lat="45.86749" lon="6.44267">
        <ele>2061.6252</ele>
        <time>2013-12-08T11:11:58Z</time>
      </trkpt>
      <trkpt lat="45.86749" lon="6.44267">
        <ele>2061.6252</ele>
        <time>2013-12-08T11:12:03Z</time>
      </trkpt>
      <trkpt lat="45.86749" lon="6.44267">
        <ele>2061.6252</ele>
        <time>2013-12-08T11:12:08Z</time>
      </trkpt>
      <trkpt lat="45.86749" lon="6.44267">
        <ele>2061.6252</ele>
        <time>2013-12-08T11:12:14Z</time>
      </trkpt>
      <trkpt lat="45.86749" lon="6.44267">
        <ele>2061.6252</ele>
        <time>2013-12-08T11:12:18Z</time>
      </trkpt>
      <trkpt lat="45.86749" lon="6.44267">
        <ele>2061.6252</ele>
        <time>2013-12-08T11:12:23Z</time>
      </trkpt>
      <trkpt lat="45.86749" lon="6.44267">
        <ele>2061.6252</ele>
        <time>2013-12-08T11:12:28Z</time>
      </trkpt>
      <trkpt lat="45.86749" lon="6.44267">
        <ele>2061.6252</ele>
        <time>2013-12-08T11:12:33Z</time>
      </trkpt>
      <trkpt lat="45.86749" lon="6.44267">
        <ele>2061.6252</ele>
        <time>2013-12-08T11:12:38Z</time>
      </trkpt>
      <trkpt lat="45.86749" lon="6.44267">
        <ele>2061.6252</ele>
        <time>2013-12-08T11:12:44Z</time>
      </trkpt>
      <trkpt lat="45.86749" lon="6.44267">
        <ele>2061.6252</ele>
        <time>2013-12-08T11:12:48Z</time>
      </trkpt>
      <trkpt lat="45.86749" lon="6.44267">
        <ele>2061.6252</ele>
        <time>2013-12-08T11:12:53Z</time>
      </trkpt>
      <trkpt lat="45.86749" lon="6.44267">
        <ele>2061.6252</ele>
        <time>2013-12-08T11:12:58Z</time>
      </trkpt>
      <trkpt lat="45.86749" lon="6.44267">
        <ele>2061.6252</ele>
        <time>2013-12-08T11:13:03Z</time>
      </trkpt>
      <trkpt lat="45.86749" lon="6.44267">
        <ele>2061.6252</ele>
        <time>2013-12-08T11:13:08Z</time>
      </trkpt>
      <trkpt lat="45.86749" lon="6.44267">
        <ele>2061.6252</ele>
        <time>2013-12-08T11:13:13Z</time>
      </trkpt>
      <trkpt lat="45.86749" lon="6.44267">
        <ele>2061.6252</ele>
        <time>2013-12-08T11:13:18Z</time>
      </trkpt>
      <trkpt lat="45.86749" lon="6.44267">
        <ele>2061.6252</ele>
        <time>2013-12-08T11:13:23Z</time>
      </trkpt>
      <trkpt lat="45.86749" lon="6.44267">
        <ele>2061.6252</ele>
        <time>2013-12-08T11:13:28Z</time>
      </trkpt>
      <trkpt lat="45.86749" lon="6.44267">
        <ele>2061.6252</ele>
        <time>2013-12-08T11:13:33Z</time>
      </trkpt>
      <trkpt lat="45.86749" lon="6.44267">
        <ele>2061.6252</ele>
        <time>2013-12-08T11:13:38Z</time>
      </trkpt>
      <trkpt lat="45.86749" lon="6.44267">
        <ele>2061.6252</ele>
        <time>2013-12-08T11:13:43Z</time>
      </trkpt>
      <trkpt lat="45.86749" lon="6.44267">
        <ele>2061.6252</ele>
        <time>2013-12-08T11:13:53Z</time>
      </trkpt>
      <trkpt lat="45.86749" lon="6.44267">
        <ele>2061.6252</ele>
        <time>2013-12-08T11:13:58Z</time>
      </trkpt>
      <trkpt lat="45.86748" lon="6.44267">
        <ele>2061.6252</ele>
        <time>2013-12-08T11:14:03Z</time>
      </trkpt>
      <trkpt lat="45.86748" lon="6.44264">
        <ele>2066.0334</ele>
        <time>2013-12-08T11:14:08Z</time>
      </trkpt>
      <trkpt lat="45.86748" lon="6.44264">
        <ele>2066.0334</ele>
        <time>2013-12-08T11:14:13Z</time>
      </trkpt>
      <trkpt lat="45.86749" lon="6.44259">
        <ele>2066.0334</ele>
        <time>2013-12-08T11:14:19Z</time>
      </trkpt>
      <trkpt lat="45.86749" lon="6.44258">
        <ele>2066.0334</ele>
        <time>2013-12-08T11:14:23Z</time>
      </trkpt>
      <trkpt lat="45.86749" lon="6.44257">
        <ele>2066.0334</ele>
        <time>2013-12-08T11:14:28Z</time>
      </trkpt>
      <trkpt lat="45.86748" lon="6.44255">
        <ele>2066.0334</ele>
        <time>2013-12-08T11:14:33Z</time>
      </trkpt>
      <trkpt lat="45.86748" lon="6.44255">
        <ele>2066.0334</ele>
        <time>2013-12-08T11:14:38Z</time>
      </trkpt>
      <trkpt lat="45.86749" lon="6.44255">
        <ele>2066.0334</ele>
        <time>2013-12-08T11:14:43Z</time>
      </trkpt>
      <trkpt lat="45.86757" lon="6.44243">
        <ele>2068.8127</ele>
        <time>2013-12-08T11:14:49Z</time>
      </trkpt>
      <trkpt lat="45.86763" lon="6.44231">
        <ele>2070.732</ele>
        <time>2013-12-08T11:14:53Z</time>
      </trkpt>
      <trkpt lat="45.86778" lon="6.44233">
        <ele>2071.973</ele>
        <time>2013-12-08T11:14:58Z</time>
      </trkpt>
      <trkpt lat="45.86787" lon="6.44223">
        <ele>2071.9275</ele>
        <time>2013-12-08T11:15:03Z</time>
      </trkpt>
      <trkpt lat="45.86794" lon="6.44231">
        <ele>2071.5054</ele>
        <time>2013-12-08T11:15:09Z</time>
      </trkpt>
      <trkpt lat="45.86797" lon="6.44232">
        <ele>2071.5054</ele>
        <time>2013-12-08T11:15:13Z</time>
      </trkpt>
      <trkpt lat="45.86797" lon="6.44233">
        <ele>2071.5054</ele>
        <time>2013-12-08T11:15:18Z</time>
      </trkpt>
      <trkpt lat="45.86797" lon="6.44233">
        <ele>2071.5054</ele>
        <time>2013-12-08T11:15:24Z</time>
      </trkpt>
      <trkpt lat="45.86797" lon="6.44233">
        <ele>2071.5054</ele>
        <time>2013-12-08T11:15:28Z</time>
      </trkpt>
      <trkpt lat="45.86802" lon="6.44232">
        <ele>2071.5054</ele>
        <time>2013-12-08T11:15:33Z</time>
      </trkpt>
      <trkpt lat="45.86813" lon="6.44216">
        <ele>2070.3694</ele>
        <time>2013-12-08T11:15:38Z</time>
      </trkpt>
      <trkpt lat="45.86819" lon="6.44216">
        <ele>2070.3694</ele>
        <time>2013-12-08T11:15:45Z</time>
      </trkpt>
      <trkpt lat="45.86825" lon="6.44219">
        <ele>2068.0503</ele>
        <time>2013-12-08T11:15:48Z</time>
      </trkpt>
      <trkpt lat="45.86832" lon="6.44215">
        <ele>2068.0503</ele>
        <time>2013-12-08T11:15:53Z</time>
      </trkpt>
      <trkpt lat="45.86835" lon="6.44199">
        <ele>2064.433</ele>
        <time>2013-12-08T11:16:00Z</time>
      </trkpt>
      <trkpt lat="45.86835" lon="6.442">
        <ele>2064.433</ele>
        <time>2013-12-08T11:16:03Z</time>
      </trkpt>
      <trkpt lat="45.86836" lon="6.44199">
        <ele>2064.433</ele>
        <time>2013-12-08T11:16:08Z</time>
      </trkpt>
      <trkpt lat="45.86836" lon="6.44199">
        <ele>2064.433</ele>
        <time>2013-12-08T11:16:14Z</time>
      </trkpt>
      <trkpt lat="45.86842" lon="6.44201">
        <ele>2064.433</ele>
        <time>2013-12-08T11:16:18Z</time>
      </trkpt>
      <trkpt lat="45.86842" lon="6.44195">
        <ele>2059.9487</ele>
        <time>2013-12-08T11:16:23Z</time>
      </trkpt>
      <trkpt lat="45.86842" lon="6.44194">
        <ele>2059.9487</ele>
        <time>2013-12-08T11:16:30Z</time>
      </trkpt>
      <trkpt lat="45.86844" lon="6.44193">
        <ele>2059.9487</ele>
        <time>2013-12-08T11:16:33Z</time>
      </trkpt>
      <trkpt lat="45.86843" lon="6.44182">
        <ele>2055.0557</ele>
        <time>2013-12-08T11:16:38Z</time>
      </trkpt>
      <trkpt lat="45.86847" lon="6.44169">
        <ele>2049.6467</ele>
        <time>2013-12-08T11:16:43Z</time>
      </trkpt>
      <trkpt lat="45.86859" lon="6.44163">
        <ele>2044.503</ele>
        <time>2013-12-08T11:16:48Z</time>
      </trkpt>
      <trkpt lat="45.86865" lon="6.44165">
        <ele>2044.503</ele>
        <time>2013-12-08T11:16:53Z</time>
      </trkpt>
      <trkpt lat="45.86873" lon="6.44161">
        <ele>2038.9056</ele>
        <time>2013-12-08T11:16:58Z</time>
      </trkpt>
      <trkpt lat="45.86878" lon="6.4415">
        <ele>2033.6309</ele>
        <time>2013-12-08T11:17:03Z</time>
      </trkpt>
      <trkpt lat="45.86878" lon="6.44147">
        <ele>2033.6309</ele>
        <time>2013-12-08T11:17:08Z</time>
      </trkpt>
      <trkpt lat="45.86879" lon="6.44146">
        <ele>2033.6309</ele>
        <time>2013-12-08T11:17:14Z</time>
      </trkpt>
      <trkpt lat="45.86879" lon="6.44145">
        <ele>2033.6309</ele>
        <time>2013-12-08T11:17:18Z</time>
      </trkpt>
      <trkpt lat="45.86879" lon="6.44145">
        <ele>2033.6309</ele>
        <time>2013-12-08T11:17:23Z</time>
      </trkpt>
      <trkpt lat="45.86879" lon="6.44145">
        <ele>2033.6309</ele>
        <time>2013-12-08T11:17:29Z</time>
      </trkpt>
      <trkpt lat="45.86879" lon="6.44145">
        <ele>2033.6309</ele>
        <time>2013-12-08T11:17:33Z</time>
      </trkpt>
      <trkpt lat="45.8688" lon="6.44145">
        <ele>2033.6309</ele>
        <time>2013-12-08T11:17:38Z</time>
      </trkpt>
      <trkpt lat="45.86881" lon="6.44144">
        <ele>2033.6309</ele>
        <time>2013-12-08T11:17:44Z</time>
      </trkpt>
      <trkpt lat="45.86894" lon="6.44128">
        <ele>2027.4653</ele>
        <time>2013-12-08T11:17:48Z</time>
      </trkpt>
      <trkpt lat="45.86906" lon="6.44104">
        <ele>2020.728</ele>
        <time>2013-12-08T11:17:53Z</time>
      </trkpt>
      <trkpt lat="45.86915" lon="6.44087">
        <ele>2014.2922</ele>
        <time>2013-12-08T11:17:58Z</time>
      </trkpt>
      <trkpt lat="45.86917" lon="6.44076">
        <ele>2014.2922</ele>
        <time>2013-12-08T11:18:03Z</time>
      </trkpt>
      <trkpt lat="45.86918" lon="6.44081">
        <ele>2007.899</ele>
        <time>2013-12-08T11:18:08Z</time>
      </trkpt>
      <trkpt lat="45.86919" lon="6.4408">
        <ele>2007.899</ele>
        <time>2013-12-08T11:18:13Z</time>
      </trkpt>
      <trkpt lat="45.86919" lon="6.4408">
        <ele>2007.899</ele>
        <time>2013-12-08T11:18:18Z</time>
      </trkpt>
      <trkpt lat="45.86919" lon="6.4408">
        <ele>2007.899</ele>
        <time>2013-12-08T11:18:23Z</time>
      </trkpt>
      <trkpt lat="45.86919" lon="6.4408">
        <ele>2007.899</ele>
        <time>2013-12-08T11:18:29Z</time>
      </trkpt>
      <trkpt lat="45.86929" lon="6.4407">
        <ele>2001.7117</ele>
        <time>2013-12-08T11:18:33Z</time>
      </trkpt>
      <trkpt lat="45.86932" lon="6.44074">
        <ele>2001.7117</ele>
        <time>2013-12-08T11:18:38Z</time>
      </trkpt>
      <trkpt lat="45.86934" lon="6.44065">
        <ele>1995.0154</ele>
        <time>2013-12-08T11:18:43Z</time>
      </trkpt>
      <trkpt lat="45.86935" lon="6.44059">
        <ele>1995.0154</ele>
        <time>2013-12-08T11:18:48Z</time>
      </trkpt>
      <trkpt lat="45.86936" lon="6.44059">
        <ele>1995.0154</ele>
        <time>2013-12-08T11:18:54Z</time>
      </trkpt>
      <trkpt lat="45.86936" lon="6.44059">
        <ele>1995.0154</ele>
        <time>2013-12-08T11:18:58Z</time>
      </trkpt>
      <trkpt lat="45.86936" lon="6.44059">
        <ele>1995.0154</ele>
        <time>2013-12-08T11:19:03Z</time>
      </trkpt>
      <trkpt lat="45.86936" lon="6.4406">
        <ele>1995.0154</ele>
        <time>2013-12-08T11:19:09Z</time>
      </trkpt>
      <trkpt lat="45.86937" lon="6.4406">
        <ele>1995.0154</ele>
        <time>2013-12-08T11:19:13Z</time>
      </trkpt>
      <trkpt lat="45.86937" lon="6.4406">
        <ele>1995.0154</ele>
        <time>2013-12-08T11:19:18Z</time>
      </trkpt>
      <trkpt lat="45.86937" lon="6.4406">
        <ele>1995.0154</ele>
        <time>2013-12-08T11:19:24Z</time>
      </trkpt>
      <trkpt lat="45.86937" lon="6.4406">
        <ele>1995.0154</ele>
        <time>2013-12-08T11:19:28Z</time>
      </trkpt>
      <trkpt lat="45.86938" lon="6.44061">
        <ele>1995.0154</ele>
        <time>2013-12-08T11:19:33Z</time>
      </trkpt>
      <trkpt lat="45.86939" lon="6.44061">
        <ele>1988.979</ele>
        <time>2013-12-08T11:19:40Z</time>
      </trkpt>
      <trkpt lat="45.86942" lon="6.4406">
        <ele>1988.979</ele>
        <time>2013-12-08T11:19:43Z</time>
      </trkpt>
      <trkpt lat="45.86943" lon="6.44056">
        <ele>1988.979</ele>
        <time>2013-12-08T11:19:48Z</time>
      </trkpt>
      <trkpt lat="45.86943" lon="6.44052">
        <ele>1988.979</ele>
        <time>2013-12-08T11:19:54Z</time>
      </trkpt>
      <trkpt lat="45.86948" lon="6.44036">
        <ele>1982.6942</ele>
        <time>2013-12-08T11:19:58Z</time>
      </trkpt>
      <trkpt lat="45.86951" lon="6.44024">
        <ele>1982.6942</ele>
        <time>2013-12-08T11:20:03Z</time>
      </trkpt>
      <trkpt lat="45.86956" lon="6.44023">
        <ele>1976.5448</ele>
        <time>2013-12-08T11:20:10Z</time>
      </trkpt>
      <trkpt lat="45.86978" lon="6.44008">
        <ele>1970.4238</ele>
        <time>2013-12-08T11:20:13Z</time>
      </trkpt>
      <trkpt lat="45.86978" lon="6.44003">
        <ele>1970.4238</ele>
        <time>2013-12-08T11:20:18Z</time>
      </trkpt>
      <trkpt lat="45.86978" lon="6.44004">
        <ele>1970.4238</ele>
        <time>2013-12-08T11:20:25Z</time>
      </trkpt>
      <trkpt lat="45.86978" lon="6.44005">
        <ele>1970.4238</ele>
        <time>2013-12-08T11:20:28Z</time>
      </trkpt>
      <trkpt lat="45.86978" lon="6.44005">
        <ele>1970.4238</ele>
        <time>2013-12-08T11:20:33Z</time>
      </trkpt>
      <trkpt lat="45.86978" lon="6.44005">
        <ele>1970.4238</ele>
        <time>2013-12-08T11:20:39Z</time>
      </trkpt>
      <trkpt lat="45.86978" lon="6.44005">
        <ele>1970.4238</ele>
        <time>2013-12-08T11:20:43Z</time>
      </trkpt>
      <trkpt lat="45.86978" lon="6.44006">
        <ele>1970.4238</ele>
        <time>2013-12-08T11:20:48Z</time>
      </trkpt>
      <trkpt lat="45.86978" lon="6.44006">
        <ele>1970.4238</ele>
        <time>2013-12-08T11:20:54Z</time>
      </trkpt>
      <trkpt lat="45.86978" lon="6.44007">
        <ele>1970.4238</ele>
        <time>2013-12-08T11:20:58Z</time>
      </trkpt>
      <trkpt lat="45.86978" lon="6.44007">
        <ele>1970.4238</ele>
        <time>2013-12-08T11:21:03Z</time>
      </trkpt>
      <trkpt lat="45.86978" lon="6.44007">
        <ele>1970.4238</ele>
        <time>2013-12-08T11:21:08Z</time>
      </trkpt>
      <trkpt lat="45.86978" lon="6.44007">
        <ele>1970.4238</ele>
        <time>2013-12-08T11:21:13Z</time>
      </trkpt>
      <trkpt lat="45.86978" lon="6.44007">
        <ele>1970.4238</ele>
        <time>2013-12-08T11:21:18Z</time>
      </trkpt>
      <trkpt lat="45.86975" lon="6.43999">
        <ele>1963.0066</ele>
        <time>2013-12-08T11:21:23Z</time>
      </trkpt>
      <trkpt lat="45.86983" lon="6.4399">
        <ele>1955.6772</ele>
        <time>2013-12-08T11:21:28Z</time>
      </trkpt>
      <trkpt lat="45.86982" lon="6.43977">
        <ele>1948.7373</ele>
        <time>2013-12-08T11:21:33Z</time>
      </trkpt>
      <trkpt lat="45.86977" lon="6.43959">
        <ele>1941.6431</ele>
        <time>2013-12-08T11:21:38Z</time>
      </trkpt>
      <trkpt lat="45.86976" lon="6.43944">
        <ele>1934.6108</ele>
        <time>2013-12-08T11:21:43Z</time>
      </trkpt>
      <trkpt lat="45.86975" lon="6.4393">
        <ele>1928.0133</ele>
        <time>2013-12-08T11:21:48Z</time>
      </trkpt>
      <trkpt lat="45.86976" lon="6.4393">
        <ele>1928.0133</ele>
        <time>2013-12-08T11:21:54Z</time>
      </trkpt>
      <trkpt lat="45.86977" lon="6.43931">
        <ele>1928.0133</ele>
        <time>2013-12-08T11:21:58Z</time>
      </trkpt>
      <trkpt lat="45.8698" lon="6.43933">
        <ele>1928.0133</ele>
        <time>2013-12-08T11:22:03Z</time>
      </trkpt>
      <trkpt lat="45.86981" lon="6.43934">
        <ele>1928.0133</ele>
        <time>2013-12-08T11:22:09Z</time>
      </trkpt>
      <trkpt lat="45.86981" lon="6.43932">
        <ele>1928.0133</ele>
        <time>2013-12-08T11:22:13Z</time>
      </trkpt>
      <trkpt lat="45.86977" lon="6.43919">
        <ele>1921.4878</ele>
        <time>2013-12-08T11:22:18Z</time>
      </trkpt>
      <trkpt lat="45.86975" lon="6.43895">
        <ele>1915.2305</ele>
        <time>2013-12-08T11:22:24Z</time>
      </trkpt>
      <trkpt lat="45.86968" lon="6.43884">
        <ele>1909.3208</ele>
        <time>2013-12-08T11:22:28Z</time>
      </trkpt>
      <trkpt lat="45.86951" lon="6.43876">
        <ele>1903.4995</ele>
        <time>2013-12-08T11:22:33Z</time>
      </trkpt>
      <trkpt lat="45.86928" lon="6.43868">
        <ele>1898.4476</ele>
        <time>2013-12-08T11:22:39Z</time>
      </trkpt>
      <trkpt lat="45.86927" lon="6.43868">
        <ele>1898.4476</ele>
        <time>2013-12-08T11:22:43Z</time>
      </trkpt>
      <trkpt lat="45.86926" lon="6.43869">
        <ele>1898.4476</ele>
        <time>2013-12-08T11:22:48Z</time>
      </trkpt>
      <trkpt lat="45.86926" lon="6.4387">
        <ele>1898.4476</ele>
        <time>2013-12-08T11:22:54Z</time>
      </trkpt>
      <trkpt lat="45.86924" lon="6.43871">
        <ele>1898.4476</ele>
        <time>2013-12-08T11:22:58Z</time>
      </trkpt>
      <trkpt lat="45.86917" lon="6.43864">
        <ele>1893.6118</ele>
        <time>2013-12-08T11:23:03Z</time>
      </trkpt>
      <trkpt lat="45.86909" lon="6.43854">
        <ele>1888.4059</ele>
        <time>2013-12-08T11:23:08Z</time>
      </trkpt>
      <trkpt lat="45.86905" lon="6.43836">
        <ele>1883.3972</ele>
        <time>2013-12-08T11:23:13Z</time>
      </trkpt>
      <trkpt lat="45.86897" lon="6.43819">
        <ele>1878.937</ele>
        <time>2013-12-08T11:23:18Z</time>
      </trkpt>
      <trkpt lat="45.86895" lon="6.43805">
        <ele>1874.7871</ele>
        <time>2013-12-08T11:23:24Z</time>
      </trkpt>
      <trkpt lat="45.86894" lon="6.43789">
        <ele>1871.2583</ele>
        <time>2013-12-08T11:23:28Z</time>
      </trkpt>
      <trkpt lat="45.86899" lon="6.4379">
        <ele>1871.2583</ele>
        <time>2013-12-08T11:23:33Z</time>
      </trkpt>
      <trkpt lat="45.869" lon="6.43791">
        <ele>1871.2583</ele>
        <time>2013-12-08T11:23:38Z</time>
      </trkpt>
      <trkpt lat="45.86901" lon="6.43792">
        <ele>1871.2583</ele>
        <time>2013-12-08T11:23:44Z</time>
      </trkpt>
      <trkpt lat="45.86901" lon="6.43792">
        <ele>1871.2583</ele>
        <time>2013-12-08T11:23:48Z</time>
      </trkpt>
      <trkpt lat="45.86901" lon="6.43792">
        <ele>1871.2583</ele>
        <time>2013-12-08T11:23:53Z</time>
      </trkpt>
      <trkpt lat="45.869" lon="6.43788">
        <ele>1867.5411</ele>
        <time>2013-12-08T11:23:58Z</time>
      </trkpt>
      <trkpt lat="45.86903" lon="6.43793">
        <ele>1867.5411</ele>
        <time>2013-12-08T11:24:03Z</time>
      </trkpt>
      <trkpt lat="45.86905" lon="6.43795">
        <ele>1867.5411</ele>
        <time>2013-12-08T11:24:08Z</time>
      </trkpt>
      <trkpt lat="45.86905" lon="6.43794">
        <ele>1867.5411</ele>
        <time>2013-12-08T11:24:13Z</time>
      </trkpt>
      <trkpt lat="45.86905" lon="6.43794">
        <ele>1867.5411</ele>
        <time>2013-12-08T11:24:18Z</time>
      </trkpt>
      <trkpt lat="45.86902" lon="6.43782">
        <ele>1864.0532</ele>
        <time>2013-12-08T11:24:23Z</time>
      </trkpt>
      <trkpt lat="45.8691" lon="6.43776">
        <ele>1864.0532</ele>
        <time>2013-12-08T11:24:28Z</time>
      </trkpt>
      <trkpt lat="45.86914" lon="6.43756">
        <ele>1860.2006</ele>
        <time>2013-12-08T11:24:33Z</time>
      </trkpt>
      <trkpt lat="45.86913" lon="6.43742">
        <ele>1856.6292</ele>
        <time>2013-12-08T11:24:38Z</time>
      </trkpt>
      <trkpt lat="45.86922" lon="6.4374">
        <ele>1853.0144</ele>
        <time>2013-12-08T11:24:43Z</time>
      </trkpt>
      <trkpt lat="45.86927" lon="6.43726">
        <ele>1849.0844</ele>
        <time>2013-12-08T11:24:48Z</time>
      </trkpt>
      <trkpt lat="45.86941" lon="6.43715">
        <ele>1845.4519</ele>
        <time>2013-12-08T11:24:53Z</time>
      </trkpt>
      <trkpt lat="45.86943" lon="6.43702">
        <ele>1841.7188</ele>
        <time>2013-12-08T11:24:58Z</time>
      </trkpt>
      <trkpt lat="45.86941" lon="6.43703">
        <ele>1841.7188</ele>
        <time>2013-12-08T11:25:04Z</time>
      </trkpt>
      <trkpt lat="45.86941" lon="6.43704">
        <ele>1841.7188</ele>
        <time>2013-12-08T11:25:08Z</time>
      </trkpt>
      <trkpt lat="45.86941" lon="6.43704">
        <ele>1841.7188</ele>
        <time>2013-12-08T11:25:13Z</time>
      </trkpt>
      <trkpt lat="45.86938" lon="6.43696">
        <ele>1838.0918</ele>
        <time>2013-12-08T11:25:19Z</time>
      </trkpt>
      <trkpt lat="45.86941" lon="6.43678">
        <ele>1834.3738</ele>
        <time>2013-12-08T11:25:23Z</time>
      </trkpt>
      <trkpt lat="45.86952" lon="6.43679">
        <ele>1830.3383</ele>
        <time>2013-12-08T11:25:28Z</time>
      </trkpt>
      <trkpt lat="45.86954" lon="6.43671">
        <ele>1830.3383</ele>
        <time>2013-12-08T11:25:34Z</time>
      </trkpt>
      <trkpt lat="45.8695" lon="6.43652">
        <ele>1826.252</ele>
        <time>2013-12-08T11:25:38Z</time>
      </trkpt>
      <trkpt lat="45.86954" lon="6.43648">
        <ele>1826.252</ele>
        <time>2013-12-08T11:25:43Z</time>
      </trkpt>
      <trkpt lat="45.86955" lon="6.43649">
        <ele>1826.252</ele>
        <time>2013-12-08T11:25:48Z</time>
      </trkpt>
      <trkpt lat="45.86955" lon="6.43649">
        <ele>1826.252</ele>
        <time>2013-12-08T11:25:54Z</time>
      </trkpt>
      <trkpt lat="45.86955" lon="6.43649">
        <ele>1826.252</ele>
        <time>2013-12-08T11:25:58Z</time>
      </trkpt>
      <trkpt lat="45.86952" lon="6.43643">
        <ele>1822.8951</ele>
        <time>2013-12-08T11:26:03Z</time>
      </trkpt>
      <trkpt lat="45.86949" lon="6.43638">
        <ele>1822.8951</ele>
        <time>2013-12-08T11:26:09Z</time>
      </trkpt>
      <trkpt lat="45.86965" lon="6.43633">
        <ele>1820.0663</ele>
        <time>2013-12-08T11:26:13Z</time>
      </trkpt>
      <trkpt lat="45.86982" lon="6.43635">
        <ele>1817.3899</ele>
        <time>2013-12-08T11:26:18Z</time>
      </trkpt>
      <trkpt lat="45.86984" lon="6.43633">
        <ele>1817.3899</ele>
        <time>2013-12-08T11:26:24Z</time>
      </trkpt>
      <trkpt lat="45.86979" lon="6.43635">
        <ele>1817.3899</ele>
        <time>2013-12-08T11:26:28Z</time>
      </trkpt>
      <trkpt lat="45.86979" lon="6.43636">
        <ele>1817.3899</ele>
        <time>2013-12-08T11:26:33Z</time>
      </trkpt>
      <trkpt lat="45.86979" lon="6.43636">
        <ele>1817.3899</ele>
        <time>2013-12-08T11:26:39Z</time>
      </trkpt>
      <trkpt lat="45.86979" lon="6.43636">
        <ele>1817.3899</ele>
        <time>2013-12-08T11:26:43Z</time>
      </trkpt>
      <trkpt lat="45.86979" lon="6.43636">
        <ele>1817.3899</ele>
        <time>2013-12-08T11:26:48Z</time>
      </trkpt>
      <trkpt lat="45.86979" lon="6.43636">
        <ele>1817.3899</ele>
        <time>2013-12-08T11:26:54Z</time>
      </trkpt>
      <trkpt lat="45.86979" lon="6.43636">
        <ele>1817.3899</ele>
        <time>2013-12-08T11:26:58Z</time>
      </trkpt>
      <trkpt lat="45.86979" lon="6.43636">
        <ele>1817.3899</ele>
        <time>2013-12-08T11:27:03Z</time>
      </trkpt>
      <trkpt lat="45.86977" lon="6.43631">
        <ele>1813.84</ele>
        <time>2013-12-08T11:27:09Z</time>
      </trkpt>
      <trkpt lat="45.86973" lon="6.43615">
        <ele>1810.3419</ele>
        <time>2013-12-08T11:27:13Z</time>
      </trkpt>
      <trkpt lat="45.8698" lon="6.436">
        <ele>1806.3839</ele>
        <time>2013-12-08T11:27:18Z</time>
      </trkpt>
      <trkpt lat="45.86975" lon="6.43595">
        <ele>1806.3839</ele>
        <time>2013-12-08T11:27:24Z</time>
      </trkpt>
      <trkpt lat="45.86977" lon="6.43597">
        <ele>1806.3839</ele>
        <time>2013-12-08T11:27:28Z</time>
      </trkpt>
      <trkpt lat="45.86976" lon="6.43597">
        <ele>1806.3839</ele>
        <time>2013-12-08T11:27:33Z</time>
      </trkpt>
      <trkpt lat="45.86976" lon="6.43596">
        <ele>1806.3839</ele>
        <time>2013-12-08T11:27:38Z</time>
      </trkpt>
      <trkpt lat="45.86992" lon="6.43584">
        <ele>1802.6456</ele>
        <time>2013-12-08T11:27:43Z</time>
      </trkpt>
      <trkpt lat="45.86997" lon="6.43569">
        <ele>1799.3241</ele>
        <time>2013-12-08T11:27:48Z</time>
      </trkpt>
      <trkpt lat="45.87" lon="6.43569">
        <ele>1799.3241</ele>
        <time>2013-12-08T11:27:54Z</time>
      </trkpt>
      <trkpt lat="45.87001" lon="6.43568">
        <ele>1799.3241</ele>
        <time>2013-12-08T11:27:58Z</time>
      </trkpt>
      <trkpt lat="45.87007" lon="6.43559">
        <ele>1795.6207</ele>
        <time>2013-12-08T11:28:03Z</time>
      </trkpt>
      <trkpt lat="45.87005" lon="6.43549">
        <ele>1795.6207</ele>
        <time>2013-12-08T11:28:08Z</time>
      </trkpt>
      <trkpt lat="45.87006" lon="6.43549">
        <ele>1795.6207</ele>
        <time>2013-12-08T11:28:13Z</time>
      </trkpt>
      <trkpt lat="45.87006" lon="6.43547">
        <ele>1795.6207</ele>
        <time>2013-12-08T11:28:18Z</time>
      </trkpt>
      <trkpt lat="45.86999" lon="6.43537">
        <ele>1791.2001</ele>
        <time>2013-12-08T11:28:25Z</time>
      </trkpt>
      <trkpt lat="45.86988" lon="6.43523">
        <ele>1786.7766</ele>
        <time>2013-12-08T11:28:28Z</time>
      </trkpt>
      <trkpt lat="45.86971" lon="6.43499">
        <ele>1782.8538</ele>
        <time>2013-12-08T11:28:33Z</time>
      </trkpt>
      <trkpt lat="45.86973" lon="6.43495">
        <ele>1782.8538</ele>
        <time>2013-12-08T11:28:39Z</time>
      </trkpt>
      <trkpt lat="45.86973" lon="6.43495">
        <ele>1782.8538</ele>
        <time>2013-12-08T11:28:43Z</time>
      </trkpt>
      <trkpt lat="45.86973" lon="6.43496">
        <ele>1782.8538</ele>
        <time>2013-12-08T11:28:48Z</time>
      </trkpt>
      <trkpt lat="45.86975" lon="6.43494">
        <ele>1782.8538</ele>
        <time>2013-12-08T11:28:54Z</time>
      </trkpt>
      <trkpt lat="45.86998" lon="6.4347">
        <ele>1777.735</ele>
        <time>2013-12-08T11:28:58Z</time>
      </trkpt>
      <trkpt lat="45.8701" lon="6.43448">
        <ele>1772.662</ele>
        <time>2013-12-08T11:29:03Z</time>
      </trkpt>
      <trkpt lat="45.87017" lon="6.43443">
        <ele>1772.662</ele>
        <time>2013-12-08T11:29:09Z</time>
      </trkpt>
      <trkpt lat="45.87033" lon="6.43418">
        <ele>1766.7098</ele>
        <time>2013-12-08T11:29:13Z</time>
      </trkpt>
      <trkpt lat="45.87035" lon="6.43424">
        <ele>1766.7098</ele>
        <time>2013-12-08T11:29:18Z</time>
      </trkpt>
      <trkpt lat="45.87035" lon="6.43424">
        <ele>1766.7098</ele>
        <time>2013-12-08T11:29:24Z</time>
      </trkpt>
      <trkpt lat="45.87036" lon="6.43425">
        <ele>1766.7098</ele>
        <time>2013-12-08T11:29:28Z</time>
      </trkpt>
      <trkpt lat="45.87037" lon="6.43425">
        <ele>1766.7098</ele>
        <time>2013-12-08T11:29:33Z</time>
      </trkpt>
      <trkpt lat="45.87037" lon="6.43426">
        <ele>1766.7098</ele>
        <time>2013-12-08T11:29:39Z</time>
      </trkpt>
      <trkpt lat="45.87037" lon="6.43426">
        <ele>1766.7098</ele>
        <time>2013-12-08T11:29:43Z</time>
      </trkpt>
      <trkpt lat="45.87037" lon="6.43426">
        <ele>1766.7098</ele>
        <time>2013-12-08T11:29:48Z</time>
      </trkpt>
      <trkpt lat="45.87042" lon="6.43427">
        <ele>1761.2433</ele>
        <time>2013-12-08T11:29:53Z</time>
      </trkpt>
      <trkpt lat="45.87048" lon="6.43415">
        <ele>1755.9403</ele>
        <time>2013-12-08T11:29:58Z</time>
      </trkpt>
      <trkpt lat="45.87062" lon="6.43407">
        <ele>1751.0354</ele>
        <time>2013-12-08T11:30:03Z</time>
      </trkpt>
      <trkpt lat="45.87079" lon="6.43404">
        <ele>1746.2979</ele>
        <time>2013-12-08T11:30:09Z</time>
      </trkpt>
      <trkpt lat="45.87102" lon="6.43396">
        <ele>1741.499</ele>
        <time>2013-12-08T11:30:13Z</time>
      </trkpt>
      <trkpt lat="45.87116" lon="6.43395">
        <ele>1736.4705</ele>
        <time>2013-12-08T11:30:18Z</time>
      </trkpt>
      <trkpt lat="45.87116" lon="6.434">
        <ele>1736.4705</ele>
        <time>2013-12-08T11:30:24Z</time>
      </trkpt>
      <trkpt lat="45.87117" lon="6.43404">
        <ele>1736.4705</ele>
        <time>2013-12-08T11:30:28Z</time>
      </trkpt>
      <trkpt lat="45.87117" lon="6.43404">
        <ele>1736.4705</ele>
        <time>2013-12-08T11:30:33Z</time>
      </trkpt>
      <trkpt lat="45.87117" lon="6.43404">
        <ele>1736.4705</ele>
        <time>2013-12-08T11:30:40Z</time>
      </trkpt>
      <trkpt lat="45.87147" lon="6.43421">
        <ele>1731.6765</ele>
        <time>2013-12-08T11:30:43Z</time>
      </trkpt>
      <trkpt lat="45.87172" lon="6.43426">
        <ele>1727.071</ele>
        <time>2013-12-08T11:30:48Z</time>
      </trkpt>
      <trkpt lat="45.87192" lon="6.4343">
        <ele>1722.7693</ele>
        <time>2013-12-08T11:30:53Z</time>
      </trkpt>
      <trkpt lat="45.87212" lon="6.43427">
        <ele>1718.3154</ele>
        <time>2013-12-08T11:30:58Z</time>
      </trkpt>
      <trkpt lat="45.87238" lon="6.43427">
        <ele>1713.6187</ele>
        <time>2013-12-08T11:31:03Z</time>
      </trkpt>
      <trkpt lat="45.87251" lon="6.43423">
        <ele>1708.7252</ele>
        <time>2013-12-08T11:31:08Z</time>
      </trkpt>
      <trkpt lat="45.8725" lon="6.43419">
        <ele>1708.7252</ele>
        <time>2013-12-08T11:31:13Z</time>
      </trkpt>
      <trkpt lat="45.87249" lon="6.43418">
        <ele>1708.7252</ele>
        <time>2013-12-08T11:31:18Z</time>
      </trkpt>
      <trkpt lat="45.87249" lon="6.43418">
        <ele>1708.7252</ele>
        <time>2013-12-08T11:31:24Z</time>
      </trkpt>
      <trkpt lat="45.87249" lon="6.43418">
        <ele>1708.7252</ele>
        <time>2013-12-08T11:31:28Z</time>
      </trkpt>
      <trkpt lat="45.87249" lon="6.43418">
        <ele>1708.7252</ele>
        <time>2013-12-08T11:31:33Z</time>
      </trkpt>
      <trkpt lat="45.87249" lon="6.43418">
        <ele>1708.7252</ele>
        <time>2013-12-08T11:31:39Z</time>
      </trkpt>
      <trkpt lat="45.87249" lon="6.43418">
        <ele>1708.7252</ele>
        <time>2013-12-08T11:31:43Z</time>
      </trkpt>
      <trkpt lat="45.87249" lon="6.43418">
        <ele>1708.7252</ele>
        <time>2013-12-08T11:31:48Z</time>
      </trkpt>
      <trkpt lat="45.8725" lon="6.43418">
        <ele>1708.7252</ele>
        <time>2013-12-08T11:31:54Z</time>
      </trkpt>
      <trkpt lat="45.8725" lon="6.43418">
        <ele>1708.7252</ele>
        <time>2013-12-08T11:31:58Z</time>
      </trkpt>
      <trkpt lat="45.87254" lon="6.43408">
        <ele>1703.3618</ele>
        <time>2013-12-08T11:32:03Z</time>
      </trkpt>
      <trkpt lat="45.8726" lon="6.43403">
        <ele>1703.3618</ele>
        <time>2013-12-08T11:32:08Z</time>
      </trkpt>
      <trkpt lat="45.87271" lon="6.43366">
        <ele>1697.406</ele>
        <time>2013-12-08T11:32:13Z</time>
      </trkpt>
      <trkpt lat="45.87267" lon="6.43357">
        <ele>1697.406</ele>
        <time>2013-12-08T11:32:18Z</time>
      </trkpt>
      <trkpt lat="45.87266" lon="6.43358">
        <ele>1697.406</ele>
        <time>2013-12-08T11:32:25Z</time>
      </trkpt>
      <trkpt lat="45.87266" lon="6.43358">
        <ele>1697.406</ele>
        <time>2013-12-08T11:32:28Z</time>
      </trkpt>
      <trkpt lat="45.87265" lon="6.43354">
        <ele>1691.207</ele>
        <time>2013-12-08T11:32:33Z</time>
      </trkpt>
      <trkpt lat="45.87266" lon="6.43338">
        <ele>1685.0173</ele>
        <time>2013-12-08T11:32:38Z</time>
      </trkpt>
      <trkpt lat="45.87267" lon="6.43322">
        <ele>1679.287</ele>
        <time>2013-12-08T11:32:44Z</time>
      </trkpt>
      <trkpt lat="45.87255" lon="6.43306">
        <ele>1673.7539</ele>
        <time>2013-12-08T11:32:48Z</time>
      </trkpt>
      <trkpt lat="45.87252" lon="6.43288">
        <ele>1668.4779</ele>
        <time>2013-12-08T11:32:53Z</time>
      </trkpt>
      <trkpt lat="45.87251" lon="6.43279">
        <ele>1668.4779</ele>
        <time>2013-12-08T11:32:58Z</time>
      </trkpt>
      <trkpt lat="45.87256" lon="6.43274">
        <ele>1663.0232</ele>
        <time>2013-12-08T11:33:03Z</time>
      </trkpt>
      <trkpt lat="45.87257" lon="6.43251">
        <ele>1657.4045</ele>
        <time>2013-12-08T11:33:08Z</time>
      </trkpt>
      <trkpt lat="45.87258" lon="6.43252">
        <ele>1657.4045</ele>
        <time>2013-12-08T11:33:13Z</time>
      </trkpt>
      <trkpt lat="45.87259" lon="6.43254">
        <ele>1657.4045</ele>
        <time>2013-12-08T11:33:19Z</time>
      </trkpt>
      <trkpt lat="45.8726" lon="6.43255">
        <ele>1657.4045</ele>
        <time>2013-12-08T11:33:23Z</time>
      </trkpt>
      <trkpt lat="45.8726" lon="6.43255">
        <ele>1657.4045</ele>
        <time>2013-12-08T11:33:28Z</time>
      </trkpt>
      <trkpt lat="45.87258" lon="6.43241">
        <ele>1651.6074</ele>
        <time>2013-12-08T11:33:34Z</time>
      </trkpt>
      <trkpt lat="45.87249" lon="6.43212">
        <ele>1646.0076</ele>
        <time>2013-12-08T11:33:38Z</time>
      </trkpt>
      <trkpt lat="45.87252" lon="6.43193">
        <ele>1640.6357</ele>
        <time>2013-12-08T11:33:43Z</time>
      </trkpt>
      <trkpt lat="45.87254" lon="6.43196">
        <ele>1640.6357</ele>
        <time>2013-12-08T11:33:48Z</time>
      </trkpt>
      <trkpt lat="45.87254" lon="6.43196">
        <ele>1640.6357</ele>
        <time>2013-12-08T11:33:54Z</time>
      </trkpt>
      <trkpt lat="45.87254" lon="6.43196">
        <ele>1640.6357</ele>
        <time>2013-12-08T11:33:58Z</time>
      </trkpt>
      <trkpt lat="45.87255" lon="6.43196">
        <ele>1640.6357</ele>
        <time>2013-12-08T11:34:03Z</time>
      </trkpt>
      <trkpt lat="45.87255" lon="6.43196">
        <ele>1640.6357</ele>
        <time>2013-12-08T11:34:08Z</time>
      </trkpt>
      <trkpt lat="45.87256" lon="6.43193">
        <ele>1640.6357</ele>
        <time>2013-12-08T11:34:13Z</time>
      </trkpt>
      <trkpt lat="45.87257" lon="6.43192">
        <ele>1640.6357</ele>
        <time>2013-12-08T11:34:18Z</time>
      </trkpt>
      <trkpt lat="45.87263" lon="6.43185">
        <ele>1634.482</ele>
        <time>2013-12-08T11:34:23Z</time>
      </trkpt>
      <trkpt lat="45.87263" lon="6.43161">
        <ele>1628.1549</ele>
        <time>2013-12-08T11:34:28Z</time>
      </trkpt>
      <trkpt lat="45.87267" lon="6.43131">
        <ele>1622.0023</ele>
        <time>2013-12-08T11:34:33Z</time>
      </trkpt>
      <trkpt lat="45.87271" lon="6.43123">
        <ele>1622.0023</ele>
        <time>2013-12-08T11:34:39Z</time>
      </trkpt>
      <trkpt lat="45.87276" lon="6.43093">
        <ele>1614.9338</ele>
        <time>2013-12-08T11:34:43Z</time>
      </trkpt>
      <trkpt lat="45.87279" lon="6.43093">
        <ele>1614.9338</ele>
        <time>2013-12-08T11:34:48Z</time>
      </trkpt>
      <trkpt lat="45.87279" lon="6.43093">
        <ele>1614.9338</ele>
        <time>2013-12-08T11:34:54Z</time>
      </trkpt>
      <trkpt lat="45.8728" lon="6.43093">
        <ele>1614.9338</ele>
        <time>2013-12-08T11:34:58Z</time>
      </trkpt>
      <trkpt lat="45.87281" lon="6.4308">
        <ele>1608.3484</ele>
        <time>2013-12-08T11:35:03Z</time>
      </trkpt>
      <trkpt lat="45.87269" lon="6.43038">
        <ele>1601.6095</ele>
        <time>2013-12-08T11:35:09Z</time>
      </trkpt>
      <trkpt lat="45.87258" lon="6.43009">
        <ele>1594.9347</ele>
        <time>2013-12-08T11:35:13Z</time>
      </trkpt>
      <trkpt lat="45.87272" lon="6.43001">
        <ele>1588.9148</ele>
        <time>2013-12-08T11:35:18Z</time>
      </trkpt>
      <trkpt lat="45.87278" lon="6.4299">
        <ele>1583.4318</ele>
        <time>2013-12-08T11:35:24Z</time>
      </trkpt>
      <trkpt lat="45.8728" lon="6.42968">
        <ele>1578.1301</ele>
        <time>2013-12-08T11:35:28Z</time>
      </trkpt>
      <trkpt lat="45.87284" lon="6.42975">
        <ele>1578.1301</ele>
        <time>2013-12-08T11:35:33Z</time>
      </trkpt>
      <trkpt lat="45.87284" lon="6.42975">
        <ele>1578.1301</ele>
        <time>2013-12-08T11:35:38Z</time>
      </trkpt>
      <trkpt lat="45.87285" lon="6.42975">
        <ele>1578.1301</ele>
        <time>2013-12-08T11:35:43Z</time>
      </trkpt>
      <trkpt lat="45.87285" lon="6.42975">
        <ele>1578.1301</ele>
        <time>2013-12-08T11:35:48Z</time>
      </trkpt>
      <trkpt lat="45.87291" lon="6.42978">
        <ele>1573.4003</ele>
        <time>2013-12-08T11:35:54Z</time>
      </trkpt>
      <trkpt lat="45.87298" lon="6.42976">
        <ele>1573.4003</ele>
        <time>2013-12-08T11:35:58Z</time>
      </trkpt>
      <trkpt lat="45.87292" lon="6.42944">
        <ele>1568.579</ele>
        <time>2013-12-08T11:36:03Z</time>
      </trkpt>
      <trkpt lat="45.87288" lon="6.42918">
        <ele>1563.9601</ele>
        <time>2013-12-08T11:36:08Z</time>
      </trkpt>
      <trkpt lat="45.87316" lon="6.42895">
        <ele>1559.4401</ele>
        <time>2013-12-08T11:36:13Z</time>
      </trkpt>
      <trkpt lat="45.87319" lon="6.42899">
        <ele>1559.4401</ele>
        <time>2013-12-08T11:36:18Z</time>
      </trkpt>
      <trkpt lat="45.8732" lon="6.42898">
        <ele>1559.4401</ele>
        <time>2013-12-08T11:36:23Z</time>
      </trkpt>
      <trkpt lat="45.87321" lon="6.42898">
        <ele>1559.4401</ele>
        <time>2013-12-08T11:36:28Z</time>
      </trkpt>
      <trkpt lat="45.87321" lon="6.42898">
        <ele>1559.4401</ele>
        <time>2013-12-08T11:36:33Z</time>
      </trkpt>
      <trkpt lat="45.87321" lon="6.42898">
        <ele>1559.4401</ele>
        <time>2013-12-08T11:36:39Z</time>
      </trkpt>
      <trkpt lat="45.87329" lon="6.42872">
        <ele>1554.8944</ele>
        <time>2013-12-08T11:36:43Z</time>
      </trkpt>
      <trkpt lat="45.87354" lon="6.42877">
        <ele>1550.8414</ele>
        <time>2013-12-08T11:36:48Z</time>
      </trkpt>
      <trkpt lat="45.8737" lon="6.42869">
        <ele>1546.9675</ele>
        <time>2013-12-08T11:36:54Z</time>
      </trkpt>
      <trkpt lat="45.87401" lon="6.42858">
        <ele>1543.2985</ele>
        <time>2013-12-08T11:36:58Z</time>
      </trkpt>
      <trkpt lat="45.87429" lon="6.4285">
        <ele>1539.7859</ele>
        <time>2013-12-08T11:37:03Z</time>
      </trkpt>
      <trkpt lat="45.87457" lon="6.42845">
        <ele>1536.3696</ele>
        <time>2013-12-08T11:37:08Z</time>
      </trkpt>
      <trkpt lat="45.87468" lon="6.4283">
        <ele>1533.268</ele>
        <time>2013-12-08T11:37:13Z</time>
      </trkpt>
      <trkpt lat="45.87491" lon="6.42825">
        <ele>1530.4081</ele>
        <time>2013-12-08T11:37:18Z</time>
      </trkpt>
      <trkpt lat="45.87506" lon="6.42836">
        <ele>1527.6935</ele>
        <time>2013-12-08T11:37:23Z</time>
      </trkpt>
      <trkpt lat="45.87506" lon="6.42834">
        <ele>1527.6935</ele>
        <time>2013-12-08T11:37:28Z</time>
      </trkpt>
      <trkpt lat="45.87506" lon="6.42834">
        <ele>1527.6935</ele>
        <time>2013-12-08T11:37:33Z</time>
      </trkpt>
      <trkpt lat="45.87507" lon="6.42834">
        <ele>1527.6935</ele>
        <time>2013-12-08T11:37:44Z</time>
      </trkpt>
      <trkpt lat="45.87507" lon="6.42834">
        <ele>1527.6935</ele>
        <time>2013-12-08T11:37:48Z</time>
      </trkpt>
      <trkpt lat="45.87507" lon="6.42834">
        <ele>1527.6935</ele>
        <time>2013-12-08T11:37:53Z</time>
      </trkpt>
      <trkpt lat="45.87507" lon="6.42834">
        <ele>1527.6935</ele>
        <time>2013-12-08T11:37:58Z</time>
      </trkpt>
      <trkpt lat="45.87507" lon="6.42834">
        <ele>1527.6935</ele>
        <time>2013-12-08T11:38:03Z</time>
      </trkpt>
      <trkpt lat="45.87507" lon="6.42834">
        <ele>1527.6935</ele>
        <time>2013-12-08T11:38:08Z</time>
      </trkpt>
      <trkpt lat="45.87507" lon="6.42834">
        <ele>1527.6935</ele>
        <time>2013-12-08T11:38:18Z</time>
      </trkpt>
      <trkpt lat="45.87507" lon="6.42834">
        <ele>1527.6935</ele>
        <time>2013-12-08T11:38:23Z</time>
      </trkpt>
      <trkpt lat="45.87507" lon="6.42834">
        <ele>1527.6935</ele>
        <time>2013-12-08T11:38:28Z</time>
      </trkpt>
      <trkpt lat="45.87507" lon="6.42834">
        <ele>1527.6935</ele>
        <time>2013-12-08T11:38:33Z</time>
      </trkpt>
      <trkpt lat="45.87507" lon="6.42834">
        <ele>1527.6935</ele>
        <time>2013-12-08T11:38:38Z</time>
      </trkpt>
      <trkpt lat="45.87507" lon="6.42834">
        <ele>1527.6935</ele>
        <time>2013-12-08T11:38:43Z</time>
      </trkpt>
      <trkpt lat="45.87508" lon="6.42834">
        <ele>1527.6935</ele>
        <time>2013-12-08T11:38:48Z</time>
      </trkpt>
      <trkpt lat="45.87508" lon="6.42834">
        <ele>1527.6935</ele>
        <time>2013-12-08T11:38:53Z</time>
      </trkpt>
      <trkpt lat="45.87508" lon="6.42834">
        <ele>1527.6935</ele>
        <time>2013-12-08T11:38:58Z</time>
      </trkpt>
      <trkpt lat="45.87508" lon="6.42834">
        <ele>1527.6935</ele>
        <time>2013-12-08T11:39:03Z</time>
      </trkpt>
      <trkpt lat="45.87508" lon="6.42834">
        <ele>1527.6935</ele>
        <time>2013-12-08T11:39:09Z</time>
      </trkpt>
      <trkpt lat="45.87508" lon="6.42834">
        <ele>1527.6935</ele>
        <time>2013-12-08T11:39:13Z</time>
      </trkpt>
      <trkpt lat="45.87508" lon="6.42834">
        <ele>1527.6935</ele>
        <time>2013-12-08T11:39:23Z</time>
      </trkpt>
      <trkpt lat="45.87508" lon="6.42834">
        <ele>1527.6935</ele>
        <time>2013-12-08T11:39:28Z</time>
      </trkpt>
      <trkpt lat="45.87508" lon="6.42834">
        <ele>1527.6935</ele>
        <time>2013-12-08T11:39:33Z</time>
      </trkpt>
      <trkpt lat="45.87508" lon="6.42834">
        <ele>1527.6935</ele>
        <time>2013-12-08T11:39:38Z</time>
      </trkpt>
      <trkpt lat="45.87508" lon="6.42834">
        <ele>1527.6935</ele>
        <time>2013-12-08T11:39:43Z</time>
      </trkpt>
      <trkpt lat="45.87508" lon="6.42834">
        <ele>1527.6935</ele>
        <time>2013-12-08T11:39:48Z</time>
      </trkpt>
      <trkpt lat="45.87508" lon="6.42834">
        <ele>1527.6935</ele>
        <time>2013-12-08T11:39:53Z</time>
      </trkpt>
      <trkpt lat="45.87508" lon="6.42834">
        <ele>1527.6935</ele>
        <time>2013-12-08T11:39:58Z</time>
      </trkpt>
      <trkpt lat="45.87508" lon="6.42834">
        <ele>1527.6935</ele>
        <time>2013-12-08T11:40:03Z</time>
      </trkpt>
      <trkpt lat="45.87508" lon="6.42834">
        <ele>1527.6935</ele>
        <time>2013-12-08T11:40:08Z</time>
      </trkpt>
      <trkpt lat="45.87508" lon="6.42834">
        <ele>1527.6935</ele>
        <time>2013-12-08T11:40:13Z</time>
      </trkpt>
      <trkpt lat="45.87508" lon="6.42834">
        <ele>1527.6935</ele>
        <time>2013-12-08T11:40:19Z</time>
      </trkpt>
      <trkpt lat="45.87508" lon="6.42834">
        <ele>1527.6935</ele>
        <time>2013-12-08T11:40:23Z</time>
      </trkpt>
      <trkpt lat="45.87508" lon="6.42834">
        <ele>1527.6935</ele>
        <time>2013-12-08T11:40:28Z</time>
      </trkpt>
      <trkpt lat="45.87508" lon="6.42834">
        <ele>1527.6935</ele>
        <time>2013-12-08T11:40:34Z</time>
      </trkpt>
      <trkpt lat="45.87508" lon="6.42834">
        <ele>1527.6935</ele>
        <time>2013-12-08T11:40:38Z</time>
      </trkpt>
      <trkpt lat="45.87508" lon="6.42834">
        <ele>1527.6935</ele>
        <time>2013-12-08T11:40:43Z</time>
      </trkpt>
      <trkpt lat="45.87508" lon="6.42834">
        <ele>1527.6935</ele>
        <time>2013-12-08T11:40:48Z</time>
      </trkpt>
      <trkpt lat="45.87508" lon="6.42834">
        <ele>1527.6935</ele>
        <time>2013-12-08T11:40:53Z</time>
      </trkpt>
      <trkpt lat="45.87508" lon="6.42834">
        <ele>1527.6935</ele>
        <time>2013-12-08T11:40:58Z</time>
      </trkpt>
      <trkpt lat="45.87508" lon="6.42834">
        <ele>1527.6935</ele>
        <time>2013-12-08T11:41:04Z</time>
      </trkpt>
      <trkpt lat="45.87508" lon="6.42834">
        <ele>1527.6935</ele>
        <time>2013-12-08T11:41:08Z</time>
      </trkpt>
      <trkpt lat="45.87508" lon="6.42834">
        <ele>1527.6935</ele>
        <time>2013-12-08T11:41:13Z</time>
      </trkpt>
      <trkpt lat="45.87508" lon="6.42834">
        <ele>1527.6935</ele>
        <time>2013-12-08T11:41:18Z</time>
      </trkpt>
      <trkpt lat="45.87508" lon="6.42834">
        <ele>1527.6935</ele>
        <time>2013-12-08T11:41:23Z</time>
      </trkpt>
      <trkpt lat="45.87508" lon="6.42834">
        <ele>1527.6935</ele>
        <time>2013-12-08T11:41:28Z</time>
      </trkpt>
      <trkpt lat="45.87508" lon="6.42834">
        <ele>1527.6935</ele>
        <time>2013-12-08T11:41:33Z</time>
      </trkpt>
      <trkpt lat="45.87508" lon="6.42834">
        <ele>1527.6935</ele>
        <time>2013-12-08T11:41:38Z</time>
      </trkpt>
      <trkpt lat="45.87508" lon="6.42834">
        <ele>1527.6935</ele>
        <time>2013-12-08T11:41:43Z</time>
      </trkpt>
      <trkpt lat="45.87508" lon="6.42834">
        <ele>1527.6935</ele>
        <time>2013-12-08T11:41:48Z</time>
      </trkpt>
      <trkpt lat="45.87508" lon="6.42834">
        <ele>1527.6935</ele>
        <time>2013-12-08T11:41:54Z</time>
      </trkpt>
      <trkpt lat="45.87508" lon="6.42834">
        <ele>1527.6935</ele>
        <time>2013-12-08T11:41:58Z</time>
      </trkpt>
      <trkpt lat="45.87513" lon="6.42825">
        <ele>1524.8323</ele>
        <time>2013-12-08T11:42:03Z</time>
      </trkpt>
      <trkpt lat="45.87514" lon="6.42821">
        <ele>1524.8323</ele>
        <time>2013-12-08T11:42:09Z</time>
      </trkpt>
      <trkpt lat="45.87524" lon="6.42799">
        <ele>1521.944</ele>
        <time>2013-12-08T11:42:13Z</time>
      </trkpt>
      <trkpt lat="45.87537" lon="6.42769">
        <ele>1519.2112</ele>
        <time>2013-12-08T11:42:18Z</time>
      </trkpt>
      <trkpt lat="45.87542" lon="6.42736">
        <ele>1515.9526</ele>
        <time>2013-12-08T11:42:24Z</time>
      </trkpt>
      <trkpt lat="45.87556" lon="6.42728">
        <ele>1513.0953</ele>
        <time>2013-12-08T11:42:28Z</time>
      </trkpt>
      <trkpt lat="45.87577" lon="6.42718">
        <ele>1509.955</ele>
        <time>2013-12-08T11:42:33Z</time>
      </trkpt>
      <trkpt lat="45.87581" lon="6.42715">
        <ele>1509.955</ele>
        <time>2013-12-08T11:42:39Z</time>
      </trkpt>
      <trkpt lat="45.87618" lon="6.42693">
        <ele>1505.9417</ele>
        <time>2013-12-08T11:42:43Z</time>
      </trkpt>
      <trkpt lat="45.87638" lon="6.42683">
        <ele>1501.7653</ele>
        <time>2013-12-08T11:42:48Z</time>
      </trkpt>
      <trkpt lat="45.87646" lon="6.42671">
        <ele>1497.4213</ele>
        <time>2013-12-08T11:42:53Z</time>
      </trkpt>
      <trkpt lat="45.87649" lon="6.42661">
        <ele>1497.4213</ele>
        <time>2013-12-08T11:42:58Z</time>
      </trkpt>
      <trkpt lat="45.8765" lon="6.42656">
        <ele>1492.6177</ele>
        <time>2013-12-08T11:43:03Z</time>
      </trkpt>
      <trkpt lat="45.87658" lon="6.42663">
        <ele>1492.6177</ele>
        <time>2013-12-08T11:43:08Z</time>
      </trkpt>
      <trkpt lat="45.87658" lon="6.42664">
        <ele>1488.4114</ele>
        <time>2013-12-08T11:43:13Z</time>
      </trkpt>
      <trkpt lat="45.87658" lon="6.42663">
        <ele>1488.4114</ele>
        <time>2013-12-08T11:43:18Z</time>
      </trkpt>
      <trkpt lat="45.87658" lon="6.42663">
        <ele>1488.4114</ele>
        <time>2013-12-08T11:43:23Z</time>
      </trkpt>
      <trkpt lat="45.87658" lon="6.42663">
        <ele>1488.4114</ele>
        <time>2013-12-08T11:43:28Z</time>
      </trkpt>
      <trkpt lat="45.87658" lon="6.42663">
        <ele>1488.4114</ele>
        <time>2013-12-08T11:43:34Z</time>
      </trkpt>
      <trkpt lat="45.87658" lon="6.42663">
        <ele>1488.4114</ele>
        <time>2013-12-08T11:43:38Z</time>
      </trkpt>
      <trkpt lat="45.87658" lon="6.42663">
        <ele>1488.4114</ele>
        <time>2013-12-08T11:43:43Z</time>
      </trkpt>
      <trkpt lat="45.87658" lon="6.42663">
        <ele>1488.4114</ele>
        <time>2013-12-08T11:43:48Z</time>
      </trkpt>
      <trkpt lat="45.87658" lon="6.42663">
        <ele>1488.4114</ele>
        <time>2013-12-08T11:43:54Z</time>
      </trkpt>
      <trkpt lat="45.87658" lon="6.42663">
        <ele>1488.4114</ele>
        <time>2013-12-08T11:43:58Z</time>
      </trkpt>
      <trkpt lat="45.87658" lon="6.42663">
        <ele>1488.4114</ele>
        <time>2013-12-08T11:44:03Z</time>
      </trkpt>
      <trkpt lat="45.87658" lon="6.42663">
        <ele>1488.4114</ele>
        <time>2013-12-08T11:44:10Z</time>
      </trkpt>
      <trkpt lat="45.87658" lon="6.42663">
        <ele>1488.4114</ele>
        <time>2013-12-08T11:44:18Z</time>
      </trkpt>
      <trkpt lat="45.87658" lon="6.42663">
        <ele>1488.4114</ele>
        <time>2013-12-08T11:44:23Z</time>
      </trkpt>
      <trkpt lat="45.87658" lon="6.42663">
        <ele>1488.4114</ele>
        <time>2013-12-08T11:44:29Z</time>
      </trkpt>
      <trkpt lat="45.87658" lon="6.42663">
        <ele>1488.4114</ele>
        <time>2013-12-08T11:44:33Z</time>
      </trkpt>
      <trkpt lat="45.87658" lon="6.42663">
        <ele>1488.4114</ele>
        <time>2013-12-08T11:44:38Z</time>
      </trkpt>
      <trkpt lat="45.87658" lon="6.42663">
        <ele>1488.4114</ele>
        <time>2013-12-08T11:44:44Z</time>
      </trkpt>
      <trkpt lat="45.87658" lon="6.42663">
        <ele>1488.4114</ele>
        <time>2013-12-08T11:44:48Z</time>
      </trkpt>
      <trkpt lat="45.87658" lon="6.42663">
        <ele>1488.4114</ele>
        <time>2013-12-08T11:44:53Z</time>
      </trkpt>
      <trkpt lat="45.87658" lon="6.42665">
        <ele>1488.4114</ele>
        <time>2013-12-08T11:44:58Z</time>
      </trkpt>
      <trkpt lat="45.87658" lon="6.42666">
        <ele>1488.4114</ele>
        <time>2013-12-08T11:45:03Z</time>
      </trkpt>
      <trkpt lat="45.87658" lon="6.42667">
        <ele>1488.4114</ele>
        <time>2013-12-08T11:45:08Z</time>
      </trkpt>
      <trkpt lat="45.87658" lon="6.42667">
        <ele>1488.4114</ele>
        <time>2013-12-08T11:45:13Z</time>
      </trkpt>
      <trkpt lat="45.87657" lon="6.42667">
        <ele>1488.4114</ele>
        <time>2013-12-08T11:45:19Z</time>
      </trkpt>
      <trkpt lat="45.87657" lon="6.42667">
        <ele>1488.4114</ele>
        <time>2013-12-08T11:45:23Z</time>
      </trkpt>
      <trkpt lat="45.87657" lon="6.42667">
        <ele>1488.4114</ele>
        <time>2013-12-08T11:45:28Z</time>
      </trkpt>
      <trkpt lat="45.87658" lon="6.42667">
        <ele>1488.4114</ele>
        <time>2013-12-08T11:45:33Z</time>
      </trkpt>
      <trkpt lat="45.87658" lon="6.42667">
        <ele>1488.4114</ele>
        <time>2013-12-08T11:45:39Z</time>
      </trkpt>
      <trkpt lat="45.87658" lon="6.42667">
        <ele>1488.4114</ele>
        <time>2013-12-08T11:45:43Z</time>
      </trkpt>
      <trkpt lat="45.87658" lon="6.42667">
        <ele>1488.4114</ele>
        <time>2013-12-08T11:45:48Z</time>
      </trkpt>
      <trkpt lat="45.87658" lon="6.42667">
        <ele>1488.4114</ele>
        <time>2013-12-08T11:45:53Z</time>
      </trkpt>
      <trkpt lat="45.87659" lon="6.42667">
        <ele>1488.4114</ele>
        <time>2013-12-08T11:45:58Z</time>
      </trkpt>
      <trkpt lat="45.87662" lon="6.4267">
        <ele>1484.4254</ele>
        <time>2013-12-08T11:46:03Z</time>
      </trkpt>
      <trkpt lat="45.87661" lon="6.42673">
        <ele>1484.4254</ele>
        <time>2013-12-08T11:46:08Z</time>
      </trkpt>
      <trkpt lat="45.87657" lon="6.42675">
        <ele>1484.4254</ele>
        <time>2013-12-08T11:46:13Z</time>
      </trkpt>
      <trkpt lat="45.87659" lon="6.42674">
        <ele>1484.4254</ele>
        <time>2013-12-08T11:46:18Z</time>
      </trkpt>
      <trkpt lat="45.87659" lon="6.42675">
        <ele>1484.4254</ele>
        <time>2013-12-08T11:46:23Z</time>
      </trkpt>
      <trkpt lat="45.87659" lon="6.42675">
        <ele>1484.4254</ele>
        <time>2013-12-08T11:46:28Z</time>
      </trkpt>
      <trkpt lat="45.87659" lon="6.42675">
        <ele>1481.0016</ele>
        <time>2013-12-08T11:46:33Z</time>
      </trkpt>
      <trkpt lat="45.87659" lon="6.42675">
        <ele>1481.0016</ele>
        <time>2013-12-08T11:46:39Z</time>
      </trkpt>
      <trkpt lat="45.87659" lon="6.42675">
        <ele>1481.0016</ele>
        <time>2013-12-08T11:46:43Z</time>
      </trkpt>
      <trkpt lat="45.87659" lon="6.42675">
        <ele>1481.0016</ele>
        <time>2013-12-08T11:46:48Z</time>
      </trkpt>
      <trkpt lat="45.87659" lon="6.42675">
        <ele>1481.0016</ele>
        <time>2013-12-08T11:46:54Z</time>
      </trkpt>
      <trkpt lat="45.87659" lon="6.42675">
        <ele>1481.0016</ele>
        <time>2013-12-08T11:46:58Z</time>
      </trkpt>
      <trkpt lat="45.87659" lon="6.42676">
        <ele>1481.0016</ele>
        <time>2013-12-08T11:47:03Z</time>
      </trkpt>
      <trkpt lat="45.87659" lon="6.42676">
        <ele>1481.0016</ele>
        <time>2013-12-08T11:47:09Z</time>
      </trkpt>
      <trkpt lat="45.87659" lon="6.42676">
        <ele>1481.0016</ele>
        <time>2013-12-08T11:47:13Z</time>
      </trkpt>
      <trkpt lat="45.87659" lon="6.42676">
        <ele>1481.0016</ele>
        <time>2013-12-08T11:47:18Z</time>
      </trkpt>
      <trkpt lat="45.87659" lon="6.42676">
        <ele>1481.0016</ele>
        <time>2013-12-08T11:47:24Z</time>
      </trkpt>
      <trkpt lat="45.87659" lon="6.42676">
        <ele>1481.0016</ele>
        <time>2013-12-08T11:47:28Z</time>
      </trkpt>
      <trkpt lat="45.87659" lon="6.42676">
        <ele>1481.0016</ele>
        <time>2013-12-08T11:47:33Z</time>
      </trkpt>
      <trkpt lat="45.87659" lon="6.42676">
        <ele>1481.0016</ele>
        <time>2013-12-08T11:47:39Z</time>
      </trkpt>
      <trkpt lat="45.87659" lon="6.42676">
        <ele>1481.0016</ele>
        <time>2013-12-08T11:47:43Z</time>
      </trkpt>
      <trkpt lat="45.87658" lon="6.42676">
        <ele>1481.0016</ele>
        <time>2013-12-08T11:47:48Z</time>
      </trkpt>
      <trkpt lat="45.87658" lon="6.42676">
        <ele>1481.0016</ele>
        <time>2013-12-08T11:47:54Z</time>
      </trkpt>
      <trkpt lat="45.87659" lon="6.42676">
        <ele>1481.0016</ele>
        <time>2013-12-08T11:47:58Z</time>
      </trkpt>
      <trkpt lat="45.87658" lon="6.42676">
        <ele>1481.0016</ele>
        <time>2013-12-08T11:48:03Z</time>
      </trkpt>
      <trkpt lat="45.87658" lon="6.42676">
        <ele>1481.0016</ele>
        <time>2013-12-08T11:48:09Z</time>
      </trkpt>
      <trkpt lat="45.87658" lon="6.42676">
        <ele>1481.0016</ele>
        <time>2013-12-08T11:48:13Z</time>
      </trkpt>
      <trkpt lat="45.87658" lon="6.42676">
        <ele>1481.0016</ele>
        <time>2013-12-08T11:48:18Z</time>
      </trkpt>
      <trkpt lat="45.87658" lon="6.42676">
        <ele>1481.0016</ele>
        <time>2013-12-08T11:48:24Z</time>
      </trkpt>
      <trkpt lat="45.87658" lon="6.42676">
        <ele>1481.0016</ele>
        <time>2013-12-08T11:48:28Z</time>
      </trkpt>
      <trkpt lat="45.87658" lon="6.42676">
        <ele>1481.0016</ele>
        <time>2013-12-08T11:48:33Z</time>
      </trkpt>
      <trkpt lat="45.87658" lon="6.42676">
        <ele>1481.0016</ele>
        <time>2013-12-08T11:48:39Z</time>
      </trkpt>
      <trkpt lat="45.87658" lon="6.42676">
        <ele>1481.0016</ele>
        <time>2013-12-08T11:48:43Z</time>
      </trkpt>
      <trkpt lat="45.87658" lon="6.42676">
        <ele>1481.0016</ele>
        <time>2013-12-08T11:48:48Z</time>
      </trkpt>
      <trkpt lat="45.87658" lon="6.42676">
        <ele>1481.0016</ele>
        <time>2013-12-08T11:48:53Z</time>
      </trkpt>
      <trkpt lat="45.87658" lon="6.42676">
        <ele>1481.0016</ele>
        <time>2013-12-08T11:48:58Z</time>
      </trkpt>
      <trkpt lat="45.87658" lon="6.42676">
        <ele>1481.0016</ele>
        <time>2013-12-08T11:49:03Z</time>
      </trkpt>
      <trkpt lat="45.87658" lon="6.42676">
        <ele>1481.0016</ele>
        <time>2013-12-08T11:49:08Z</time>
      </trkpt>
      <trkpt lat="45.87658" lon="6.42676">
        <ele>1481.0016</ele>
        <time>2013-12-08T11:49:13Z</time>
      </trkpt>
      <trkpt lat="45.87658" lon="6.42676">
        <ele>1481.0016</ele>
        <time>2013-12-08T11:49:18Z</time>
      </trkpt>
    </trkseg>
  </trk>
</gpx>